[[{"header":{"parameterUnit":"m.s-1","parameterCategory":1,"la1":31.0,"la2":29.5877,"lo1":-88.7671,"lo2":-86.6584,"dy":0.0162,"dx":0.0185,"nx":115,"ny":88,"refTime":"2023-04-19T00:00:00:Z","depth":0,"parameterNumber":2,"parameterNumberName":"U-component_of_WINDS"},"data":[0.0,0.0,0.0,0.0,0.0,0.0,0.0,0.0,0.0,0.0,0.0,0.0,0.0,0.0,0.0,0.0,0.0,0.0,0.0,0.0,0.0,0.0,0.0,0.0,0.0,0.0,0.0,0.0,0.0,0.0,0.0,0.0,0.0,0.0,0.0,0.0,0.0,0.0,0.0,0.0,0.0,0.0,0.0,0.0,0.0,0.0,0.0,0.0,0.0,0.0,0.0,0.0,0.0,0.0,0.0,0.0,0.0,0.0,0.0,0.0,0.0,0.0,0.0,0.0,0.0,0.0,0.0,0.0,0.0,0.0,0.0,0.0,0.0,0.0,0.0,0.0,0.0,0.0,0.0,0.0,0.0,0.0,0.0,0.0,0.0,0.0,0.0,0.0,0.0,0.0,0.0,0.0,0.0,0.0,0.0,0.0,0.0,0.0,0.0,0.0,0.0,0.0,0.0,0.0,0.0,0.0,0.0,0.0,0.0,0.0,0.0,0.0,0.0,0.0,0.0,0.0,0.0,0.0,0.0,0.0,0.0,0.0,0.0,0.0,0.0,0.0,0.0,0.0,0.0,0.0,0.0,0.0,0.0,0.0,0.0,0.0,0.0,0.0,0.0,0.0,0.0,0.0,0.0,0.0,0.0,0.0,0.0,0.0,0.0,0.0,0.0,0.0,0.0,0.0,0.0,0.0,0.0,0.0,0.0,0.0,0.0,0.0,0.0,0.0,0.0,0.0,0.0,0.0,0.0,0.0,0.0,0.0,0.0,0.0,0.0,0.0,0.0,0.0,0.0,0.0,0.0,0.0,0.0,0.0,0.0,0.0,0.0,0.0,0.0,0.0,0.0,0.0,0.0,0.0,0.0,0.0,0.0,0.0,0.0,0.0,0.0,0.0,0.0,0.0,0.0,0.0,0.0,0.0,0.0,0.0,0.0,0.0,0.0,0.0,0.0,0.0,0.0,0.0,0.0,0.0,0.0,0.0,0.0,0.0,0.0,0.0,0.0,0.0,0.0,0.0,0.0,0.0,0.0,0.0,0.0,0.0,0.0,0.0,0.0,0.0,0.0,0.0,0.0,0.0,0.0,0.0,0.0,0.0,0.0,0.0,0.0,0.0,0.0,0.0,0.0,0.0,0.0,0.0,0.0,0.0,0.0,0.0,0.0,0.0,0.0,0.0,0.0,0.0,0.0,0.0,0.0,0.0,0.0,0.0,0.0,0.0,0.0,0.0,0.0,0.0,0.0,0.0,0.0,0.0,0.0,0.0,0.0,0.0,0.0,0.0,0.0,0.0,0.0,0.0,0.0,0.0,0.0,0.0,0.0,0.0,0.0,0.0,0.0,0.0,0.0,0.0,0.0,0.0,0.0,0.0,0.0,0.0,0.0,0.0,0.0,0.0,0.0,0.0,0.0,0.0,0.0,0.0,0.0,0.0,0.0,0.0,0.0,0.0,0.0,0.0,0.0,0.0,0.0,0.0,0.0,0.0,0.0,0.0,0.0,0.0,0.0,0.0,0.0,0.0,0.0,0.0,0.0,0.0,0.0,0.0,0.0,0.0,0.0,0.0,0.0,0.0,0.0,0.0,0.0,0.0,0.0,0.0,0.0,0.0,0.0,0.0,0.0,0.0,0.0,0.0,0.0,0.0,0.0,0.0,0.0,0.0,0.0,0.0,0.0,0.0,0.0,0.0,0.0,0.0,0.0,0.0,0.0,0.0,0.0,0.0,0.0,0.0,0.0,0.0,0.0,0.0,0.0,0.0,0.0,0.0,0.0,0.0,0.0,0.0,0.0,0.0,0.0,0.0,0.0,0.0,0.0,0.0,0.0,0.0,0.0,0.0,0.0,0.0,0.0,0.0,0.0,0.0,0.0,0.0,0.0,0.0,0.0,0.0,0.0,0.0,0.0,0.0,0.0,0.0,0.0,0.0,0.0,0.0,0.0,0.0,0.0,0.0,0.0,0.0,0.0,0.0,0.0,0.0,0.0,0.0,0.0,0.0,0.0,0.0,0.0,0.0,0.0,0.0,0.0,0.0,0.0,0.0,0.0,0.0,0.0,0.0,0.0,0.0,0.0,0.0,0.0,0.0,0.0,0.0,0.0,0.0,0.0,0.0,0.0,0.0,0.0,0.0,0.0,0.0,0.0,0.0,0.0,0.0,0.0,0.0,0.0,0.0,0.0,0.0,0.0,0.0,0.0,0.0,0.0,0.0,0.0,0.0,0.0,0.0,0.0,0.0,0.0,0.0,0.0,0.0,0.0,0.0,0.0,0.0,0.0,0.0,0.0,0.0,0.0,0.0,0.0,0.0,0.0,0.0,0.0,0.0,0.0,0.0,0.0,0.0,0.0,0.0,0.0,0.0,0.0,0.0,0.0,0.0,0.0,0.0,0.0,0.0,0.0,0.0,0.0,0.0,0.0,0.0,0.0,0.0,0.0,0.0,0.0,0.0,0.0,0.0,0.0,0.0,0.0,0.0,0.0,0.0,0.0,0.0,0.0,0.0,0.0,0.0,0.0,0.0,0.0,0.0,0.0,0.0,0.0,0.0,0.0,0.0,0.0,0.0,0.0,0.0,0.0,0.0,0.0,0.0,0.0,0.0,0.0,0.0,0.0,0.0,0.0,0.0,0.0,0.0,0.0,0.0,0.0,0.0,0.0,0.0,0.0,0.0,0.0,0.0,0.0,0.0,0.0,0.0,0.0,0.0,0.0,0.0,0.0,0.0,0.0,0.0,0.0,0.0,0.0,0.0,0.0,0.0,0.0,0.0,0.0,0.0,0.0,0.0,0.0,0.0,0.0,0.0,0.0,0.0,0.0,0.0,0.0,0.0,0.0,0.0,0.0,0.0,0.0,0.0,0.0,0.0,0.0,0.0,0.0,0.0,0.0,0.0,0.0,0.0,0.0,0.0,0.0,0.0,0.0,0.0,0.0,0.0,0.0,0.0,0.0,0.0,0.0,0.0,0.0,0.0,0.0,0.0,0.0,0.0,0.0,0.0,0.0,0.0,0.0,0.0,0.0,0.0,0.0,0.0,0.0,0.0,0.0,0.0,0.0,0.0,0.0,0.0,0.0,0.0,0.0,0.0,0.0,0.0,0.0,0.0,0.0,0.0,0.0,0.0,0.0,0.0,0.0,0.0,0.0,0.0,0.0,0.0,0.0,0.0,0.0,0.0,0.0,0.0,0.0,0.0,0.0,0.0,0.0,0.0,0.0,0.0,0.0,0.0,0.0,0.0,0.0,0.0,0.0,0.0,0.0,0.0,0.0,0.0,0.0,0.0,0.0,0.0,0.0,0.0,0.0,0.0,0.0,0.0,0.0,0.0,0.0,0.0,0.0,0.0,0.0,0.0,0.0,0.0,0.0,0.0,0.0,0.0,0.0,0.0,0.0,0.0,0.0,0.0,0.0,0.0,0.0,0.0,0.0,0.0,0.0,0.0,0.0,0.0,0.0,0.0,0.0,0.0,0.0,0.0,0.0,0.0,0.0,0.0,0.0,0.0,0.0,0.0,0.0,0.0,0.0,0.0,0.0,0.0,0.0,0.0,0.0,0.0,0.0,0.0,0.0,0.0,0.0,0.0,0.0,0.0,0.0,0.0,0.0,0.0,0.0,0.0,0.0,0.0,0.0,0.0,0.0,0.0,0.0,0.0,0.0,0.0,0.0,0.0,0.0,0.0,0.0,0.0,0.0,0.0,0.0,0.0,0.0,0.0,0.0,0.0,0.0,0.0,0.0,0.0,0.0,0.0,0.0,0.0,0.0,0.0,0.0,0.0,0.0,0.0,0.0,0.0,0.0,0.0,0.0,0.0,0.0,0.0,0.0,0.0,0.0,0.0,0.0,0.0,0.0,0.0,0.0,0.0,0.0,0.0,0.0,0.0,0.0,0.0,0.0,0.0,0.0,0.0,0.0,0.0,0.0,0.0,0.0,0.0,0.0,0.0,0.0,0.0,0.0,0.0,0.0,0.0,0.0,0.0,0.0,0.0,0.0,0.0,0.0,0.0,0.0,0.0,0.0,0.0,0.0,0.0,0.0,0.0,0.0,0.0,0.0,0.0,0.0,0.0,0.0,0.0,0.0,0.0,0.0,0.0,0.0,0.0,0.0,0.0,0.0,0.0,0.0,0.0,0.0,0.0,0.0,0.0,0.0,0.0,0.0,0.0,0.0,0.0,0.0,0.0,0.0,0.0,0.0,0.0,0.0,0.0,0.0,0.0,0.0,0.0,0.0,0.0,0.0,0.0,0.0,0.0,0.0,0.0,0.0,0.0,-5.0797,0.0,0.0,0.0,0.0,0.0,0.0,0.0,0.0,0.0,0.0,0.0,0.0,0.0,0.0,0.0,0.0,0.0,0.0,0.0,0.0,0.0,0.0,0.0,0.0,0.0,0.0,0.0,0.0,0.0,0.0,0.0,0.0,0.0,0.0,0.0,0.0,0.0,0.0,0.0,0.0,0.0,0.0,0.0,0.0,0.0,0.0,0.0,0.0,0.0,0.0,0.0,0.0,0.0,0.0,0.0,0.0,0.0,0.0,0.0,0.0,0.0,0.0,0.0,0.0,0.0,0.0,0.0,0.0,0.0,0.0,0.0,0.0,0.0,0.0,0.0,0.0,0.0,0.0,0.0,0.0,0.0,0.0,0.0,0.0,0.0,0.0,0.0,0.0,0.0,0.0,0.0,0.0,0.0,0.0,0.0,0.0,0.0,0.0,0.0,0.0,0.0,0.0,0.0,0.0,0.0,0.0,0.0,0.0,0.0,0.0,-5.4338,-5.3859,-5.3334,-5.2363,-5.0835,0.0,0.0,0.0,0.0,0.0,0.0,0.0,0.0,0.0,0.0,0.0,0.0,0.0,0.0,0.0,0.0,0.0,0.0,0.0,0.0,0.0,0.0,0.0,0.0,0.0,0.0,0.0,0.0,0.0,0.0,0.0,0.0,0.0,0.0,0.0,0.0,0.0,0.0,0.0,0.0,0.0,0.0,0.0,0.0,0.0,0.0,0.0,0.0,0.0,0.0,0.0,0.0,0.0,0.0,0.0,0.0,0.0,0.0,0.0,0.0,0.0,0.0,0.0,0.0,0.0,0.0,0.0,0.0,0.0,0.0,0.0,0.0,0.0,0.0,0.0,0.0,0.0,0.0,0.0,0.0,0.0,0.0,0.0,0.0,0.0,0.0,0.0,0.0,0.0,0.0,0.0,0.0,0.0,0.0,0.0,0.0,0.0,0.0,0.0,0.0,0.0,0.0,0.0,0.0,0.0,0.0,0.0,0.0,0.0,0.0,0.0,0.0,-5.3793,-5.2791,-5.0928,0.0,0.0,0.0,0.0,0.0,0.0,0.0,0.0,0.0,0.0,0.0,0.0,0.0,0.0,0.0,0.0,0.0,0.0,0.0,0.0,0.0,0.0,0.0,0.0,0.0,0.0,0.0,0.0,0.0,0.0,0.0,0.0,0.0,0.0,0.0,0.0,0.0,0.0,0.0,0.0,0.0,0.0,0.0,0.0,0.0,0.0,0.0,0.0,0.0,0.0,0.0,0.0,0.0,0.0,0.0,0.0,0.0,0.0,0.0,0.0,0.0,0.0,0.0,0.0,0.0,0.0,0.0,0.0,0.0,0.0,0.0,0.0,0.0,0.0,0.0,0.0,0.0,0.0,0.0,0.0,0.0,0.0,0.0,0.0,0.0,0.0,0.0,0.0,0.0,0.0,0.0,0.0,0.0,0.0,0.0,0.0,0.0,0.0,0.0,0.0,0.0,0.0,0.0,0.0,0.0,0.0,0.0,0.0,0.0,0.0,-5.3324,-5.4741,-5.3951,0.0,-5.1442,0.0,0.0,0.0,0.0,0.0,0.0,0.0,0.0,0.0,0.0,0.0,0.0,0.0,0.0,0.0,0.0,0.0,0.0,0.0,0.0,0.0,0.0,0.0,0.0,0.0,0.0,0.0,0.0,0.0,0.0,0.0,0.0,0.0,0.0,0.0,0.0,0.0,0.0,0.0,0.0,0.0,0.0,0.0,0.0,0.0,0.0,0.0,0.0,0.0,0.0,0.0,0.0,0.0,0.0,0.0,0.0,0.0,0.0,0.0,0.0,0.0,0.0,0.0,0.0,0.0,0.0,0.0,0.0,0.0,0.0,0.0,0.0,0.0,0.0,0.0,0.0,0.0,0.0,0.0,0.0,0.0,0.0,0.0,0.0,0.0,0.0,0.0,0.0,0.0,0.0,0.0,0.0,0.0,0.0,0.0,0.0,0.0,0.0,0.0,0.0,0.0,0.0,0.0,0.0,0.0,0.0,0.0,0.0,0.0,0.0,-5.4421,-5.5636,-5.4021,-5.1926,0.0,0.0,0.0,0.0,0.0,0.0,0.0,0.0,0.0,0.0,0.0,0.0,0.0,0.0,0.0,0.0,0.0,0.0,0.0,0.0,0.0,0.0,0.0,0.0,0.0,0.0,0.0,0.0,0.0,0.0,0.0,0.0,0.0,0.0,0.0,0.0,0.0,0.0,0.0,0.0,0.0,0.0,0.0,0.0,0.0,0.0,0.0,0.0,0.0,0.0,0.0,0.0,0.0,0.0,0.0,0.0,0.0,0.0,0.0,0.0,0.0,0.0,0.0,0.0,0.0,0.0,0.0,0.0,0.0,0.0,0.0,0.0,0.0,0.0,0.0,0.0,0.0,0.0,0.0,0.0,0.0,0.0,0.0,0.0,0.0,0.0,0.0,0.0,0.0,0.0,0.0,0.0,0.0,0.0,0.0,0.0,0.0,0.0,0.0,0.0,0.0,0.0,0.0,0.0,0.0,0.0,0.0,0.0,0.0,0.0,-5.4997,-5.5101,-5.567,-5.3433,-5.0978,-4.8492,0.0,0.0,0.0,0.0,0.0,0.0,0.0,0.0,0.0,0.0,0.0,0.0,0.0,0.0,0.0,0.0,0.0,0.0,0.0,0.0,0.0,0.0,0.0,0.0,0.0,0.0,0.0,0.0,0.0,0.0,0.0,0.0,0.0,0.0,0.0,0.0,0.0,0.0,0.0,0.0,0.0,0.0,0.0,0.0,0.0,0.0,0.0,0.0,0.0,0.0,0.0,0.0,0.0,0.0,0.0,0.0,0.0,0.0,0.0,0.0,0.0,0.0,0.0,0.0,0.0,0.0,0.0,0.0,0.0,0.0,0.0,0.0,0.0,0.0,0.0,0.0,0.0,0.0,0.0,0.0,0.0,0.0,0.0,0.0,0.0,0.0,0.0,0.0,0.0,0.0,0.0,0.0,0.0,0.0,0.0,0.0,0.0,0.0,0.0,0.0,0.0,0.0,0.0,0.0,0.0,0.0,0.0,0.0,-5.6807,-5.5481,-5.4755,-5.4814,-5.1926,-5.0274,0.0,0.0,0.0,0.0,0.0,0.0,0.0,0.0,0.0,0.0,0.0,0.0,0.0,0.0,0.0,0.0,0.0,0.0,0.0,0.0,0.0,0.0,0.0,0.0,0.0,0.0,0.0,0.0,0.0,0.0,0.0,0.0,0.0,0.0,0.0,0.0,0.0,0.0,0.0,0.0,0.0,0.0,0.0,0.0,0.0,0.0,0.0,0.0,0.0,0.0,0.0,0.0,0.0,0.0,0.0,0.0,0.0,0.0,0.0,0.0,0.0,0.0,0.0,0.0,0.0,0.0,0.0,0.0,0.0,0.0,0.0,0.0,0.0,0.0,0.0,0.0,0.0,0.0,0.0,0.0,0.0,0.0,0.0,0.0,0.0,0.0,0.0,0.0,0.0,0.0,0.0,0.0,0.0,0.0,0.0,0.0,0.0,0.0,0.0,0.0,0.0,0.0,0.0,0.0,0.0,0.0,0.0,0.0,0.0,-5.5487,-5.5615,-5.5082,-5.3908,-5.2107,-5.0588,0.0,0.0,0.0,0.0,0.0,0.0,0.0,0.0,0.0,0.0,0.0,0.0,0.0,0.0,0.0,0.0,0.0,0.0,0.0,0.0,0.0,0.0,0.0,0.0,0.0,0.0,0.0,0.0,0.0,0.0,0.0,0.0,0.0,0.0,0.0,0.0,0.0,0.0,0.0,0.0,0.0,0.0,0.0,0.0,0.0,0.0,0.0,0.0,0.0,0.0,0.0,0.0,0.0,0.0,0.0,0.0,0.0,0.0,0.0,0.0,0.0,0.0,0.0,0.0,0.0,0.0,0.0,0.0,0.0,0.0,0.0,0.0,0.0,0.0,0.0,0.0,0.0,0.0,0.0,0.0,0.0,0.0,0.0,0.0,0.0,0.0,0.0,0.0,0.0,0.0,0.0,0.0,0.0,0.0,0.0,0.0,0.0,0.0,0.0,0.0,0.0,0.0,0.0,0.0,0.0,0.0,0.0,0.0,0.0,-5.4673,0.0,-5.5015,-5.3424,-5.1783,-5.0118,0.0,0.0,0.0,0.0,0.0,0.0,0.0,0.0,0.0,0.0,0.0,0.0,0.0,0.0,0.0,0.0,0.0,0.0,0.0,0.0,0.0,0.0,0.0,0.0,0.0,0.0,0.0,0.0,0.0,0.0,0.0,0.0,0.0,0.0,0.0,0.0,0.0,0.0,0.0,0.0,0.0,0.0,0.0,0.0,0.0,0.0,0.0,0.0,0.0,0.0,0.0,0.0,0.0,0.0,0.0,0.0,0.0,0.0,0.0,0.0,0.0,0.0,0.0,0.0,0.0,0.0,0.0,0.0,0.0,0.0,0.0,0.0,0.0,0.0,0.0,0.0,0.0,0.0,0.0,0.0,0.0,0.0,0.0,0.0,0.0,0.0,0.0,0.0,0.0,0.0,0.0,0.0,0.0,0.0,0.0,0.0,0.0,0.0,0.0,0.0,0.0,0.0,0.0,0.0,0.0,0.0,0.0,0.0,-5.3288,-5.4616,-5.4826,-5.4485,-5.3421,-5.0791,-4.8812,0.0,0.0,0.0,0.0,0.0,0.0,0.0,0.0,0.0,0.0,0.0,0.0,0.0,0.0,0.0,0.0,0.0,0.0,0.0,0.0,0.0,0.0,0.0,0.0,0.0,0.0,0.0,0.0,0.0,0.0,0.0,0.0,0.0,0.0,0.0,0.0,0.0,0.0,0.0,0.0,0.0,0.0,0.0,0.0,0.0,0.0,0.0,0.0,0.0,0.0,0.0,0.0,0.0,0.0,0.0,0.0,0.0,0.0,0.0,0.0,0.0,0.0,0.0,0.0,0.0,0.0,0.0,0.0,0.0,0.0,0.0,0.0,0.0,0.0,0.0,0.0,0.0,0.0,0.0,0.0,0.0,0.0,0.0,0.0,0.0,0.0,0.0,0.0,0.0,0.0,0.0,0.0,0.0,0.0,0.0,0.0,0.0,0.0,0.0,0.0,0.0,0.0,0.0,0.0,0.0,0.0,0.0,0.0,0.0,-5.3805,-5.4523,-5.4927,-5.4875,-5.1771,-4.9994,0.0,0.0,0.0,0.0,0.0,0.0,0.0,0.0,0.0,0.0,0.0,0.0,0.0,0.0,0.0,0.0,0.0,0.0,0.0,0.0,0.0,0.0,0.0,0.0,0.0,0.0,0.0,0.0,0.0,0.0,0.0,0.0,0.0,0.0,0.0,0.0,0.0,0.0,0.0,0.0,0.0,0.0,0.0,0.0,0.0,0.0,0.0,0.0,0.0,0.0,0.0,0.0,0.0,0.0,0.0,0.0,0.0,0.0,0.0,0.0,0.0,0.0,0.0,0.0,0.0,0.0,0.0,0.0,0.0,0.0,0.0,0.0,0.0,0.0,0.0,0.0,0.0,0.0,0.0,0.0,0.0,0.0,0.0,0.0,0.0,0.0,0.0,0.0,0.0,0.0,0.0,0.0,0.0,0.0,0.0,0.0,0.0,0.0,0.0,0.0,0.0,0.0,0.0,0.0,0.0,0.0,0.0,0.0,0.0,-5.3946,-5.4817,-5.5249,-5.5208,-5.2342,-5.0689,-5.0375,0.0,0.0,0.0,0.0,0.0,0.0,0.0,0.0,0.0,0.0,0.0,0.0,0.0,0.0,0.0,0.0,0.0,0.0,0.0,0.0,0.0,0.0,0.0,0.0,0.0,0.0,0.0,0.0,0.0,0.0,0.0,0.0,0.0,0.0,0.0,0.0,0.0,0.0,0.0,0.0,0.0,0.0,0.0,0.0,0.0,0.0,0.0,0.0,0.0,0.0,0.0,0.0,0.0,0.0,0.0,0.0,0.0,0.0,0.0,0.0,0.0,0.0,0.0,0.0,0.0,0.0,0.0,0.0,0.0,0.0,0.0,0.0,0.0,0.0,0.0,0.0,0.0,0.0,0.0,0.0,0.0,0.0,0.0,0.0,0.0,0.0,0.0,0.0,0.0,0.0,0.0,0.0,0.0,0.0,0.0,0.0,0.0,0.0,0.0,0.0,0.0,0.0,0.0,0.0,0.0,0.0,0.0,0.0,-5.4896,-5.5686,-5.5666,-5.4687,-5.2648,-5.1008,0.0,0.0,0.0,0.0,0.0,0.0,0.0,0.0,0.0,0.0,0.0,0.0,0.0,0.0,0.0,0.0,0.0,0.0,0.0,0.0,0.0,0.0,0.0,0.0,0.0,0.0,0.0,0.0,0.0,0.0,0.0,0.0,0.0,0.0,0.0,0.0,0.0,0.0,0.0,0.0,0.0,0.0,0.0,0.0,0.0,0.0,0.0,0.0,0.0,0.0,0.0,0.0,0.0,0.0,0.0,0.0,0.0,0.0,0.0,0.0,0.0,0.0,0.0,0.0,0.0,0.0,0.0,0.0,0.0,0.0,0.0,0.0,0.0,0.0,0.0,0.0,0.0,0.0,0.0,0.0,0.0,0.0,0.0,0.0,0.0,0.0,0.0,0.0,0.0,0.0,0.0,0.0,0.0,0.0,0.0,0.0,0.0,0.0,0.0,0.0,0.0,0.0,0.0,0.0,0.0,0.0,0.0,0.0,0.0,-5.6135,-5.7635,-5.8028,-5.7163,-5.4087,-5.1992,0.0,0.0,0.0,0.0,0.0,0.0,0.0,0.0,0.0,0.0,0.0,0.0,0.0,0.0,0.0,0.0,0.0,0.0,0.0,0.0,0.0,0.0,0.0,0.0,0.0,0.0,0.0,0.0,0.0,0.0,0.0,0.0,0.0,0.0,0.0,0.0,0.0,0.0,0.0,0.0,0.0,0.0,0.0,0.0,0.0,0.0,0.0,0.0,0.0,0.0,0.0,0.0,0.0,0.0,0.0,0.0,0.0,0.0,0.0,0.0,0.0,0.0,0.0,0.0,0.0,0.0,0.0,0.0,0.0,0.0,0.0,0.0,0.0,0.0,0.0,0.0,0.0,0.0,0.0,0.0,0.0,0.0,0.0,0.0,0.0,0.0,0.0,0.0,0.0,0.0,0.0,0.0,0.0,0.0,0.0,0.0,0.0,0.0,0.0,0.0,0.0,0.0,0.0,0.0,0.0,0.0,0.0,0.0,-5.4613,-5.7154,-5.8896,-5.9572,-5.9084,-5.6106,-5.3476,0.0,0.0,0.0,0.0,0.0,0.0,0.0,0.0,0.0,0.0,0.0,0.0,0.0,0.0,0.0,0.0,0.0,0.0,0.0,0.0,0.0,0.0,0.0,0.0,0.0,0.0,0.0,0.0,0.0,0.0,0.0,0.0,0.0,0.0,0.0,0.0,0.0,0.0,0.0,0.0,0.0,0.0,0.0,0.0,0.0,0.0,0.0,0.0,0.0,0.0,0.0,0.0,0.0,0.0,0.0,0.0,0.0,0.0,0.0,0.0,0.0,0.0,0.0,0.0,0.0,0.0,0.0,0.0,0.0,0.0,0.0,0.0,0.0,0.0,0.0,0.0,0.0,0.0,0.0,0.0,0.0,0.0,0.0,0.0,0.0,0.0,0.0,0.0,0.0,0.0,0.0,0.0,0.0,0.0,0.0,0.0,0.0,0.0,0.0,0.0,0.0,0.0,0.0,0.0,0.0,0.0,0.0,0.0,-5.5759,-5.8034,-5.9702,-6.047,-6.0297,-5.8032,-5.5027,0.0,0.0,0.0,0.0,0.0,0.0,0.0,0.0,0.0,0.0,0.0,0.0,0.0,0.0,0.0,0.0,0.0,0.0,0.0,0.0,0.0,0.0,0.0,0.0,0.0,0.0,0.0,0.0,0.0,0.0,0.0,0.0,0.0,0.0,0.0,0.0,0.0,0.0,0.0,0.0,0.0,0.0,0.0,0.0,0.0,0.0,0.0,0.0,0.0,0.0,0.0,0.0,0.0,0.0,0.0,0.0,0.0,0.0,0.0,0.0,0.0,0.0,0.0,0.0,0.0,0.0,0.0,0.0,0.0,0.0,0.0,0.0,0.0,0.0,0.0,0.0,0.0,0.0,0.0,0.0,0.0,0.0,0.0,0.0,0.0,0.0,0.0,0.0,0.0,0.0,0.0,0.0,0.0,0.0,0.0,0.0,0.0,0.0,0.0,0.0,0.0,0.0,0.0,0.0,0.0,0.0,0.0,0.0,-5.588,-5.9072,-6.0338,-6.0901,-6.0738,-5.754,-5.459,0.0,0.0,0.0,0.0,0.0,0.0,0.0,0.0,0.0,0.0,0.0,0.0,0.0,0.0,0.0,0.0,0.0,0.0,0.0,0.0,0.0,0.0,0.0,0.0,0.0,0.0,0.0,0.0,0.0,0.0,0.0,0.0,0.0,0.0,0.0,0.0,0.0,0.0,0.0,0.0,0.0,0.0,0.0,0.0,0.0,0.0,0.0,0.0,-5.2842,0.0,0.0,0.0,0.0,0.0,0.0,0.0,0.0,0.0,0.0,0.0,0.0,0.0,0.0,0.0,0.0,0.0,0.0,0.0,0.0,0.0,0.0,0.0,0.0,0.0,0.0,0.0,0.0,0.0,0.0,0.0,0.0,0.0,0.0,0.0,0.0,0.0,0.0,0.0,0.0,0.0,0.0,0.0,0.0,0.0,0.0,0.0,0.0,0.0,0.0,0.0,0.0,0.0,0.0,0.0,0.0,0.0,0.0,0.0,-5.5236,-5.8068,-5.9538,-6.0274,-6.0096,-5.7231,-5.4451,0.0,0.0,0.0,0.0,0.0,0.0,0.0,0.0,0.0,0.0,0.0,0.0,0.0,0.0,0.0,0.0,0.0,0.0,0.0,0.0,0.0,0.0,0.0,0.0,0.0,0.0,0.0,0.0,0.0,0.0,0.0,0.0,0.0,0.0,0.0,0.0,0.0,0.0,0.0,0.0,0.0,0.0,0.0,0.0,0.0,0.0,0.0,0.0,0.0,0.0,0.0,0.0,0.0,0.0,0.0,0.0,0.0,0.0,0.0,0.0,0.0,0.0,0.0,0.0,0.0,0.0,0.0,0.0,0.0,0.0,0.0,0.0,0.0,0.0,0.0,0.0,0.0,0.0,0.0,0.0,0.0,0.0,0.0,0.0,0.0,0.0,0.0,0.0,0.0,0.0,0.0,0.0,0.0,0.0,0.0,0.0,0.0,0.0,0.0,0.0,0.0,0.0,0.0,0.0,0.0,0.0,0.0,-5.1956,-5.4387,-5.6611,-5.8377,-5.9283,-5.9205,-5.6952,-5.4414,-5.1699,0.0,0.0,0.0,0.0,0.0,0.0,0.0,0.0,0.0,0.0,0.0,0.0,0.0,0.0,0.0,0.0,0.0,0.0,0.0,0.0,0.0,0.0,0.0,0.0,0.0,0.0,0.0,0.0,0.0,0.0,0.0,0.0,0.0,0.0,0.0,0.0,0.0,0.0,-5.0151,-5.151,0.0,0.0,0.0,0.0,0.0,0.0,0.0,0.0,-5.3013,0.0,0.0,0.0,0.0,0.0,0.0,0.0,0.0,0.0,0.0,0.0,0.0,0.0,0.0,0.0,0.0,0.0,0.0,0.0,0.0,0.0,0.0,0.0,0.0,0.0,0.0,0.0,0.0,0.0,0.0,0.0,0.0,0.0,0.0,0.0,0.0,0.0,0.0,0.0,0.0,0.0,0.0,0.0,0.0,0.0,0.0,0.0,0.0,0.0,0.0,0.0,0.0,0.0,0.0,0.0,0.0,-5.0407,-5.2004,-5.4176,-5.688,-5.8103,-5.8662,-5.8507,-5.6449,-5.4242,-5.1987,0.0,0.0,0.0,0.0,0.0,0.0,0.0,0.0,0.0,0.0,0.0,0.0,0.0,0.0,0.0,0.0,0.0,0.0,0.0,0.0,0.0,0.0,0.0,0.0,0.0,0.0,0.0,0.0,0.0,0.0,0.0,0.0,0.0,0.0,0.0,0.0,0.0,0.0,0.0,-5.2663,-5.3067,0.0,0.0,0.0,0.0,0.0,0.0,0.0,0.0,-5.2455,0.0,0.0,0.0,0.0,0.0,0.0,0.0,0.0,0.0,0.0,0.0,0.0,0.0,0.0,0.0,0.0,0.0,0.0,0.0,0.0,0.0,0.0,0.0,0.0,0.0,0.0,0.0,0.0,0.0,0.0,0.0,0.0,0.0,0.0,0.0,0.0,0.0,0.0,0.0,0.0,0.0,0.0,0.0,0.0,0.0,0.0,0.0,0.0,0.0,0.0,0.0,0.0,0.0,0.0,0.0,-4.9097,-5.0706,-5.2732,-5.5142,-5.6361,-5.6905,-5.6799,-5.4873,-5.283,0.0,0.0,0.0,0.0,0.0,0.0,0.0,0.0,0.0,0.0,0.0,0.0,0.0,0.0,0.0,0.0,0.0,0.0,0.0,0.0,0.0,0.0,0.0,0.0,0.0,0.0,0.0,0.0,0.0,0.0,0.0,0.0,0.0,0.0,0.0,0.0,0.0,0.0,0.0,0.0,-5.2334,-5.2651,-5.341,0.0,0.0,0.0,0.0,0.0,0.0,-5.176,-5.1431,0.0,0.0,0.0,0.0,0.0,0.0,0.0,0.0,0.0,0.0,0.0,0.0,0.0,0.0,0.0,0.0,0.0,0.0,0.0,0.0,0.0,0.0,0.0,0.0,0.0,0.0,0.0,0.0,0.0,0.0,0.0,0.0,0.0,0.0,0.0,0.0,0.0,0.0,0.0,0.0,0.0,0.0,0.0,0.0,0.0,0.0,0.0,0.0,0.0,0.0,0.0,0.0,0.0,0.0,0.0,-4.7292,-4.9087,-5.0931,-5.2833,-5.4233,-5.4946,-5.4866,-5.3185,-5.143,0.0,0.0,0.0,0.0,0.0,0.0,0.0,0.0,0.0,0.0,0.0,0.0,0.0,0.0,0.0,0.0,0.0,0.0,0.0,0.0,0.0,0.0,0.0,0.0,0.0,0.0,0.0,0.0,0.0,0.0,0.0,0.0,0.0,0.0,0.0,0.0,0.0,0.0,0.0,0.0,0.0,-5.2158,-5.2861,-5.2581,0.0,0.0,0.0,0.0,-5.1937,-5.1301,0.0,0.0,0.0,0.0,0.0,0.0,0.0,0.0,0.0,0.0,0.0,0.0,0.0,0.0,0.0,0.0,0.0,0.0,0.0,0.0,0.0,0.0,0.0,0.0,0.0,0.0,0.0,0.0,0.0,0.0,0.0,0.0,0.0,0.0,0.0,0.0,0.0,0.0,0.0,0.0,0.0,0.0,0.0,0.0,0.0,0.0,0.0,0.0,0.0,0.0,0.0,0.0,0.0,0.0,0.0,0.0,-4.5965,-4.7706,-4.9217,-5.0443,-5.2393,-5.3373,-5.3197,-5.2044,-5.0979,0.0,0.0,0.0,0.0,0.0,0.0,0.0,0.0,0.0,0.0,0.0,0.0,0.0,0.0,0.0,0.0,0.0,0.0,0.0,0.0,0.0,0.0,0.0,0.0,0.0,0.0,0.0,0.0,0.0,0.0,0.0,0.0,0.0,0.0,0.0,0.0,0.0,0.0,0.0,0.0,0.0,-5.2,-5.0699,-5.1333,-5.1743,0.0,0.0,-5.0939,-5.1625,-5.1316,0.0,0.0,0.0,0.0,0.0,0.0,0.0,0.0,0.0,0.0,0.0,0.0,0.0,0.0,0.0,0.0,0.0,0.0,0.0,0.0,0.0,0.0,0.0,0.0,0.0,0.0,0.0,0.0,0.0,0.0,0.0,0.0,0.0,0.0,0.0,0.0,0.0,0.0,0.0,0.0,0.0,0.0,0.0,0.0,0.0,0.0,0.0,0.0,0.0,0.0,0.0,0.0,0.0,0.0,0.0,-4.3776,-4.4853,-4.6234,-4.7642,-4.9127,-5.0746,-5.1583,-5.1571,-5.0634,-4.9529,0.0,0.0,0.0,0.0,0.0,0.0,0.0,0.0,0.0,0.0,0.0,0.0,0.0,0.0,0.0,0.0,0.0,0.0,0.0,0.0,0.0,0.0,0.0,0.0,0.0,0.0,0.0,0.0,0.0,0.0,0.0,0.0,0.0,0.0,0.0,0.0,0.0,0.0,0.0,0.0,0.0,0.0,-5.1042,-5.104,0.0,0.0,0.0,-5.0678,-5.1459,0.0,0.0,0.0,0.0,0.0,0.0,0.0,0.0,0.0,0.0,0.0,0.0,0.0,0.0,0.0,0.0,0.0,0.0,0.0,0.0,0.0,0.0,0.0,0.0,0.0,0.0,0.0,0.0,0.0,0.0,0.0,0.0,0.0,0.0,0.0,0.0,0.0,0.0,0.0,0.0,0.0,0.0,0.0,0.0,0.0,0.0,0.0,0.0,0.0,0.0,0.0,0.0,0.0,0.0,0.0,0.0,0.0,-4.3664,-4.4682,-4.5968,-4.7513,-4.8755,-4.9574,-4.9902,-4.9111,0.0,0.0,0.0,0.0,0.0,0.0,0.0,0.0,0.0,0.0,0.0,0.0,0.0,0.0,0.0,0.0,0.0,0.0,0.0,0.0,0.0,0.0,0.0,0.0,0.0,0.0,0.0,-4.2929,0.0,0.0,0.0,0.0,0.0,0.0,0.0,0.0,0.0,0.0,0.0,0.0,0.0,0.0,-4.9526,-5.0843,-5.0608,-5.051,0.0,0.0,-5.0652,-5.1202,-5.0641,-4.9832,0.0,0.0,0.0,0.0,0.0,0.0,0.0,0.0,0.0,0.0,0.0,0.0,0.0,0.0,0.0,0.0,0.0,0.0,0.0,0.0,0.0,0.0,0.0,0.0,0.0,0.0,0.0,0.0,0.0,0.0,0.0,0.0,0.0,0.0,0.0,0.0,0.0,0.0,0.0,0.0,0.0,0.0,0.0,0.0,0.0,0.0,0.0,0.0,0.0,0.0,0.0,0.0,0.0,0.0,-4.2158,-4.227,-4.3106,-4.401,-4.4968,-4.6174,-4.7255,-4.8016,-4.7511,-4.6951,0.0,0.0,0.0,0.0,0.0,0.0,0.0,0.0,0.0,0.0,0.0,0.0,0.0,0.0,0.0,0.0,0.0,0.0,0.0,0.0,0.0,0.0,0.0,0.0,0.0,0.0,0.0,0.0,0.0,0.0,0.0,0.0,0.0,0.0,0.0,0.0,0.0,0.0,0.0,0.0,0.0,-4.8083,-4.8824,-4.9501,-5.0093,0.0,-5.0758,-5.084,-5.0758,-5.0379,-4.9698,-4.8548,0.0,0.0,0.0,0.0,0.0,0.0,0.0,0.0,0.0,0.0,0.0,0.0,0.0,0.0,0.0,0.0,0.0,0.0,0.0,0.0,0.0,0.0,0.0,0.0,0.0,0.0,0.0,0.0,0.0,0.0,0.0,0.0,0.0,0.0,0.0,0.0,0.0,0.0,0.0,0.0,0.0,0.0,0.0,0.0,0.0,0.0,0.0,0.0,0.0,0.0,0.0,0.0,0.0,-4.0986,-4.0711,-4.1848,-4.2489,-4.2712,-4.4066,-4.5091,-4.5667,-4.5554,-4.5147,0.0,0.0,0.0,0.0,0.0,0.0,0.0,0.0,0.0,0.0,0.0,0.0,0.0,0.0,0.0,0.0,0.0,0.0,0.0,0.0,0.0,0.0,0.0,0.0,0.0,0.0,0.0,0.0,-4.1834,-4.1703,-4.2045,0.0,0.0,0.0,0.0,0.0,0.0,0.0,0.0,0.0,0.0,-4.672,-4.7767,-4.8188,0.0,0.0,-4.9232,-4.9459,-4.9509,-4.9225,-4.8679,-4.7698,-4.6645,0.0,0.0,0.0,0.0,0.0,0.0,0.0,0.0,0.0,0.0,0.0,0.0,0.0,0.0,0.0,0.0,0.0,0.0,0.0,0.0,0.0,0.0,0.0,0.0,0.0,0.0,0.0,0.0,0.0,0.0,0.0,0.0,0.0,0.0,0.0,0.0,0.0,0.0,0.0,0.0,0.0,0.0,0.0,0.0,0.0,0.0,0.0,0.0,0.0,0.0,0.0,0.0,-3.9799,-3.9459,-4.0347,-4.0809,-4.0888,-4.2266,-4.3249,-4.3749,-4.3779,-4.3496,0.0,0.0,0.0,0.0,0.0,0.0,0.0,0.0,0.0,0.0,0.0,0.0,0.0,0.0,0.0,0.0,0.0,0.0,0.0,0.0,0.0,0.0,0.0,0.0,0.0,0.0,0.0,0.0,-4.1489,-4.1323,-4.1357,0.0,0.0,0.0,0.0,0.0,0.0,0.0,0.0,0.0,0.0,-4.5397,-4.69,-4.7103,-4.7292,-4.7738,-4.8291,-4.8627,-4.8484,-4.8414,-4.8033,-4.7119,0.0,0.0,0.0,0.0,0.0,0.0,0.0,0.0,0.0,0.0,0.0,0.0,0.0,0.0,0.0,0.0,0.0,0.0,0.0,0.0,0.0,0.0,0.0,0.0,0.0,0.0,0.0,0.0,0.0,0.0,-4.3618,0.0,0.0,0.0,0.0,0.0,0.0,0.0,0.0,0.0,0.0,0.0,0.0,0.0,0.0,0.0,0.0,0.0,0.0,0.0,0.0,0.0,0.0,-3.8741,-3.8711,-3.8582,-3.8898,-3.9697,-4.0766,-4.1745,-4.2525,-4.2307,-4.2175,-4.2249,0.0,0.0,0.0,0.0,0.0,0.0,0.0,0.0,0.0,0.0,0.0,0.0,0.0,0.0,0.0,0.0,0.0,0.0,0.0,0.0,0.0,0.0,0.0,0.0,0.0,0.0,-4.1555,-4.1407,-4.1156,0.0,0.0,0.0,0.0,0.0,0.0,0.0,0.0,0.0,0.0,-4.3592,-4.4134,-4.6175,-4.651,-4.6721,-4.7413,-4.8365,-4.8702,-4.7813,-4.809,-4.8062,0.0,0.0,0.0,0.0,0.0,0.0,0.0,0.0,0.0,0.0,0.0,0.0,0.0,0.0,0.0,0.0,0.0,0.0,0.0,0.0,0.0,0.0,0.0,0.0,0.0,0.0,0.0,-4.2773,-4.208,0.0,0.0,0.0,0.0,0.0,0.0,0.0,0.0,0.0,0.0,0.0,-3.8178,-3.7256,0.0,0.0,0.0,0.0,0.0,0.0,0.0,0.0,0.0,0.0,0.0,0.0,-3.7957,-3.7506,-3.721,-3.7243,-3.7627,-3.8421,-3.9292,-4.0227,-4.0238,-4.0202,-4.0101,0.0,0.0,0.0,0.0,0.0,0.0,0.0,0.0,0.0,0.0,0.0,0.0,0.0,0.0,0.0,0.0,0.0,0.0,0.0,0.0,0.0,0.0,0.0,0.0,0.0,-4.0765,0.0,0.0,0.0,0.0,0.0,0.0,0.0,0.0,0.0,0.0,0.0,-4.2138,-4.2694,-4.3149,-4.375,-4.4718,-4.4949,-4.5178,0.0,0.0,0.0,0.0,0.0,0.0,0.0,0.0,0.0,0.0,0.0,0.0,0.0,0.0,-4.6445,-4.5824,-4.5307,-4.502,-4.5251,0.0,0.0,0.0,0.0,0.0,0.0,0.0,0.0,0.0,0.0,0.0,0.0,0.0,0.0,-4.1231,0.0,-4.0542,0.0,0.0,0.0,0.0,0.0,0.0,0.0,0.0,-3.6386,-3.6155,-3.6659,-3.5967,-3.5776,0.0,-3.6248,-3.6647,0.0,0.0,0.0,0.0,0.0,0.0,0.0,0.0,-3.6729,-3.6251,-3.5748,-3.5526,-3.5683,-3.6577,-3.7411,-3.8128,-3.8576,-3.8676,-3.8407,-3.8964,-3.9044,0.0,0.0,0.0,0.0,0.0,0.0,0.0,0.0,0.0,0.0,0.0,0.0,0.0,0.0,0.0,0.0,0.0,0.0,0.0,0.0,0.0,0.0,0.0,-3.9895,0.0,0.0,0.0,0.0,0.0,0.0,0.0,0.0,0.0,-4.0662,-4.1214,-4.1699,-4.2053,-4.2702,-4.3274,-4.3501,0.0,0.0,0.0,0.0,0.0,0.0,0.0,-4.3957,-4.461,-4.4119,-4.3882,-4.4591,-4.5341,-4.5636,-4.4997,0.0,0.0,-4.5078,-4.456,-4.4265,-4.4527,-4.5094,-4.5549,-4.5598,-4.6355,-4.672,0.0,0.0,0.0,0.0,0.0,0.0,0.0,0.0,-4.0476,-4.0405,0.0,-4.0063,0.0,0.0,0.0,0.0,0.0,-3.6024,0.0,0.0,-3.4397,-3.4356,-3.4369,-3.4356,-3.4356,-3.4395,-3.492,-3.5246,-3.5372,-3.6462,0.0,0.0,0.0,0.0,0.0,0.0,-3.5059,-3.5003,-3.4126,-3.3725,-3.3899,-3.526,-3.6109,-3.641,-3.7329,-3.7659,-3.7331,-3.7988,-3.8142,-3.7565,-3.8289,0.0,0.0,0.0,0.0,0.0,0.0,0.0,0.0,0.0,0.0,0.0,0.0,0.0,0.0,0.0,0.0,0.0,0.0,0.0,0.0,-3.9036,0.0,0.0,0.0,0.0,0.0,0.0,0.0,0.0,0.0,0.0,-4.0335,-4.0847,-4.1346,-4.1765,0.0,0.0,0.0,0.0,-4.3473,-4.3054,-4.3846,-4.4441,-4.4457,-4.4044,-4.3748,-4.3795,0.0,0.0,-4.356,-4.4221,-4.4544,-4.3816,-4.3735,-4.401,-4.4998,-4.4554,-4.4251,-4.463,-4.4247,-4.41,-4.4814,-4.5207,-4.5362,-3.9467,0.0,0.0,0.0,0.0,-3.9988,-3.976,-3.9462,-3.9295,-3.8895,-3.823,-3.7422,0.0,0.0,0.0,0.0,0.0,0.0,-3.4036,-3.3433,-3.3586,-3.3513,-3.3185,-3.333,-3.3428,-3.3403,-3.3242,-3.3332,-3.3593,-3.3567,-3.4604,-3.6635,0.0,0.0,0.0,0.0,-3.438,-3.3665,-3.2795,-3.2589,-3.3121,-3.3523,-3.4314,-3.5502,-3.6317,-3.6617,-3.6396,-3.6651,-3.6676,-3.6476,-3.7135,0.0,0.0,0.0,0.0,0.0,0.0,0.0,0.0,0.0,0.0,0.0,0.0,0.0,0.0,0.0,0.0,0.0,0.0,0.0,-3.808,-3.7638,-3.7706,0.0,0.0,0.0,0.0,0.0,0.0,0.0,0.0,0.0,-3.916,-4.0203,-4.0758,0.0,0.0,-4.2342,-4.2006,-4.2169,-4.2307,-4.2363,-4.2094,0.0,0.0,-4.1581,-4.1444,-4.218,-4.2625,-4.286,-4.2869,-4.3523,-4.3763,-4.3046,-4.3346,-4.3654,-4.3377,-4.3214,-4.3114,-4.3237,-4.3333,-4.3405,-4.3412,-4.3722,-4.3811,-3.7721,-3.8579,-3.8189,-3.8123,-3.8293,-3.8374,-3.8258,-3.8025,-3.8319,-3.8062,-3.7403,-3.6142,-3.5305,-3.4776,-3.3411,0.0,0.0,0.0,-3.2234,-3.2444,-3.2227,-3.212,-3.2133,-3.2031,-3.2062,-3.2124,-3.1757,-3.1735,-3.2095,-3.1848,-3.261,-3.434,0.0,0.0,-3.4356,-3.375,-3.3138,-3.2484,-3.1649,-3.1505,-3.1962,-3.2277,-3.3135,-3.4603,-3.51,-3.5351,-3.5388,-3.5751,-3.5742,-3.53,-3.6014,-3.6579,0.0,0.0,0.0,0.0,0.0,0.0,0.0,0.0,0.0,0.0,0.0,-3.7924,-3.781,0.0,0.0,0.0,-3.6911,-3.6718,-3.6627,-3.6519,0.0,0.0,0.0,0.0,0.0,0.0,0.0,-3.6948,-3.6313,-3.6214,-3.7309,-3.8363,-3.9225,-3.9898,-4.1005,-4.157,-4.1032,0.0,-4.1297,-4.1202,-4.0976,-4.0834,-4.0935,-4.0349,-4.0053,-4.0612,-4.1014,-4.1376,-4.1672,-4.2111,-4.2128,-4.1635,-4.1927,-4.2206,-4.1468,-4.1574,-4.1858,-4.2148,-4.2443,-4.2498,-4.217,-4.2401,-4.2479,-3.6034,-3.5942,-3.5788,-3.5636,-3.5545,-3.6666,-3.6905,-3.6575,-3.7468,-3.7713,-3.7346,-3.5658,-3.4402,-3.3463,-3.1264,0.0,-3.1276,-3.0146,-3.0259,-3.1303,-3.0451,-3.044,-3.1033,-3.0589,-3.0481,-3.0752,-3.0489,-3.0443,-3.0667,-3.0795,-3.1,-3.1298,-3.2013,-3.2476,-3.2567,-3.2006,-3.163,-3.1526,-3.083,-3.0509,-3.066,-3.1473,-3.2476,-3.3713,-3.3831,-3.4086,-3.4486,-3.5157,-3.5086,-3.4246,-3.4942,-3.5592,-3.5947,0.0,0.0,0.0,0.0,0.0,0.0,0.0,0.0,0.0,0.0,0.0,0.0,0.0,0.0,0.0,-3.6196,0.0,-3.4901,-3.5545,0.0,0.0,0.0,-3.5332,-3.455,-3.4087,-3.3895,-3.4163,0.0,0.0,-3.5159,-3.5867,-3.708,-3.9212,-4.0165,-4.0477,-3.985,-4.0218,-4.035,-3.9805,-4.0071,-4.038,-4.0129,-3.9566,-3.9048,-3.8964,-3.9018,-3.9301,-3.9785,-4.0112,-3.9914,-3.9493,-3.9916,-4.0213,-3.9613,-4.0108,-4.0615,-4.1274,-4.1466,-4.1455,-4.1136,-4.1264,-4.1288,-3.4368,-3.3515,-3.3495,-3.4696,-3.6745,-3.7961,-3.8403,-3.8151,-3.6976,-3.6444,-3.6201,-3.3534,-3.1857,-3.0857,-2.9792,-2.9442,-2.9579,-2.912,-2.8993,-2.9074,-2.8913,-2.8937,-2.9071,-2.8982,-2.9132,-2.9495,-2.9045,-2.9047,-2.9407,-2.9063,-2.9072,-2.9432,-2.9646,-3.0453,-3.189,-3.2119,-3.1808,-3.107,-3.089,-3.0584,-3.0279,-3.1446,-3.2209,-3.2507,-3.3333,-3.3884,-3.416,-3.3942,-3.3816,-3.3914,-3.4272,-3.467,-3.5089,-3.5368,0.0,0.0,0.0,0.0,0.0,0.0,0.0,0.0,0.0,-3.6097,-3.5937,0.0,-3.572,0.0,-3.3964,-3.3073,-3.2619,-3.3095,0.0,0.0,-3.3935,-3.3937,-3.33,-3.2448,-3.2304,-3.3297,-3.2655,-3.2664,-3.3973,-3.4896,-3.5774,-3.6679,-3.8514,-3.9695,-3.941,-3.9022,-3.876,-3.8556,-3.7929,-3.7376,-3.7434,-3.7223,-3.7114,-3.6997,-3.7033,-3.7046,-3.7243,-3.7734,-3.8058,-3.7956,-3.8496,-3.9041,-3.9377,-3.9642,-3.9759,-3.9973,-4.0413,-4.0575,-4.004,-3.9964,-3.9907,-3.3332,-3.2716,-3.3054,-3.3978,-3.5328,-3.6737,-3.726,-3.7108,-3.6338,-3.5827,-3.5277,-3.1878,-2.9758,-2.861,-2.7872,-2.7757,-2.8168,-2.7626,-2.7626,-2.8143,-2.7746,-2.7661,-2.7913,-2.78,-2.7895,-2.8143,-2.7832,-2.7693,-2.7752,-2.7946,-2.7898,-2.7516,-2.8383,-2.9272,-3.0151,-3.0758,-3.1064,-3.1107,-3.1107,-3.0956,-3.0718,-3.142,-3.2018,-3.2526,-3.2869,-3.3373,-3.4127,-3.3572,-3.3431,-3.3749,-3.3886,-3.4119,-3.4404,-3.4655,-3.4881,0.0,0.0,0.0,0.0,0.0,0.0,0.0,0.0,0.0,0.0,0.0,-3.419,-3.3516,-3.2647,-3.2072,-3.1941,-3.2175,-3.2254,-3.2019,-3.2124,-3.1941,-3.1252,-3.0514,-3.0321,-3.1071,-3.0632,-3.0673,-3.1912,-3.2789,-3.3552,-3.4224,-3.5729,-3.7163,-3.7991,-3.7707,-3.736,-3.7331,-3.6765,-3.6286,-3.6286,-3.6286,-3.6286,-3.6286,-3.6286,-3.6286,-3.6286,-3.6626,-3.6817,-3.6606,-3.7094,-3.7536,-3.7696,-3.8231,-3.8564,-3.864,-3.9108,-3.9395,-3.9088,-3.9007,-3.8959,-3.268,-3.2675,-3.3313,-3.3225,-3.2803,-3.4325,-3.4929,-3.4839,-3.5218,-3.4808,-3.366,-3.0253,-2.8045,-2.6885,-2.6094,-2.6197,-2.6914,-2.61,-2.6448,-2.762,-2.6761,-2.6611,-2.708,-2.6828,-2.6812,-2.6937,-2.6822,-2.6565,-2.6279,-2.7126,-2.694,-2.5902,-2.7637,-2.8474,-2.835,-2.8955,-2.9965,-3.1292,-3.142,-3.1458,-3.1458,-3.1562,-3.2077,-3.3036,-3.2536,-3.2822,-3.3927,-3.3523,-3.3343,-3.3513,-3.3543,-3.359,-3.3736,-3.3766,-3.3866,0.0,-3.4022,0.0,0.0,0.0,0.0,0.0,0.0,0.0,0.0,-3.309,-3.271,-3.1891,-3.1678,-3.1572,-3.1618,-3.1658,-3.1307,-3.044,-3.0206,-2.9809,-2.9113,-2.8709,-2.8538,-2.8724,-2.8618,-2.8882,-2.978,-3.0417,-3.1203,-3.218,-3.2907,-3.4183,-3.6017,-3.6186,-3.6,-3.6149,-3.6112,-3.5909,-3.5938,-3.5996,-3.5981,-3.6025,-3.5967,-3.6069,-3.5981,-3.6011,-3.5886,-3.5441,-3.576,-3.6003,-3.5457,-3.6414,-3.721,-3.745,-3.7969,-3.8346,-3.8428,-3.8472,-3.8391,-3.2373,-3.2363,-3.2203,-3.1896,-3.1513,-3.2337,-3.3162,-3.3776,-3.2573,-3.0926,-2.8981,-2.7871,-2.7069,-2.6475,-2.5918,-2.5781,-2.5965,-2.5781,-2.5878,-2.6149,-2.5781,-2.5762,-2.6083,-2.5885,-2.6127,-2.6744,-2.6098,-2.5979,-2.6445,-2.5946,-2.5642,-2.5579,-2.6648,-2.7567,-2.8309,0.0,0.0,0.0,-3.1476,-3.1784,-3.1851,-3.2431,-3.2898,-3.3111,-3.2796,0.0,-3.2934,-3.2742,-3.2593,-3.2649,-3.2797,0.0,0.0,0.0,0.0,0.0,0.0,0.0,0.0,0.0,0.0,0.0,-3.1621,-3.1811,-3.1833,-3.1833,-3.1458,-3.0502,-3.036,-3.0026,-2.9276,-2.9334,-2.9297,-2.8946,-2.9041,-2.8952,-2.863,-2.855,-2.851,-2.855,-2.8657,-2.8791,-2.904,-2.9843,-3.0573,-3.1074,-3.157,-3.2496,-3.3997,-3.4349,-3.4661,-3.5348,-3.5169,-3.482,-3.4777,-3.482,-3.4893,-3.4777,-3.4762,-3.4806,-3.4801,-3.482,-3.4791,-3.4617,-3.4704,-3.4949,-3.5285,-3.5625,-3.6196,-3.7193,-3.7506,-3.774,-3.8278,-3.8391,-3.8391,-3.219,0.0,-3.1603,-3.1204,0.0,-3.0792,-3.0912,-3.1145,-3.0832,-2.9577,-2.7699,-2.7207,-2.6787,-2.6367,-2.5928,-2.5684,-2.5684,-2.5684,-2.5684,-2.5674,-2.5594,-2.5559,-2.5578,-2.5647,-2.5719,-2.5805,-2.5499,-2.5301,-2.5158,-2.5189,-2.4935,-2.436,-2.5641,-2.6357,-2.6433,-2.7508,-2.897,-3.0778,-3.1692,-3.2142,-3.2154,-3.2543,-3.2779,-3.2742,0.0,0.0,0.0,0.0,0.0,0.0,0.0,0.0,0.0,0.0,0.0,-3.1203,-3.1165,-3.0959,-3.0617,-3.0551,-3.0346,-2.9857,-2.9792,-3.0024,-3.0527,-3.0248,-2.9816,-2.9333,-2.9257,-2.904,-2.8586,-2.8578,-2.8618,-2.851,-2.8578,-2.8618,-2.851,-2.851,-2.851,-2.851,-2.8578,-2.8645,-2.8657,-2.9067,-2.9479,-2.9675,-2.988,-3.0508,-3.1649,-3.2764,-3.3776,-3.4741,-3.4661,-3.4395,-3.438,-3.438,-3.438,-3.438,-3.438,-3.438,-3.438,-3.438,-3.438,-3.438,-3.438,-3.4534,-3.4839,-3.5154,-3.5625,-3.6275,-3.6936,-3.7431,-3.7873,-3.8164,-3.8391,-3.2018,-3.169,-3.1134,-3.0654,-3.0163,-2.9585,-2.9026,-2.8674,0.0,0.0,0.0,-2.7168,-2.6738,-2.625,-2.5849,-2.5684,-2.5684,-2.5684,-2.5645,-2.5615,-2.5615,-2.5516,-2.5352,-2.5578,-2.5446,-2.4992,-2.5026,-2.4662,-2.398,-2.4551,-2.4251,-2.3343,-2.4776,-2.5284,-2.4892,-2.6433,-2.8234,-3.0134,-3.1334,-3.197,-3.1958,-3.2015,-3.1966,-3.1933,-3.1349,-3.1064,-3.1156,-3.0531,-3.0549,-3.1283,-3.1193,-3.1131,-3.1185,-3.1173,-3.094,-3.0454,-3.0417,-3.0098,-2.9444,-2.942,-2.9157,-2.8546,-2.851,-2.8771,-2.9355,-2.8831,-2.851,-2.851,-2.851,-2.851,-2.851,-2.851,-2.851,-2.851,-2.851,-2.851,-2.851,-2.851,-2.851,-2.851,-2.851,-2.851,-2.851,-2.855,-2.851,-2.851,-2.8709,-2.8961,-3.0063,-3.1796,-3.3333,-3.4239,-3.4443,-3.438,-3.438,-3.438,-3.438,-3.438,-3.438,-3.438,-3.438,-3.438,-3.438,-3.438,-3.438,-3.4414,-3.4448,-3.4854,-3.5252,-3.5382,-3.6244,-3.7103,-3.7252,-3.7756,-3.8221,-3.1672,-3.1285,-3.061,-2.9858,-2.9123,-2.901,-2.8736,-2.8354,-2.8485,-2.7999,-2.71,-2.7041,-2.6572,-2.5771,-2.5713,-2.5684,-2.5684,-2.5684,-2.5479,0.0,-2.5213,-2.5174,-2.5163,-2.5163,-2.5365,-2.5567,-2.4866,-2.4491,-2.4323,-2.3734,-2.3266,-2.3266,-2.4155,-2.4999,-2.5654,-2.6737,-2.7437,-2.7821,-2.942,-3.0268,-3.0268,-3.0407,-3.0353,-2.9977,-2.9273,-2.904,-2.9413,-2.845,-2.8646,-3.0182,-2.9565,-2.9322,-2.9598,-2.9644,-2.9402,-2.8867,-2.8847,-2.8771,-2.8659,-2.8659,-2.8622,-2.8522,-2.851,-2.8546,-2.8646,-2.8558,-2.851,-2.851,-2.851,-2.851,-2.851,-2.851,-2.851,-2.851,-2.851,-2.851,-2.851,-2.851,-2.851,-2.851,-2.851,-2.851,-2.851,-2.851,-2.851,-2.855,-2.8618,-2.9133,-3.0329,-3.1878,-3.3227,-3.4113,-3.438,-3.438,-3.438,-3.438,-3.438,-3.438,-3.438,-3.438,-3.438,-3.438,-3.438,-3.438,-3.438,-3.438,-3.438,-3.4448,-3.4787,-3.5219,-3.5657,-3.5961,-3.6461,-3.7087,-3.7682,-3.1508,-3.1053,-3.0438,-2.9707,-2.8887,-2.8437,-2.8262,-2.8291,-2.8301,-2.7812,-2.7031,-2.6777,-2.6328,-2.5693,-2.5478,-2.5518,-2.5684,-2.5684,-2.5577,-2.542,-2.5176,-2.5059,-2.5096,-2.4824,-2.4723,-2.4671,-2.4299,-2.3974,-2.3697,-2.3309,-2.3101,-2.3135,-2.356,-2.4311,-2.5326,-2.5396,-2.5865,-2.6843,-2.8446,-2.9157,-2.8949,-2.8995,-2.8721,-2.7999,-2.7602,-2.7389,-2.7304,-2.6805,-2.6901,-2.7725,-2.7862,-2.802,-2.8181,-2.8617,-2.8763,-2.8534,-2.851,-2.851,-2.851,-2.851,-2.851,-2.851,-2.851,-2.851,-2.851,-2.851,-2.851,-2.851,-2.851,-2.851,-2.851,-2.851,-2.851,-2.851,-2.851,-2.851,-2.851,-2.851,-2.851,-2.851,-2.851,-2.851,-2.851,-2.851,-2.851,-2.851,-2.8578,-2.9067,-3.0101,-3.0844,-3.1938,-3.3416,-3.4113,-3.438,-3.438,-3.438,-3.438,-3.438,-3.438,-3.438,-3.438,-3.438,-3.438,-3.438,-3.438,-3.438,-3.438,-3.438,-3.4568,-3.4739,-3.5219,-3.5514,-3.5866,-3.6399,-3.7177,-3.1359,-3.0809,-3.0137,-2.9473,-2.8711,-2.7871,-2.7812,-2.8271,-2.8301,-2.7861,-2.7168,-2.6816,-2.6377,-2.582,-2.5518,-2.5508,-2.5664,-2.5684,-2.5635,-2.5547,-2.5127,-2.4922,-2.4883,-2.4482,-2.4111,-2.3818,-2.3789,-2.3564,-2.314,-2.3101,-2.3101,-2.3101,-2.3101,-2.3702,-2.4764,-2.4227,-2.4614,-2.5946,-2.7331,-2.785,-2.7457,-2.7436,-2.6931,-2.6065,-2.5979,-2.5808,-2.5527,-2.5284,-2.5368,-2.5777,-2.6505,-2.6887,-2.6928,-2.7926,-2.8431,-2.8259,-2.8379,-2.851,-2.851,-2.851,-2.851,-2.851,-2.851,-2.851,-2.851,-2.851,-2.851,-2.851,-2.851,-2.851,-2.851,-2.851,-2.851,-2.851,-2.851,-2.851,-2.851,-2.851,-2.851,-2.851,-2.851,-2.851,-2.851,-2.851,-2.851,-2.859,-2.855,-2.8882,-2.9588,-2.9896,-3.0794,-3.2096,-3.3276,-3.3756,-3.3942,-3.4025,-3.4094,-3.4264,-3.4312,-3.4346,-3.438,-3.438,-3.438,-3.438,-3.438,-3.438,-3.438,-3.438,-3.4414,-3.4501,-3.4806,-3.5187,-3.5417,-3.5834,-3.66,-3.0957,-3.0554,-2.9515,-2.8779,-2.8271,-2.7441,-2.7549,-2.8252,-2.8301,-2.8037,-2.7617,-2.7611,-2.708,-2.6396,-2.625,-2.6035,-2.5693,-2.5684,-2.5527,-2.5184,-2.4678,-2.4473,-2.4463,-2.4053,-2.3838,-2.3769,-2.3769,-2.3535,-2.311,-2.3101,-2.3101,-2.3101,-2.3101,-2.3369,-2.3914,-2.4206,-2.4441,-2.4585,-2.5484,-2.5796,-2.5419,-2.5389,-2.4974,-2.4078,-2.4083,-2.4229,-2.4605,-2.381,-2.4102,-2.5621,-2.5872,-2.5944,-2.6069,-2.7551,-2.8139,-2.7441,-2.8059,-2.851,-2.851,-2.851,-2.851,-2.851,-2.851,-2.851,-2.851,-2.851,-2.851,-2.851,-2.851,-2.851,-2.851,-2.851,-2.851,-2.851,-2.851,-2.851,-2.851,-2.851,-2.851,-2.851,-2.851,-2.851,-2.851,-2.851,-2.859,-2.8697,-2.8578,-2.8657,-2.9118,-2.96,-2.9922,-3.0607,-3.1429,-3.2232,-3.2725,-3.3023,-3.3409,-3.3942,-3.4128,-3.4196,-3.4346,-3.438,-3.438,-3.438,-3.438,-3.438,-3.438,-3.438,-3.438,-3.438,-3.4534,-3.4687,-3.5204,-3.5432,-3.5992,-3.0731,-3.0214,-2.9199,-2.8471,-2.7851,-2.7266,-2.75,-2.8271,-2.8301,-2.8193,-2.8047,-2.8037,-2.7422,-2.6387,-2.6123,-2.5849,-2.5693,-2.5684,-2.5586,-2.54,-2.4746,-2.4424,-2.4346,-2.3711,-2.3364,-2.3408,-2.3408,-2.3266,-2.312,-2.3101,-2.3101,-2.313,-2.3344,-2.3623,-2.3809,-2.4209,-2.4424,-2.4434,-2.5029,-2.501,-2.4424,-2.4551,-2.4277,-2.3461,-2.3364,-2.3462,-2.3634,-2.3266,-2.343,-2.4188,-2.4701,-2.5031,-2.5041,-2.6246,-2.6753,-2.6453,-2.7214,-2.7966,-2.8471,-2.851,-2.851,-2.851,-2.851,-2.851,-2.851,-2.851,-2.851,-2.851,-2.851,-2.851,-2.851,-2.851,-2.851,-2.851,-2.851,-2.851,-2.851,-2.851,-2.851,-2.851,-2.851,-2.851,-2.851,-2.851,-2.855,-2.8618,-2.855,-2.859,-2.8736,-2.8961,-2.9106,-2.9263,-2.9704,-3.0594,-3.1673,-3.2497,-3.2938,-3.3325,-3.3791,-3.4162,-3.4312,-3.438,-3.438,-3.438,-3.438,-3.438,-3.438,-3.438,-3.438,-3.438,-3.438,-3.4501,-3.4754,-3.482,-3.5252,-3.0514,-3.0078,-2.9019,-2.8213,-2.7689,-2.7197,-2.75,-2.8242,-2.8301,-2.8301,-2.8301,-2.8301,-2.7656,-2.6621,-2.6171,-2.5927,-2.5703,-2.5684,-2.5615,-2.5478,-2.4756,-2.4365,-2.4134,-2.3461,-2.3101,-2.3101,-2.311,-2.3101,-2.3101,-2.3101,-2.3149,-2.3296,-2.3643,-2.3906,-2.4141,-2.4355,-2.4424,-2.4453,-2.4844,-2.4695,-2.3994,-2.4316,-2.4085,-2.3208,-2.3101,-2.3101,-2.3101,-2.3101,-2.3101,-2.3135,-2.3983,-2.437,-2.4166,-2.52,-2.5902,-2.6205,-2.6794,-2.7603,-2.8431,-2.851,-2.851,-2.851,-2.851,-2.851,-2.851,-2.851,-2.851,-2.851,-2.851,-2.851,-2.851,-2.851,-2.851,-2.851,-2.851,-2.851,-2.851,-2.851,-2.851,-2.851,-2.851,-2.851,-2.851,-2.851,-2.851,-2.851,-2.851,-2.851,-2.851,-2.851,-2.855,-2.851,-2.8657,-2.9367,-3.0732,-3.1415,-3.2001,-3.264,-3.3115,-3.3701,-3.4059,-3.4128,-3.4346,-3.4312,-3.4346,-3.438,-3.438,-3.438,-3.438,-3.438,-3.438,-3.438,-3.4467,-3.4414,-3.4601,-3.0493,-3.0537,-2.8883,-2.8009,-2.7679,-2.7217,-2.751,-2.8301,-2.8301,-2.8301,-2.8301,-2.8301,-2.7812,-2.7002,-2.6904,-2.6494,-2.5752,-2.5684,-2.5537,-2.5156,-2.4668,-2.4209,-2.3799,-2.3359,-2.3101,-2.3101,-2.3101,-2.3101,-2.3101,-2.312,-2.3305,-2.374,-2.3828,-2.4219,-2.4756,-2.459,-2.4424,-2.4463,-2.4814,-2.4685,-2.3994,-2.4626,-2.4355,-2.3227,-2.3101,-2.312,-2.3101,-2.3101,-2.3101,-2.3101,-2.394,-2.4079,-2.343,-2.4776,-2.6038,-2.6887,-2.7103,-2.7522,-2.8259,-2.8379,-2.8431,-2.8471,-2.8471,-2.851,-2.851,-2.851,-2.851,-2.851,-2.851,-2.851,-2.851,-2.851,-2.851,-2.851,-2.851,-2.851,-2.851,-2.851,-2.851,-2.851,-2.851,-2.851,-2.851,-2.851,-2.851,-2.851,-2.851,-2.851,-2.851,-2.851,-2.851,-2.851,-2.859,-2.8803,-2.9626,-3.0304,-3.0782,-3.1378,-3.216,-3.2832,-3.3269,-3.3667,-3.3908,-3.4128,-3.4094,-3.4128,-3.4312,-3.438,-3.438,-3.438,-3.438,-3.438,-3.438,-3.438,-3.4501,-3.0132,-2.9595,-2.9044,-2.8488,-2.7959,-2.7781,-2.7901,-2.8281,-2.8301,-2.8301,-2.8301,-2.8301,-2.7969,-2.7412,-2.7129,-2.6493,-2.5723,-2.5684,-2.5644,-2.5439,-2.5039,-2.4609,-2.418,-2.375,-2.3344,-2.312,-2.3101,-2.3101,-2.313,-2.3374,-2.3633,-2.3867,-2.4346,-2.4705,-2.4678,-2.4775,-2.4707,-2.4463,-2.459,-2.4375,-2.3867,-2.4092,-2.3877,-2.3179,-2.3418,-2.3428,-2.3101,-2.3101,-2.3101,-2.3101,-2.344,-2.3474,-2.3178,-2.3681,-2.4488,-2.5337,-2.5453,-2.5872,-2.6712,-2.7336,-2.7672,-2.7725,-2.8179,-2.8471,-2.851,-2.851,-2.851,-2.851,-2.851,-2.851,-2.851,-2.851,-2.851,-2.851,-2.851,-2.851,-2.851,-2.851,-2.851,-2.851,-2.851,-2.851,-2.851,-2.851,-2.851,-2.851,-2.851,-2.851,-2.851,-2.851,-2.851,-2.851,-2.851,-2.859,-2.8816,-2.9484,-3.0037,-3.0519,-3.1156,-3.1659,-3.2169,-3.2398,-3.2613,-3.2755,-3.3017,-3.3409,-3.3479,-3.4059,-3.4128,-3.4264,-3.4278,-3.438,-3.438,-3.438,-3.438,-2.9971,-2.9013,-2.9223,-2.8838,-2.8135,-2.8115,-2.8154,-2.8271,-2.8301,-2.8301,-2.8301,-2.8291,-2.8057,-2.7718,-2.7353,-2.6758,-2.5977,-2.5762,-2.5615,-2.5508,-2.5205,-2.4834,-2.4434,-2.4121,-2.376,-2.3379,-2.3149,-2.3101,-2.312,-2.3437,-2.3721,-2.4033,-2.4482,-2.4746,-2.4795,-2.4746,-2.4541,-2.4404,-2.4287,-2.4062,-2.3848,-2.4062,-2.3926,-2.3506,-2.3769,-2.3711,-2.313,-2.3101,-2.3101,-2.3101,-2.3101,-2.3101,-2.3101,-2.3101,-2.3527,-2.437,-2.4531,-2.4872,-2.5704,-2.6412,-2.6887,-2.7174,-2.7725,-2.8179,-2.8431,-2.851,-2.851,-2.851,-2.851,-2.851,-2.851,-2.851,-2.851,-2.851,-2.851,-2.851,-2.851,-2.851,-2.851,-2.851,-2.851,-2.851,-2.851,-2.851,-2.851,-2.851,-2.851,-2.851,-2.851,-2.851,-2.851,-2.851,-2.851,-2.851,-2.863,-2.9,-2.9289,-2.9742,-3.0304,-3.0732,-3.1018,-3.118,-3.1352,-3.1462,-3.1806,-3.2304,-3.2868,-3.3514,-3.3839,-3.4025,-3.423,-3.438,-3.438,-3.438,-3.438,-2.9981,-2.9044,-2.9422,-2.9037,-2.8187,-2.8167,-2.8206,-2.8305,-2.8301,-2.8301,-2.8301,-2.8301,-2.8086,-2.7806,-2.7627,-2.7168,-2.6445,-2.6035,-2.5635,-2.5225,-2.5194,-2.4893,-2.4482,-2.4443,-2.4199,-2.3789,-2.3379,-2.3159,-2.3218,-2.3305,-2.3656,-2.4228,-2.4141,-2.459,-2.5596,-2.4551,-2.4092,-2.4238,-2.4023,-2.3789,-2.3887,-2.4519,-2.4443,-2.3828,-2.4102,-2.3945,-2.313,-2.3101,-2.3101,-2.3101,-2.3101,-2.3101,-2.3101,-2.3101,-2.3517,-2.4198,-2.4456,-2.4872,-2.5526,-2.5735,-2.6163,-2.6764,-2.7133,-2.751,-2.8179,-2.8351,-2.8391,-2.851,-2.851,-2.851,-2.851,-2.851,-2.851,-2.851,-2.851,-2.851,-2.851,-2.851,-2.851,-2.851,-2.851,-2.851,-2.851,-2.851,-2.851,-2.851,-2.851,-2.851,-2.851,-2.851,-2.851,-2.851,-2.851,-2.851,-2.851,-2.855,-2.8657,-2.8882,-2.9471,-2.9999,-3.0114,-3.0266,-3.0506,-3.0657,-3.1068,-3.1563,-3.2282,-3.2938,-3.3514,-3.3756,-3.4045,-3.4264,-3.4312,-3.4312,-3.438,-3.0086,-2.9281,-2.9693,-2.9309,-2.8446,-2.8374,-2.8373,-2.8271,-2.8301,-2.8301,-2.8301,-2.8301,-2.8223,-2.8047,-2.7855,-2.7363,-2.6826,-2.665,-2.623,-2.5625,-2.5527,-2.5293,-2.4932,-2.4863,-2.4639,-2.4258,-2.4082,-2.4014,-2.3994,-2.3949,-2.4326,-2.4727,-2.4717,-2.491,-2.5244,-2.458,-2.4316,-2.427,-2.3701,-2.3477,-2.376,-2.4053,-2.3916,-2.3467,-2.376,-2.3701,-2.3149,-2.3101,-2.3101,-2.3101,-2.3101,-2.3101,-2.3101,-2.3101,-2.3222,-2.3484,-2.3517,-2.3604,-2.394,-2.4584,-2.4999,-2.5411,-2.5883,-2.667,-2.7429,-2.7592,-2.7886,-2.8351,-2.851,-2.851,-2.851,-2.851,-2.851,-2.851,-2.851,-2.851,-2.851,-2.851,-2.851,-2.851,-2.851,-2.851,-2.851,-2.851,-2.851,-2.851,-2.851,-2.851,-2.851,-2.851,-2.851,-2.851,-2.851,-2.851,-2.851,-2.851,-2.855,-2.8618,-2.9,-2.9289,-2.938,-2.9445,-2.9665,-2.9986,-3.0405,-3.0932,-3.1649,-3.2282,-3.2854,-3.3255,-3.3395,-3.3687,-3.4059,-3.4128,-3.4025,-2.9994,-2.9363,-2.9622,-2.927,-2.854,-2.8488,-2.8426,-2.8315,-2.8301,-2.8301,-2.8301,-2.8301,-2.8301,-2.8242,-2.8018,-2.7656,-2.7285,-2.7256,-2.6797,-2.6084,-2.5977,-2.5742,-2.5332,-2.5174,-2.4998,-2.4678,-2.4492,-2.4424,-2.4424,-2.4434,-2.4629,-2.498,-2.4902,-2.501,-2.5176,-2.458,-2.4238,-2.4268,-2.3539,-2.3227,-2.3525,-2.3701,-2.3574,-2.3227,-2.3564,-2.3545,-2.314,-2.3101,-2.3101,-2.3101,-2.3101,-2.3101,-2.3101,-2.3101,-2.3101,-2.3101,-2.3091,-2.3135,-2.3178,-2.3691,-2.4155,-2.4498,-2.4999,-2.5913,-2.6805,-2.6969,-2.7162,-2.8259,-2.8179,-2.8139,-2.8431,-2.851,-2.851,-2.851,-2.851,-2.851,-2.851,-2.851,-2.851,-2.851,-2.851,-2.851,-2.851,-2.851,-2.851,-2.851,-2.851,-2.851,-2.851,-2.851,-2.851,-2.851,-2.851,-2.851,-2.851,-2.851,-2.851,-2.851,-2.859,-2.8736,-2.8816,-2.8816,-2.8949,-2.9367,-2.9781,-3.0241,-3.0921,-3.1563,-3.2146,-3.2412,-3.2555,-3.2662,-3.2861,-3.3339,-3.3466,-2.9725,-2.9321,-2.9311,-2.9024,-2.854,-2.8488,-2.8416,-2.8305,-2.8301,-2.8301,-2.8301,-2.8301,-2.8301,-2.8301,-2.8242,-2.7998,-2.7767,-2.7748,-2.7236,-2.6631,-2.6445,-2.624,-2.5674,-2.5332,-2.5166,-2.5059,-2.4746,-2.458,-2.4639,-2.456,-2.4678,-2.5088,-2.4814,-2.4853,-2.5244,-2.4424,-2.4062,-2.417,-2.3491,-2.313,-2.3169,-2.3584,-2.3584,-2.314,-2.3535,-2.3584,-2.3159,-2.3101,-2.3101,-2.3101,-2.3101,-2.3101,-2.3101,-2.3101,-2.3101,-2.3101,-2.3101,-2.3101,-2.3101,-2.3178,-2.3517,-2.4198,-2.4413,-2.5126,-2.6381,-2.6174,-2.637,-2.7794,-2.747,-2.747,-2.8139,-2.8299,-2.8339,-2.851,-2.851,-2.851,-2.851,-2.851,-2.851,-2.851,-2.851,-2.851,-2.851,-2.851,-2.851,-2.851,-2.851,-2.851,-2.851,-2.851,-2.851,-2.851,-2.851,-2.851,-2.851,-2.851,-2.851,-2.851,-2.851,-2.851,-2.855,-2.855,-2.8578,-2.8961,-2.9302,-2.9729,-3.0139,-3.0758,-3.1068,-3.1217,-3.1328,-3.1389,-3.1769,-3.234,-3.2907,-2.9725,-2.9321,-2.9311,-2.9003,-2.853,-2.8488,-2.8416,-2.8315,-2.8291,-2.8344,-2.8291,-2.8301,-2.8291,-2.8301,-2.8291,-2.8066,-2.7832,-2.7969,-2.7666,-2.7012,-2.7207,-2.668,-2.5869,-2.5635,-2.5557,-2.5537,-2.5391,-2.5343,-2.5313,-2.5049,-2.5127,-2.5527,-2.5117,-2.499,-2.5088,-2.46,-2.4141,-2.3916,-2.3413,-2.312,-2.3179,-2.3574,-2.3564,-2.3188,-2.3564,-2.3574,-2.3149,-2.3101,-2.3101,-2.3101,-2.3101,-2.3101,-2.3101,-2.3101,-2.3101,-2.3101,-2.3101,-2.3101,-2.3101,-2.3101,-2.3222,-2.3387,-2.356,-2.3983,-2.5041,-2.4999,-2.5411,-2.6246,-2.6246,-2.6588,-2.7336,-2.7592,-2.7846,-2.8391,-2.851,-2.851,-2.851,-2.851,-2.851,-2.851,-2.851,-2.851,-2.851,-2.851,-2.851,-2.851,-2.851,-2.851,-2.851,-2.851,-2.851,-2.851,-2.851,-2.851,-2.851,-2.851,-2.851,-2.851,-2.851,-2.851,-2.8538,-2.8605,-2.8685,-2.887,-2.9079,-2.9431,-2.9496,-2.9781,-2.9935,-3.0152,-3.0558,-3.0849,-3.1145,-3.1613,-3.215,-2.9725,-2.9311,-2.9311,-2.9003,-2.854,-2.8643,-2.8441,-2.8196,-2.8479,-2.8386,-2.8202,-2.8339,-2.8398,-2.8291,-2.8291,-2.8174,-2.7969,-2.7998,-2.7734,-2.7402,-2.7334,-2.6846,-2.6191,-2.6016,-2.6006,-2.5986,-2.5781,-2.5801,-2.5889,-2.5557,-2.5527,-2.5596,-2.5488,-2.5352,-2.5352,-2.4912,-2.458,-2.4307,-2.3896,-2.3569,-2.3457,-2.3652,-2.3516,-2.3266,-2.3555,-2.3691,-2.3608,-2.3516,-2.334,-2.3159,-2.3101,-2.3101,-2.3101,-2.3101,-2.3101,-2.3101,-2.3101,-2.3101,-2.3101,-2.3101,-2.3101,-2.3091,-2.3101,-2.3604,-2.4198,-2.4198,-2.4317,-2.5663,-2.5442,-2.5955,-2.6969,-2.751,-2.7966,-2.8391,-2.851,-2.851,-2.851,-2.851,-2.851,-2.851,-2.851,-2.851,-2.851,-2.851,-2.851,-2.851,-2.851,-2.851,-2.851,-2.851,-2.851,-2.851,-2.851,-2.851,-2.851,-2.851,-2.851,-2.851,-2.851,-2.851,-2.8538,-2.8645,-2.8724,-2.8803,-2.8922,-2.9,-2.9079,-2.9118,-2.9118,-2.9456,-2.9906,-3.0137,-3.0292,-3.1021,-3.1543,-2.9756,-2.9384,-2.9384,-2.9065,-2.8724,-2.8828,-2.8508,-2.8048,-2.8528,-2.8416,-2.7944,-2.8364,-2.8377,-2.8232,-2.8242,-2.8281,-2.8252,-2.7891,-2.7787,-2.7549,-2.7412,-2.7021,-2.666,-2.6484,-2.6455,-2.6387,-2.6016,-2.6055,-2.6133,-2.5898,-2.5732,-2.5762,-2.5723,-2.5723,-2.5664,-2.5303,-2.5078,-2.4902,-2.4492,-2.4131,-2.3896,-2.3896,-2.376,-2.351,-2.3721,-2.4053,-2.416,-2.4033,-2.3711,-2.3266,-2.3159,-2.3101,-2.3101,-2.3101,-2.3101,-2.3101,-2.3101,-2.3101,-2.3101,-2.3101,-2.3101,-2.3101,-2.3101,-2.343,-2.394,-2.3647,-2.381,-2.5073,-2.4734,-2.5253,-2.6629,-2.7713,-2.8219,-2.8431,-2.851,-2.851,-2.851,-2.851,-2.851,-2.851,-2.851,-2.851,-2.851,-2.851,-2.851,-2.851,-2.851,-2.851,-2.851,-2.851,-2.851,-2.851,-2.851,-2.851,-2.851,-2.851,-2.851,-2.851,-2.851,-2.851,-2.851,-2.8618,-2.8685,-2.8764,-2.8776,-2.8776,-2.8803,-2.8736,-2.8669,-2.883,-2.9389,-2.9175,-2.9052,-3.026,-3.1059,-2.9942,-2.9849,-2.9849,-2.9693,-2.936,-2.9012,-2.8705,-2.8323,-2.8175,-2.8013,-2.7625,-2.7982,-2.8075,-2.7822,-2.8096,-2.8301,-2.8174,-2.7822,-2.7728,-2.7748,-2.7959,-2.7764,-2.7353,-2.7012,-2.6875,-2.6777,-2.6455,-2.6328,-2.6309,-2.6113,-2.5879,-2.6191,-2.5947,-2.5859,-2.6094,-2.5566,-2.5068,-2.5,-2.4678,-2.4463,-2.4336,-2.4287,-2.4228,-2.4111,-2.4228,-2.4316,-2.4375,-2.4326,-2.4228,-2.3968,-2.351,-2.3198,-2.3159,-2.3159,-2.3149,-2.311,-2.311,-2.311,-2.3101,-2.3101,-2.3101,-2.3101,-2.3091,-2.3169,-2.3309,-2.3309,-2.3266,-2.3681,-2.356,-2.4317,-2.5872,-2.6917,-2.7632,-2.8087,-2.8351,-2.8431,-2.8471,-2.851,-2.851,-2.851,-2.851,-2.851,-2.851,-2.851,-2.851,-2.851,-2.851,-2.851,-2.851,-2.851,-2.851,-2.851,-2.851,-2.851,-2.851,-2.851,-2.851,-2.851,-2.851,-2.851,-2.851,-2.855,-2.8618,-2.8618,-2.8538,-2.8578,-2.8618,-2.859,-2.8562,-2.8715,-2.8943,-2.91,-2.9434,-3.0219,-3.0714,-2.9994,-2.9994,-2.9994,-2.9827,-2.9576,-2.9475,-2.9043,-2.8622,-2.8798,-2.8288,-2.7699,-2.8167,-2.809,-2.7464,-2.7783,-2.79,-2.7676,-2.748,-2.7353,-2.7383,-2.7578,-2.7539,-2.7412,-2.7187,-2.708,-2.7187,-2.6885,-2.6787,-2.6816,-2.6572,-2.6434,-2.666,-2.6376,-2.6338,-2.6426,-2.6064,-2.5791,-2.5498,-2.5381,-2.5176,-2.4805,-2.4727,-2.4717,-2.4717,-2.4736,-2.4795,-2.5039,-2.4814,-2.4746,-2.457,-2.4111,-2.3588,-2.3525,-2.3613,-2.351,-2.3169,-2.3325,-2.3247,-2.3169,-2.3101,-2.3101,-2.3101,-2.3101,-2.3101,-2.3101,-2.3101,-2.3101,-2.3101,-2.3222,-2.3724,-2.5031,-2.5997,-2.6794,-2.7121,-2.7644,-2.7886,-2.7966,-2.8219,-2.851,-2.851,-2.851,-2.851,-2.851,-2.851,-2.851,-2.851,-2.851,-2.851,-2.851,-2.851,-2.851,-2.851,-2.851,-2.851,-2.851,-2.851,-2.851,-2.851,-2.851,-2.851,-2.851,-2.851,-2.851,-2.8522,-2.8534,-2.851,-2.855,-2.8522,-2.8703,-2.9003,-2.928,-2.952,-2.9947,-3.0616,-3.087,-2.9994,-2.9994,-2.9994,-2.9879,-2.9711,-2.9776,-2.9373,-2.8837,-2.9425,-2.8737,-2.7831,-2.8525,-2.8075,-2.7437,-2.7581,-2.7432,-2.7275,-2.7295,-2.7402,-2.7285,-2.7441,-2.7393,-2.7275,-2.7236,-2.7236,-2.7519,-2.7158,-2.7178,-2.7275,-2.7236,-2.6963,-2.706,-2.6992,-2.6865,-2.6728,-2.6699,-2.6455,-2.5879,-2.5937,-2.5879,-2.542,-2.537,-2.537,-2.538,-2.539,-2.5391,-2.5518,-2.5352,-2.5176,-2.5137,-2.4814,-2.4424,-2.418,-2.4141,-2.416,-2.3354,-2.3721,-2.3672,-2.3398,-2.3247,-2.3237,-2.3188,-2.311,-2.3159,-2.3198,-2.3149,-2.3101,-2.3101,-2.3178,-2.3517,-2.4402,-2.5158,-2.5621,-2.5997,-2.6629,-2.6969,-2.7267,-2.7805,-2.7926,-2.851,-2.851,-2.851,-2.851,-2.851,-2.851,-2.851,-2.851,-2.851,-2.851,-2.851,-2.851,-2.851,-2.851,-2.851,-2.851,-2.851,-2.851,-2.8522,-2.8522,-2.8534,-2.8522,-2.851,-2.8522,-2.857,-2.8582,-2.8607,-2.8739,-2.8919,-2.9136,-2.9388,-2.9737,-3.0098,-3.0567,-3.1072,-3.1158,-2.9994,-2.9994,-2.9994,-2.9994,-2.988,-2.9601,-2.9363,-2.9147,-2.9022,-2.8431,-2.7894,-2.7944,-2.7988,-2.7636,-2.765,-2.766,-2.7578,-2.7656,-2.7734,-2.7598,-2.7715,-2.7734,-2.7441,-2.7305,-2.7324,-2.7158,-2.7031,-2.71,-2.7168,-2.7051,-2.7266,-2.7412,-2.7256,-2.7148,-2.7148,-2.6904,-2.6562,-2.6211,-2.6084,-2.5947,-2.6045,-2.6133,-2.6055,-2.6045,-2.6016,-2.5918,-2.5732,-2.5625,-2.5625,-2.5577,-2.5499,-2.5254,-2.4883,-2.4619,-2.4385,-2.4144,-2.416,-2.4053,-2.375,-2.3652,-2.3672,-2.3603,-2.3428,-2.3389,-2.3486,-2.3325,-2.3179,-2.3101,-2.3178,-2.3474,-2.4402,-2.4616,-2.5031,-2.5537,-2.5913,-2.6287,-2.6753,-2.6835,-2.704,-2.7886,-2.8219,-2.851,-2.851,-2.851,-2.851,-2.851,-2.851,-2.851,-2.851,-2.851,-2.851,-2.851,-2.851,-2.851,-2.851,-2.851,-2.851,-2.8546,-2.8558,-2.857,-2.8558,-2.8522,-2.8534,-2.857,-2.8763,-2.8955,-2.9112,-2.9316,-2.9508,-2.9725,-3.0206,-3.0754,-3.1055,-3.1344,-3.15,-2.9994,-2.9994,-2.9994,-2.9994,-2.9953,-2.9766,-2.9663,-2.9632,-2.9425,-2.8973,-2.8523,-2.8419,-2.8121,-2.771,-2.7702,-2.7718,-2.7725,-2.7578,-2.7646,-2.7646,-2.7646,-2.7549,-2.7324,-2.7158,-2.706,-2.7002,-2.7021,-2.7148,-2.7334,-2.7363,-2.7578,-2.7851,-2.7754,-2.7695,-2.765,-2.7346,-2.6787,-2.6484,-2.6211,-2.6172,-2.6426,-2.6572,-2.6621,-2.6435,-2.6367,-2.6152,-2.5781,-2.5684,-2.5684,-2.5674,-2.5674,-2.5557,-2.541,-2.5195,-2.4883,-2.4551,-2.4453,-2.4365,-2.4102,-2.3965,-2.3867,-2.4072,-2.3887,-2.3779,-2.375,-2.3584,-2.3369,-2.3159,-2.3101,-2.3266,-2.3681,-2.381,-2.3973,-2.4349,-2.4819,-2.5326,-2.5663,-2.5746,-2.637,-2.7133,-2.7389,-2.7805,-2.851,-2.851,-2.851,-2.851,-2.8471,-2.851,-2.851,-2.851,-2.851,-2.851,-2.851,-2.851,-2.851,-2.851,-2.851,-2.8534,-2.8595,-2.8619,-2.8643,-2.8619,-2.857,-2.8558,-2.8823,-2.9172,-2.9544,-2.9773,-2.9917,-3.0086,-3.0561,-3.097,-3.1259,-3.1512,-3.1645,-2.9994,-2.9994,-2.9994,-2.9994,-2.9984,-2.988,-2.9839,-2.986,-2.9808,-2.9435,-2.8962,-2.8916,-2.8445,-2.7776,-2.7636,-2.7757,-2.7744,-2.7461,-2.7588,-2.7734,-2.7578,-2.7314,-2.707,-2.6885,-2.6846,-2.7002,-2.7012,-2.7246,-2.762,-2.7787,-2.7988,-2.8096,-2.8213,-2.8096,-2.7865,-2.751,-2.71,-2.6855,-2.6523,-2.6533,-2.6719,-2.6934,-2.6943,-2.6572,-2.6504,-2.6289,-2.5752,-2.582,-2.5771,-2.5723,-2.5684,-2.5674,-2.5684,-2.5684,-2.5352,-2.4824,-2.4687,-2.4648,-2.4482,-2.4326,-2.4297,-2.4512,-2.4355,-2.4141,-2.4004,-2.3828,-2.3623,-2.3305,-2.3247,-2.3188,-2.3261,-2.3135,-2.3178,-2.3299,-2.3854,-2.4327,-2.4701,-2.4956,-2.5326,-2.5955,-2.6381,-2.6835,-2.7336,-2.8047,-2.7926,-2.8179,-2.8179,-2.851,-2.851,-2.851,-2.851,-2.851,-2.851,-2.851,-2.851,-2.851,-2.851,-2.8522,-2.8619,-2.8679,-2.8727,-2.8751,-2.8703,-2.8691,-2.8967,-2.9328,-2.9773,-3.017,-3.035,-3.0555,-3.0898,-3.1187,-3.1464,-3.1585,-3.1669,-2.9994,-2.9994,-2.9994,-2.9994,-2.9942,-2.9601,-2.9415,-2.9435,-2.9446,-2.9219,-2.9003,-2.888,-2.852,-2.8046,-2.7783,-2.7943,-2.8066,-2.8086,-2.8037,-2.8105,-2.8037,-2.7842,-2.7669,-2.7568,-2.7275,-2.7207,-2.71,-2.7266,-2.7666,-2.8018,-2.8193,-2.8232,-2.8037,-2.7924,-2.8086,-2.7588,-2.7256,-2.7363,-2.71,-2.709,-2.7454,-2.7529,-2.7334,-2.7021,-2.6846,-2.6553,-2.5908,-2.6016,-2.6064,-2.5762,-2.5693,-2.5684,-2.5684,-2.5684,-2.5664,-2.5557,-2.5489,-2.54,-2.5059,-2.4891,-2.4834,-2.4824,-2.4473,-2.417,-2.4102,-2.3896,-2.3672,-2.375,-2.3662,-2.3477,-2.3159,-2.3101,-2.3101,-2.3135,-2.3309,-2.3864,-2.4198,-2.4069,-2.4445,-2.4776,-2.5242,-2.5495,-2.5872,-2.667,-2.7336,-2.7632,-2.7886,-2.8139,-2.8219,-2.8007,-2.7926,-2.7794,-2.7753,-2.7753,-2.7713,-2.7834,-2.7926,-2.8087,-2.845,-2.8562,-2.8514,-2.8509,-2.8895,-2.8955,-2.916,-2.9292,-2.9544,-2.9977,-3.0555,-3.097,-3.1151,-3.1392,-3.1645,-3.1705,-3.1705,-2.9994,-2.9994,-2.9994,-2.9994,-2.9973,-2.9766,-2.9694,-2.9642,-2.9425,-2.9405,-2.9343,-2.8748,-2.8329,-2.8034,-2.7986,-2.8115,-2.8271,-2.8291,-2.8301,-2.8301,-2.8281,-2.8193,-2.7998,-2.7812,-2.7588,-2.7676,-2.7559,-2.7646,-2.792,-2.7959,-2.8027,-2.8252,-2.8125,-2.8105,-2.8242,-2.7695,-2.7383,-2.7256,-2.7129,-2.7236,-2.7598,-2.7822,-2.7685,-2.7051,-2.7012,-2.665,-2.626,-2.5918,-2.6113,-2.5918,-2.5918,-2.5684,-2.5684,-2.5684,-2.5674,-2.5674,-2.5664,-2.5567,-2.5449,-2.5225,-2.5234,-2.5361,-2.5039,-2.4844,-2.4453,-2.3887,-2.3486,-2.3364,-2.3418,-2.3296,-2.3198,-2.3101,-2.3101,-2.3101,-2.3149,-2.3305,-2.3644,-2.3396,-2.3474,-2.3767,-2.4069,-2.436,-2.4754,-2.557,-2.626,-2.6535,-2.6712,-2.6876,-2.6876,-2.6712,-2.67,-2.6741,-2.6753,-2.6753,-2.6659,-2.6659,-2.67,-2.6985,-2.7982,-2.8023,-2.8045,-2.8138,-2.8666,-2.8838,-2.8823,-2.9003,-2.9263,-2.9881,-3.0567,-3.0995,-3.1344,-3.1476,-3.1597,-3.1705,-3.1705,-2.9994,-2.9984,-2.987,-2.9891,-2.9963,-2.9756,-2.9694,-2.9756,-2.9311,-2.9311,-2.926,-2.8492,-2.7905,-2.7936,-2.8025,-2.8015,-2.8125,-2.8305,-2.8344,-2.8291,-2.8301,-2.8291,-2.8174,-2.7988,-2.7998,-2.8281,-2.7949,-2.7988,-2.8066,-2.8076,-2.8066,-2.8271,-2.8086,-2.8174,-2.8154,-2.7871,-2.7549,-2.751,-2.7461,-2.7519,-2.7666,-2.7803,-2.7461,-2.71,-2.6894,-2.6768,-2.6279,-2.626,-2.6318,-2.6025,-2.5859,-2.5684,-2.5684,-2.5684,-2.5684,-2.5684,-2.5684,-2.5674,-2.5557,-2.5478,-2.5469,-2.5586,-2.5576,-2.5107,-2.4678,-2.3881,-2.3588,-2.3828,-2.3809,-2.3711,-2.3422,-2.3383,-2.3413,-2.3374,-2.3266,-2.3237,-2.3218,-2.3262,-2.3203,-2.3353,-2.3517,-2.3396,-2.3894,-2.4633,-2.5158,-2.5432,-2.561,-2.5694,-2.5694,-2.5704,-2.5872,-2.6027,-2.6102,-2.6144,-2.6038,-2.5902,-2.5777,-2.5983,-2.6967,-2.7439,-2.7372,-2.7955,-2.8686,-2.871,-2.854,-2.8809,-2.9165,-2.9869,-3.0543,-3.0742,-3.0934,-3.1284,-3.1476,-3.1577,-3.1741,-2.9994,-2.9963,-2.9528,-2.9591,-2.9911,-2.9052,-2.898,-2.9301,-2.8866,-2.869,-2.8661,-2.7881,-2.7673,-2.7753,-2.7728,-2.7688,-2.7796,-2.839,-2.8422,-2.8344,-2.8301,-2.8301,-2.8252,-2.8232,-2.8213,-2.8281,-2.8164,-2.8203,-2.8281,-2.8232,-2.8223,-2.8252,-2.8057,-2.8066,-2.8047,-2.7891,-2.7871,-2.79,-2.7959,-2.7842,-2.7685,-2.749,-2.708,-2.6777,-2.6777,-2.661,-2.5869,-2.6396,-2.6543,-2.5996,-2.5781,-2.5693,-2.5684,-2.5684,-2.5684,-2.5684,-2.5684,-2.5684,-2.5625,-2.5615,-2.5645,-2.5605,-2.54,-2.5146,-2.4902,-2.4998,-2.492,-2.4629,-2.4424,-2.4424,-2.4209,-2.4043,-2.3906,-2.3867,-2.3695,-2.3643,-2.3584,-2.3447,-2.3335,-2.3159,-2.3198,-2.3364,-2.3442,-2.4333,-2.4326,-2.4581,-2.4819,-2.4935,-2.5105,-2.5158,-2.5368,-2.5537,-2.5622,-2.5664,-2.5663,-2.5528,-2.5338,-2.5486,-2.6206,-2.6551,-2.6626,-2.748,-2.8379,-2.8507,-2.8383,-2.8723,-2.8893,-2.9075,-2.9406,-3.0042,-3.053,-3.0958,-3.1116,-3.1149,-3.1466,-2.9145,-2.9125,-2.8949,-2.9145,-2.9549,-2.9187,-2.898,-2.8804,-2.84,-2.8193,-2.8175,-2.8176,-2.8178,-2.8006,-2.788,-2.7781,-2.7914,-2.8265,-2.8349,-2.8344,-2.8301,-2.8301,-2.8301,-2.8301,-2.8291,-2.8301,-2.8301,-2.8301,-2.8291,-2.8301,-2.8301,-2.8213,-2.8086,-2.8164,-2.8135,-2.7949,-2.7978,-2.8105,-2.8096,-2.79,-2.8076,-2.792,-2.7607,-2.7246,-2.7266,-2.7285,-2.6973,-2.6689,-2.6611,-2.6387,-2.5927,-2.5752,-2.5684,-2.5684,-2.5684,-2.5684,-2.5684,-2.5684,-2.5684,-2.5684,-2.5684,-2.5596,-2.5352,-2.5078,-2.5088,-2.4883,-2.4707,-2.4629,-2.4746,-2.4707,-2.4463,-2.4277,-2.4228,-2.4277,-2.4209,-2.4043,-2.3975,-2.3857,-2.3779,-2.3666,-2.3838,-2.4014,-2.4053,-2.4137,-2.393,-2.3753,-2.3957,-2.4198,-2.4444,-2.4476,-2.4615,-2.4762,-2.4878,-2.4769,-2.4738,-2.4771,-2.4853,-2.5179,-2.5495,-2.5795,-2.6119,-2.6834,-2.7622,-2.7875,-2.8051,-2.8085,-2.8061,-2.7903,-2.8241,-2.8884,-2.9794,-3.072,-3.0777,-3.0682,-3.1003,-2.8897,-2.9021,-2.9032,-2.9042,-2.9104,-2.9094,-2.8918,-2.8607,-2.8307,-2.7979,-2.7927,-2.8215,-2.8156,-2.7894,-2.8015,-2.7877,-2.7984,-2.8285,-2.8373,-2.8344,-2.8301,-2.8301,-2.8301,-2.8301,-2.8301,-2.8301,-2.8301,-2.8301,-2.8301,-2.8301,-2.8301,-2.8301,-2.8291,-2.8291,-2.8223,-2.8057,-2.8008,-2.8125,-2.8076,-2.7861,-2.8115,-2.8037,-2.7832,-2.75,-2.7519,-2.7353,-2.7109,-2.6787,-2.6592,-2.6357,-2.5996,-2.5732,-2.5684,-2.5684,-2.5684,-2.5684,-2.5684,-2.5693,-2.5684,-2.5684,-2.5684,-2.5635,-2.5518,-2.5322,-2.5176,-2.4971,-2.5019,-2.4941,-2.4836,-2.4748,-2.4766,-2.4746,-2.4795,-2.4863,-2.4443,-2.4268,-2.4394,-2.4365,-2.4316,-2.4258,-2.4346,-2.4326,-2.4326,-2.427,-2.4235,-2.3939,-2.3846,-2.3943,-2.3883,-2.3877,-2.3636,-2.3829,-2.3964,-2.3851,-2.3683,-2.4267,-2.4806,-2.4751,-2.5068,-2.5402,-2.5833,-2.6567,-2.7136,-2.7465,-2.7577,-2.7405,-2.748,-2.7653,-2.7648,-2.7665,-2.8745,-2.9886,-3.0227,-3.0187,-3.0382,-2.9487,-2.9953,-2.9901,-2.9404,-2.8711,-2.8638,-2.8618,-2.8535,-2.8493,-2.8266,-2.7855,-2.7485,-2.7224,-2.7278,-2.7862,-2.7794,-2.776,-2.8398,-2.8691,-2.83,-2.8271,-2.8281,-2.8301,-2.8301,-2.8301,-2.8301,-2.8301,-2.8301,-2.8301,-2.8301,-2.8301,-2.8301,-2.8301,-2.8291,-2.8281,-2.8281,-2.8281,-2.8281,-2.8242,-2.8066,-2.791,-2.7871,-2.7646,-2.7529,-2.7627,-2.751,-2.7168,-2.6953,-2.6699,-2.622,-2.5908,-2.5693,-2.5684,-2.5684,-2.5684,-2.5684,-2.5723,-2.5732,-2.5713,-2.5703,-2.5723,-2.5693,-2.5605,-2.5605,-2.5615,-2.5577,-2.5479,-2.5323,-2.544,-2.5518,-2.5498,-2.5352,-2.5371,-2.5254,-2.4834,-2.4785,-2.4951,-2.4912,-2.4853,-2.4941,-2.4668,-2.4453,-2.4473,-2.4456,-2.4504,-2.4336,-2.4004,-2.3828,-2.375,-2.3691,-2.3559,-2.375,-2.3965,-2.3994,-2.4082,-2.4385,-2.4663,-2.4617,-2.4908,-2.5548,-2.5936,-2.6571,-2.6975,-2.7185,-2.7358,-2.7405,-2.7477,-2.7521,-2.7498,-2.7552,-2.7987,-2.8845,-2.928,-2.96,-2.9752,-2.8659,-2.9104,-2.9404,-2.9177,-2.8649,-2.8618,-2.8452,-2.8193,-2.8103,-2.8069,-2.7886,-2.7592,-2.7562,-2.7657,-2.7633,-2.7631,-2.7472,-2.7855,-2.8134,-2.7982,-2.8164,-2.8271,-2.8301,-2.8301,-2.8301,-2.8301,-2.8301,-2.8301,-2.8301,-2.8301,-2.8301,-2.8301,-2.8301,-2.8301,-2.8291,-2.8301,-2.8291,-2.8291,-2.8281,-2.8213,-2.8096,-2.8057,-2.7978,-2.7803,-2.7969,-2.7842,-2.7451,-2.7256,-2.6797,-2.6416,-2.6083,-2.5713,-2.5713,-2.5713,-2.5703,-2.5781,-2.5928,-2.6162,-2.6172,-2.6152,-2.6016,-2.581,-2.5684,-2.5684,-2.5684,-2.5684,-2.5684,-2.5684,-2.5684,-2.5684,-2.5596,-2.5615,-2.5625,-2.5567,-2.5449,-2.5635,-2.5732,-2.5537,-2.5401,-2.5664,-2.5576,-2.5283,-2.5128,-2.5079,-2.5079,-2.5029,-2.4736,-2.4365,-2.4209,-2.4189,-2.4141,-2.4287,-2.4434,-2.4463,-2.46,-2.5039,-2.5303,-2.5371,-2.581,-2.6427,-2.6794,-2.6814,-2.6913,-2.713,-2.729,-2.744,-2.7431,-2.7432,-2.7462,-2.7592,-2.801,-2.8516,-2.9153,-2.9236,-2.9019,-2.8286,-2.8866,-2.9177,-2.9042,-2.868,-2.8783,-2.8597,-2.8152,-2.7862,-2.7769,-2.7862,-2.7769,-2.7665,-2.771,-2.7832,-2.763,-2.7482,-2.8091,-2.8154,-2.8025,-2.8144,-2.8271,-2.8301,-2.8301,-2.8301,-2.8301,-2.8301,-2.8301,-2.8301,-2.8301,-2.8301,-2.8301,-2.8301,-2.8301,-2.8301,-2.8301,-2.8301,-2.8301,-2.8291,-2.8291,-2.8252,-2.8262,-2.8271,-2.8242,-2.8252,-2.8174,-2.79,-2.749,-2.7012,-2.6787,-2.6338,-2.5801,-2.582,-2.5781,-2.5801,-2.6006,-2.6172,-2.6367,-2.6357,-2.6133,-2.5898,-2.5723,-2.5693,-2.5684,-2.5684,-2.5684,-2.5684,-2.5684,-2.5703,-2.5684,-2.5693,-2.5703,-2.584,-2.5791,-2.5908,-2.6074,-2.5957,-2.5693,-2.5693,-2.5996,-2.6045,-2.582,-2.5703,-2.5801,-2.5752,-2.5654,-2.5488,-2.5088,-2.4697,-2.4639,-2.4678,-2.4844,-2.501,-2.5107,-2.5381,-2.584,-2.6064,-2.6113,-2.6551,-2.7109,-2.6963,-2.6911,-2.6996,-2.7021,-2.7209,-2.73,-2.7334,-2.7359,-2.7572,-2.7759,-2.7979,-2.8532,-2.9159,-2.8982,-2.864,-2.8452,-2.9228,-2.929,-2.9011,-2.8731,-2.897,-2.8887,-2.8473,-2.7724,-2.7552,-2.7862,-2.7448,-2.7392,-2.7517,-2.8121,-2.8042,-2.7723,-2.8406,-2.8331,-2.8255,-2.8086,-2.8193,-2.8281,-2.8301,-2.8301,-2.8301,-2.8301,-2.8301,-2.8301,-2.8301,-2.8301,-2.8301,-2.8301,-2.8301,-2.8301,-2.8301,-2.8301,-2.8301,-2.8301,-2.8301,-2.8301,-2.8301,-2.8301,-2.8301,-2.8281,-2.8144,-2.7842,-2.7422,-2.7178,-2.6826,-2.6289,-2.6182,-2.6094,-2.5967,-2.6103,-2.6318,-2.6504,-2.6553,-2.6543,-2.6318,-2.6044,-2.6005,-2.5888,-2.5781,-2.5791,-2.5888,-2.5957,-2.5879,-2.584,-2.5752,-2.5703,-2.5898,-2.6045,-2.6055,-2.6074,-2.6045,-2.5869,-2.5791,-2.5879,-2.5957,-2.5947,-2.581,-2.5742,-2.583,-2.6074,-2.5966,-2.584,-2.5693,-2.5332,-2.5049,-2.5137,-2.5381,-2.5566,-2.5791,-2.6123,-2.6475,-2.6728,-2.6807,-2.7012,-2.7383,-2.7207,-2.7197,-2.7363,-2.7402,-2.7197,-2.7246,-2.7559,-2.7734,-2.7875,-2.8018,-2.8125,-2.8239,-2.8705,-2.8637,-2.8351,-2.8276,-2.8804,-2.8814,-2.8731,-2.8597,-2.8411,-2.8059,-2.7703,-2.7645,-2.7686,-2.7427,-2.7372,-2.733,-2.7361,-2.7589,-2.7385,-2.7337,-2.7332,-2.7449,-2.7538,-2.7914,-2.8057,-2.8203,-2.8291,-2.8291,-2.8301,-2.8301,-2.8301,-2.8301,-2.8301,-2.8301,-2.8301,-2.8301,-2.8301,-2.8301,-2.8301,-2.8301,-2.8301,-2.8301,-2.8301,-2.8301,-2.8301,-2.8301,-2.8301,-2.8301,-2.8164,-2.8008,-2.7646,-2.7471,-2.7324,-2.6641,-2.6348,-2.6309,-2.6299,-2.6465,-2.7197,-2.7314,-2.7356,-2.7327,-2.7158,-2.6904,-2.6551,-2.6541,-2.6435,-2.6396,-2.6377,-2.6435,-2.6289,-2.6182,-2.6143,-2.5976,-2.6084,-2.6172,-2.6191,-2.6211,-2.6191,-2.6113,-2.6201,-2.624,-2.6338,-2.6309,-2.6006,-2.5928,-2.5967,-2.6143,-2.6122,-2.6122,-2.6113,-2.6006,-2.5742,-2.5635,-2.5898,-2.6084,-2.6289,-2.6572,-2.6955,-2.7207,-2.7451,-2.7607,-2.7754,-2.7803,-2.7822,-2.7881,-2.7832,-2.7685,-2.7803,-2.8057,-2.8135,-2.8086,-2.8154,-2.8242,-2.8193,-2.8174,-2.8242,-2.8281,-2.7924,-2.8307,-2.8349,-2.8338,-2.8247,-2.8048,-2.7665,-2.7413,-2.7552,-2.7489,-2.733,-2.732,-2.7392,-2.7531,-2.7593,-2.7465,-2.7388,-2.7824,-2.7974,-2.7897,-2.7875,-2.8239,-2.8402,-2.8344,-2.8291,-2.8301,-2.8301,-2.8301,-2.8301,-2.8301,-2.8301,-2.8301,-2.8301,-2.8301,-2.8301,-2.8301,-2.8301,-2.8301,-2.8301,-2.8301,-2.8301,-2.8301,-2.8301,-2.8301,-2.8301,-2.8301,-2.8242,-2.7891,-2.7773,-2.7754,-2.709,-2.6768,-2.6826,-2.6943,-2.6992,-2.7588,-2.766,-2.764,-2.7601,-2.7383,-2.7236,-2.7158,-2.7187,-2.7139,-2.6982,-2.6914,-2.6816,-2.668,-2.6631,-2.6553,-2.6337,-2.621,-2.623,-2.6289,-2.6348,-2.6396,-2.6494,-2.6611,-2.6728,-2.6855,-2.666,-2.6318,-2.6191,-2.6201,-2.6309,-2.6504,-2.6689,-2.6768,-2.6699,-2.6562,-2.6406,-2.6455,-2.6611,-2.6777,-2.706,-2.7366,-2.7559,-2.7803,-2.7978,-2.8125,-2.8291,-2.8252,-2.8125,-2.8164,-2.8213,-2.8271,-2.8242,-2.8262,-2.8252,-2.8301,-2.8301,-2.8262,-2.8232,-2.8262,-2.8291,-2.7438,-2.7751,-2.7772,-2.7862,-2.7914,-2.7872,-2.7645,-2.7372,-2.7372,-2.732,-2.732,-2.732,-2.7448,-2.7645,-2.7769,-2.7821,-2.7901,-2.8208,-2.838,-2.8468,-2.8344,-2.8506,-2.8518,-2.8461,-2.8301,-2.8301,-2.8301,-2.8301,-2.8301,-2.8301,-2.8301,-2.8301,-2.8301,-2.8301,-2.8301,-2.8301,-2.8301,-2.8301,-2.8301,-2.8301,-2.8301,-2.8301,-2.8301,-2.8301,-2.8301,-2.8291,-2.8203,-2.8047,-2.7881,-2.7871,-2.7676,-2.7305,-2.7422,-2.7601,-2.7669,-2.7796,-2.7865,-2.7822,-2.7764,-2.7588,-2.7402,-2.7373,-2.7471,-2.7607,-2.7559,-2.7461,-2.7334,-2.7139,-2.706,-2.6924,-2.6758,-2.667,-2.666,-2.667,-2.6689,-2.6719,-2.6768,-2.6924,-2.7109,-2.7187,-2.706,-2.6699,-2.6318,-2.6328,-2.6406,-2.6758,-2.708,-2.7236,-2.7226,-2.7158,-2.708,-2.6963,-2.706,-2.7207,-2.751,-2.7744,-2.7891,-2.8096,-2.8242,-2.8291,-2.8291,-2.8301,-2.8291,-2.8301,-2.8301,-2.8301,-2.8291,-2.8301,-2.8301,-2.8301,-2.8301,-2.8301,-2.8301,-2.8301,-2.8301,-2.6832,-2.6889,-2.6936,-2.7272,-2.7831,-2.7552,-2.7572,-2.7717,-2.7444,-2.732,-2.732,-2.732,-2.7382,-2.7531,-2.7779,-2.786,-2.7949,-2.8339,-2.8421,-2.8459,-2.8471,-2.8602,-2.8625,-2.8461,-2.8301,-2.8301,-2.8301,-2.8301,-2.8301,-2.8301,-2.8301,-2.8301,-2.8301,-2.8301,-2.8301,-2.8301,-2.8301,-2.8301,-2.8301,-2.8301,-2.8301,-2.8301,-2.8301,-2.8301,-2.8301,-2.8301,-2.8242,-2.8223,-2.8174,-2.8154,-2.7783,-2.7617,-2.7699,-2.7728,-2.7894,-2.8057,-2.8096,-2.8086,-2.8047,-2.793,-2.7861,-2.79,-2.8037,-2.8096,-2.8096,-2.8018,-2.7871,-2.7637,-2.7451,-2.7295,-2.7168,-2.7119,-2.708,-2.708,-2.7051,-2.7051,-2.706,-2.7275,-2.7542,-2.7451,-2.7393,-2.706,-2.665,-2.6514,-2.6582,-2.6885,-2.7314,-2.7529,-2.7519,-2.7471,-2.7451,-2.7373,-2.7441,-2.7617,-2.79,-2.8047,-2.8125,-2.8174,-2.8271,-2.8291,-2.8301,-2.8301,-2.8301,-2.8301,-2.8301,-2.8301,-2.8301,-2.8301,-2.8301,-2.8301,-2.8301,-2.8301,-2.8301,-2.8301,-2.8301,-2.6314,-2.6335,-2.6532,-2.6972,-2.751,-2.7403,-2.7455,-2.7562,-2.7413,-2.732,-2.732,-2.733,-2.7413,-2.7438,-2.7634,-2.7917,-2.7955,-2.8274,-2.8655,-2.8747,-2.8637,-2.871,-2.8648,-2.8514,-2.8354,-2.8301,-2.8301,-2.8301,-2.8301,-2.8301,-2.8301,-2.8301,-2.8301,-2.8301,-2.8301,-2.8301,-2.8301,-2.8301,-2.8301,-2.8301,-2.8301,-2.8301,-2.8301,-2.8301,-2.8301,-2.8301,-2.8301,-2.8301,-2.8291,-2.8271,-2.8037,-2.7978,-2.7978,-2.7988,-2.8066,-2.8203,-2.8271,-2.8301,-2.8301,-2.8301,-2.8301,-2.8301,-2.8291,-2.8232,-2.8232,-2.8154,-2.8144,-2.7949,-2.7939,-2.7803,-2.7685,-2.7617,-2.7646,-2.7656,-2.7529,-2.7451,-2.7607,-2.7832,-2.793,-2.792,-2.7764,-2.7451,-2.709,-2.6855,-2.6953,-2.7207,-2.766,-2.7822,-2.7812,-2.7783,-2.7754,-2.7754,-2.7793,-2.7881,-2.8086,-2.8184,-2.8242,-2.8281,-2.8301,-2.8301,-2.8301,-2.8301,-2.8301,-2.8301,-2.8301,-2.8301,-2.8301,-2.8301,-2.8301,-2.8301,-2.8301,-2.8301,-2.8301,-2.833,-2.8379,-2.5834,-2.5937,-2.6356,-2.6791,-2.7206,-2.7289,-2.733,-2.733,-2.732,-2.732,-2.732,-2.732,-2.751,-2.7572,-2.7593,-2.8007,-2.838,-2.864,-2.8971,-2.9075,-2.9058,-2.8978,-2.8827,-2.8548,-2.8398,-2.8301,-2.8301,-2.8301,-2.8301,-2.8301,-2.8301,-2.8301,-2.8301,-2.8301,-2.8301,-2.8301,-2.8301,-2.8301,-2.8301,-2.8301,-2.8301,-2.8301,-2.8301,-2.8301,-2.8301,-2.8301,-2.8301,-2.8301,-2.8301,-2.8281,-2.8252,-2.8223,-2.8213,-2.8193,-2.8223,-2.8301,-2.8301,-2.8301,-2.8301,-2.8301,-2.8301,-2.8301,-2.8301,-2.8301,-2.8301,-2.8291,-2.8281,-2.8271,-2.8262,-2.8213,-2.8096,-2.8047,-2.8086,-2.8096,-2.793,-2.7875,-2.8047,-2.8242,-2.8242,-2.8252,-2.8047,-2.7754,-2.751,-2.7266,-2.7393,-2.7679,-2.7812,-2.7998,-2.8115,-2.8076,-2.8047,-2.8057,-2.8076,-2.8184,-2.8262,-2.8271,-2.8291,-2.8301,-2.8301,-2.8301,-2.8301,-2.8301,-2.8301,-2.8301,-2.8301,-2.8301,-2.8301,-2.8301,-2.8301,-2.832,-2.8467,-2.8516,-2.8408,-2.8447,-2.8506,-2.5564,-2.5941,-2.6024,-2.6279,-2.677,-2.7143,-2.732,-2.732,-2.732,-2.732,-2.732,-2.732,-2.7392,-2.7455,-2.7738,-2.8048,-2.8276,-2.8731,-2.8901,-2.8972,-2.9171,-2.9144,-2.8973,-2.8654,-2.8398,-2.8301,-2.8354,-2.8291,-2.8291,-2.8301,-2.8301,-2.8301,-2.8301,-2.8301,-2.8301,-2.8301,-2.8301,-2.8301,-2.8301,-2.8301,-2.8301,-2.8301,-2.8301,-2.8301,-2.8301,-2.8301,-2.8301,-2.8301,-2.8301,-2.8301,-2.8301,-2.8301,-2.8301,-2.8301,-2.8301,-2.8301,-2.8301,-2.8301,-2.8301,-2.8301,-2.8301,-2.8301,-2.8301,-2.8301,-2.8301,-2.8291,-2.8291,-2.8291,-2.8281,-2.8281,-2.8203,-2.8203,-2.8232,-2.8232,-2.8135,-2.8125,-2.8232,-2.8271,-2.8281,-2.8281,-2.8213,-2.7959,-2.7777,-2.7646,-2.7783,-2.8012,-2.8008,-2.8174,-2.8223,-2.8262,-2.8301,-2.8301,-2.8301,-2.8291,-2.8291,-2.8281,-2.8301,-2.8301,-2.8301,-2.8301,-2.8301,-2.8301,-2.8301,-2.8301,-2.8301,-2.8301,-2.8301,-2.8301,-2.8359,-2.8428,-2.8691,-2.8769,-2.8652,-2.8672,-2.8838]},{"header":{"parameterUnit":"m.s-1","parameterCategory":1,"la1":31.0,"la2":29.5877,"lo1":-88.7671,"lo2":-86.6584,"dy":0.0162,"dx":0.0185,"nx":115,"ny":88,"refTime":"2023-04-19T00:00:00:Z","depth":0,"parameterNumber":3,"parameterNumberName":"V-component_of_WINDS"},"data":[0.0,0.0,0.0,0.0,0.0,0.0,0.0,0.0,0.0,0.0,0.0,0.0,0.0,0.0,0.0,0.0,0.0,0.0,0.0,0.0,0.0,0.0,0.0,0.0,0.0,0.0,0.0,0.0,0.0,0.0,0.0,0.0,0.0,0.0,0.0,0.0,0.0,0.0,0.0,0.0,0.0,0.0,0.0,0.0,0.0,0.0,0.0,0.0,0.0,0.0,0.0,0.0,0.0,0.0,0.0,0.0,0.0,0.0,0.0,0.0,0.0,0.0,0.0,0.0,0.0,0.0,0.0,0.0,0.0,0.0,0.0,0.0,0.0,0.0,0.0,0.0,0.0,0.0,0.0,0.0,0.0,0.0,0.0,0.0,0.0,0.0,0.0,0.0,0.0,0.0,0.0,0.0,0.0,0.0,0.0,0.0,0.0,0.0,0.0,0.0,0.0,0.0,0.0,0.0,0.0,0.0,0.0,0.0,0.0,0.0,0.0,0.0,0.0,0.0,0.0,0.0,0.0,0.0,0.0,0.0,0.0,0.0,0.0,0.0,0.0,0.0,0.0,0.0,0.0,0.0,0.0,0.0,0.0,0.0,0.0,0.0,0.0,0.0,0.0,0.0,0.0,0.0,0.0,0.0,0.0,0.0,0.0,0.0,0.0,0.0,0.0,0.0,0.0,0.0,0.0,0.0,0.0,0.0,0.0,0.0,0.0,0.0,0.0,0.0,0.0,0.0,0.0,0.0,0.0,0.0,0.0,0.0,0.0,0.0,0.0,0.0,0.0,0.0,0.0,0.0,0.0,0.0,0.0,0.0,0.0,0.0,0.0,0.0,0.0,0.0,0.0,0.0,0.0,0.0,0.0,0.0,0.0,0.0,0.0,0.0,0.0,0.0,0.0,0.0,0.0,0.0,0.0,0.0,0.0,0.0,0.0,0.0,0.0,0.0,0.0,0.0,0.0,0.0,0.0,0.0,0.0,0.0,0.0,0.0,0.0,0.0,0.0,0.0,0.0,0.0,0.0,0.0,0.0,0.0,0.0,0.0,0.0,0.0,0.0,0.0,0.0,0.0,0.0,0.0,0.0,0.0,0.0,0.0,0.0,0.0,0.0,0.0,0.0,0.0,0.0,0.0,0.0,0.0,0.0,0.0,0.0,0.0,0.0,0.0,0.0,0.0,0.0,0.0,0.0,0.0,0.0,0.0,0.0,0.0,0.0,0.0,0.0,0.0,0.0,0.0,0.0,0.0,0.0,0.0,0.0,0.0,0.0,0.0,0.0,0.0,0.0,0.0,0.0,0.0,0.0,0.0,0.0,0.0,0.0,0.0,0.0,0.0,0.0,0.0,0.0,0.0,0.0,0.0,0.0,0.0,0.0,0.0,0.0,0.0,0.0,0.0,0.0,0.0,0.0,0.0,0.0,0.0,0.0,0.0,0.0,0.0,0.0,0.0,0.0,0.0,0.0,0.0,0.0,0.0,0.0,0.0,0.0,0.0,0.0,0.0,0.0,0.0,0.0,0.0,0.0,0.0,0.0,0.0,0.0,0.0,0.0,0.0,0.0,0.0,0.0,0.0,0.0,0.0,0.0,0.0,0.0,0.0,0.0,0.0,0.0,0.0,0.0,0.0,0.0,0.0,0.0,0.0,0.0,0.0,0.0,0.0,0.0,0.0,0.0,0.0,0.0,0.0,0.0,0.0,0.0,0.0,0.0,0.0,0.0,0.0,0.0,0.0,0.0,0.0,0.0,0.0,0.0,0.0,0.0,0.0,0.0,0.0,0.0,0.0,0.0,0.0,0.0,0.0,0.0,0.0,0.0,0.0,0.0,0.0,0.0,0.0,0.0,0.0,0.0,0.0,0.0,0.0,0.0,0.0,0.0,0.0,0.0,0.0,0.0,0.0,0.0,0.0,0.0,0.0,0.0,0.0,0.0,0.0,0.0,0.0,0.0,0.0,0.0,0.0,0.0,0.0,0.0,0.0,0.0,0.0,0.0,0.0,0.0,0.0,0.0,0.0,0.0,0.0,0.0,0.0,0.0,0.0,0.0,0.0,0.0,0.0,0.0,0.0,0.0,0.0,0.0,0.0,0.0,0.0,0.0,0.0,0.0,0.0,0.0,0.0,0.0,0.0,0.0,0.0,0.0,0.0,0.0,0.0,0.0,0.0,0.0,0.0,0.0,0.0,0.0,0.0,0.0,0.0,0.0,0.0,0.0,0.0,0.0,0.0,0.0,0.0,0.0,0.0,0.0,0.0,0.0,0.0,0.0,0.0,0.0,0.0,0.0,0.0,0.0,0.0,0.0,0.0,0.0,0.0,0.0,0.0,0.0,0.0,0.0,0.0,0.0,0.0,0.0,0.0,0.0,0.0,0.0,0.0,0.0,0.0,0.0,0.0,0.0,0.0,0.0,0.0,0.0,0.0,0.0,0.0,0.0,0.0,0.0,0.0,0.0,0.0,0.0,0.0,0.0,0.0,0.0,0.0,0.0,0.0,0.0,0.0,0.0,0.0,0.0,0.0,0.0,0.0,0.0,0.0,0.0,0.0,0.0,0.0,0.0,0.0,0.0,0.0,0.0,0.0,0.0,0.0,0.0,0.0,0.0,0.0,0.0,0.0,0.0,0.0,0.0,0.0,0.0,0.0,0.0,0.0,0.0,0.0,0.0,0.0,0.0,0.0,0.0,0.0,0.0,0.0,0.0,0.0,0.0,0.0,0.0,0.0,0.0,0.0,0.0,0.0,0.0,0.0,0.0,0.0,0.0,0.0,0.0,0.0,0.0,0.0,0.0,0.0,0.0,0.0,0.0,0.0,0.0,0.0,0.0,0.0,0.0,0.0,0.0,0.0,0.0,0.0,0.0,0.0,0.0,0.0,0.0,0.0,0.0,0.0,0.0,0.0,0.0,0.0,0.0,0.0,0.0,0.0,0.0,0.0,0.0,0.0,0.0,0.0,0.0,0.0,0.0,0.0,0.0,0.0,0.0,0.0,0.0,0.0,0.0,0.0,0.0,0.0,0.0,0.0,0.0,0.0,0.0,0.0,0.0,0.0,0.0,0.0,0.0,0.0,0.0,0.0,0.0,0.0,0.0,0.0,0.0,0.0,0.0,0.0,0.0,0.0,0.0,0.0,0.0,0.0,0.0,0.0,0.0,0.0,0.0,0.0,0.0,0.0,0.0,0.0,0.0,0.0,0.0,0.0,0.0,0.0,0.0,0.0,0.0,0.0,0.0,0.0,0.0,0.0,0.0,0.0,0.0,0.0,0.0,0.0,0.0,0.0,0.0,0.0,0.0,0.0,0.0,0.0,0.0,0.0,0.0,0.0,0.0,0.0,0.0,0.0,0.0,0.0,0.0,0.0,0.0,0.0,0.0,0.0,0.0,0.0,0.0,0.0,0.0,0.0,0.0,0.0,0.0,0.0,0.0,0.0,0.0,0.0,0.0,0.0,0.0,0.0,0.0,0.0,0.0,0.0,0.0,0.0,0.0,0.0,0.0,0.0,0.0,0.0,0.0,0.0,0.0,0.0,0.0,0.0,0.0,0.0,0.0,0.0,0.0,0.0,0.0,0.0,0.0,0.0,0.0,0.0,0.0,0.0,0.0,0.0,0.0,0.0,0.0,0.0,0.0,0.0,0.0,0.0,0.0,0.0,0.0,0.0,0.0,0.0,0.0,0.0,0.0,0.0,0.0,0.0,0.0,0.0,0.0,0.0,0.0,0.0,0.0,0.0,0.0,0.0,0.0,0.0,0.0,0.0,0.0,0.0,0.0,0.0,0.0,0.0,0.0,0.0,0.0,0.0,0.0,0.0,0.0,0.0,0.0,0.0,0.0,0.0,0.0,0.0,0.0,0.0,0.0,0.0,0.0,0.0,0.0,0.0,0.0,0.0,0.0,0.0,0.0,0.0,0.0,0.0,0.0,0.0,0.0,0.0,0.0,0.0,0.0,0.0,0.0,0.0,0.0,0.0,0.0,0.0,0.0,0.0,0.0,0.0,0.0,0.0,0.0,0.0,0.0,0.0,0.0,0.0,0.0,0.0,0.0,0.0,0.0,0.0,0.0,0.0,0.0,0.0,0.0,0.0,0.0,0.0,0.0,0.0,0.0,0.0,0.0,0.0,0.0,0.0,0.0,0.0,0.0,0.0,0.0,0.0,0.0,0.0,0.0,0.0,0.0,0.0,0.0,0.0,0.0,0.0,0.0,0.0,0.0,0.0,0.0,0.0,0.0,0.0,0.0,0.0,0.0,0.0,0.0,0.0,0.0,0.0,1.3492,0.0,0.0,0.0,0.0,0.0,0.0,0.0,0.0,0.0,0.0,0.0,0.0,0.0,0.0,0.0,0.0,0.0,0.0,0.0,0.0,0.0,0.0,0.0,0.0,0.0,0.0,0.0,0.0,0.0,0.0,0.0,0.0,0.0,0.0,0.0,0.0,0.0,0.0,0.0,0.0,0.0,0.0,0.0,0.0,0.0,0.0,0.0,0.0,0.0,0.0,0.0,0.0,0.0,0.0,0.0,0.0,0.0,0.0,0.0,0.0,0.0,0.0,0.0,0.0,0.0,0.0,0.0,0.0,0.0,0.0,0.0,0.0,0.0,0.0,0.0,0.0,0.0,0.0,0.0,0.0,0.0,0.0,0.0,0.0,0.0,0.0,0.0,0.0,0.0,0.0,0.0,0.0,0.0,0.0,0.0,0.0,0.0,0.0,0.0,0.0,0.0,0.0,0.0,0.0,0.0,0.0,0.0,0.0,0.0,0.0,1.2607,1.2682,1.3112,1.3603,1.4098,0.0,0.0,0.0,0.0,0.0,0.0,0.0,0.0,0.0,0.0,0.0,0.0,0.0,0.0,0.0,0.0,0.0,0.0,0.0,0.0,0.0,0.0,0.0,0.0,0.0,0.0,0.0,0.0,0.0,0.0,0.0,0.0,0.0,0.0,0.0,0.0,0.0,0.0,0.0,0.0,0.0,0.0,0.0,0.0,0.0,0.0,0.0,0.0,0.0,0.0,0.0,0.0,0.0,0.0,0.0,0.0,0.0,0.0,0.0,0.0,0.0,0.0,0.0,0.0,0.0,0.0,0.0,0.0,0.0,0.0,0.0,0.0,0.0,0.0,0.0,0.0,0.0,0.0,0.0,0.0,0.0,0.0,0.0,0.0,0.0,0.0,0.0,0.0,0.0,0.0,0.0,0.0,0.0,0.0,0.0,0.0,0.0,0.0,0.0,0.0,0.0,0.0,0.0,0.0,0.0,0.0,0.0,0.0,0.0,0.0,0.0,0.0,1.3288,1.3899,1.4844,0.0,0.0,0.0,0.0,0.0,0.0,0.0,0.0,0.0,0.0,0.0,0.0,0.0,0.0,0.0,0.0,0.0,0.0,0.0,0.0,0.0,0.0,0.0,0.0,0.0,0.0,0.0,0.0,0.0,0.0,0.0,0.0,0.0,0.0,0.0,0.0,0.0,0.0,0.0,0.0,0.0,0.0,0.0,0.0,0.0,0.0,0.0,0.0,0.0,0.0,0.0,0.0,0.0,0.0,0.0,0.0,0.0,0.0,0.0,0.0,0.0,0.0,0.0,0.0,0.0,0.0,0.0,0.0,0.0,0.0,0.0,0.0,0.0,0.0,0.0,0.0,0.0,0.0,0.0,0.0,0.0,0.0,0.0,0.0,0.0,0.0,0.0,0.0,0.0,0.0,0.0,0.0,0.0,0.0,0.0,0.0,0.0,0.0,0.0,0.0,0.0,0.0,0.0,0.0,0.0,0.0,0.0,0.0,0.0,0.0,1.3233,1.3522,1.3702,0.0,1.585,0.0,0.0,0.0,0.0,0.0,0.0,0.0,0.0,0.0,0.0,0.0,0.0,0.0,0.0,0.0,0.0,0.0,0.0,0.0,0.0,0.0,0.0,0.0,0.0,0.0,0.0,0.0,0.0,0.0,0.0,0.0,0.0,0.0,0.0,0.0,0.0,0.0,0.0,0.0,0.0,0.0,0.0,0.0,0.0,0.0,0.0,0.0,0.0,0.0,0.0,0.0,0.0,0.0,0.0,0.0,0.0,0.0,0.0,0.0,0.0,0.0,0.0,0.0,0.0,0.0,0.0,0.0,0.0,0.0,0.0,0.0,0.0,0.0,0.0,0.0,0.0,0.0,0.0,0.0,0.0,0.0,0.0,0.0,0.0,0.0,0.0,0.0,0.0,0.0,0.0,0.0,0.0,0.0,0.0,0.0,0.0,0.0,0.0,0.0,0.0,0.0,0.0,0.0,0.0,0.0,0.0,0.0,0.0,0.0,0.0,1.3758,1.3807,1.4665,1.5258,0.0,0.0,0.0,0.0,0.0,0.0,0.0,0.0,0.0,0.0,0.0,0.0,0.0,0.0,0.0,0.0,0.0,0.0,0.0,0.0,0.0,0.0,0.0,0.0,0.0,0.0,0.0,0.0,0.0,0.0,0.0,0.0,0.0,0.0,0.0,0.0,0.0,0.0,0.0,0.0,0.0,0.0,0.0,0.0,0.0,0.0,0.0,0.0,0.0,0.0,0.0,0.0,0.0,0.0,0.0,0.0,0.0,0.0,0.0,0.0,0.0,0.0,0.0,0.0,0.0,0.0,0.0,0.0,0.0,0.0,0.0,0.0,0.0,0.0,0.0,0.0,0.0,0.0,0.0,0.0,0.0,0.0,0.0,0.0,0.0,0.0,0.0,0.0,0.0,0.0,0.0,0.0,0.0,0.0,0.0,0.0,0.0,0.0,0.0,0.0,0.0,0.0,0.0,0.0,0.0,0.0,0.0,0.0,0.0,0.0,1.4415,1.425,1.4074,1.5322,1.5829,1.5464,0.0,0.0,0.0,0.0,0.0,0.0,0.0,0.0,0.0,0.0,0.0,0.0,0.0,0.0,0.0,0.0,0.0,0.0,0.0,0.0,0.0,0.0,0.0,0.0,0.0,0.0,0.0,0.0,0.0,0.0,0.0,0.0,0.0,0.0,0.0,0.0,0.0,0.0,0.0,0.0,0.0,0.0,0.0,0.0,0.0,0.0,0.0,0.0,0.0,0.0,0.0,0.0,0.0,0.0,0.0,0.0,0.0,0.0,0.0,0.0,0.0,0.0,0.0,0.0,0.0,0.0,0.0,0.0,0.0,0.0,0.0,0.0,0.0,0.0,0.0,0.0,0.0,0.0,0.0,0.0,0.0,0.0,0.0,0.0,0.0,0.0,0.0,0.0,0.0,0.0,0.0,0.0,0.0,0.0,0.0,0.0,0.0,0.0,0.0,0.0,0.0,0.0,0.0,0.0,0.0,0.0,0.0,0.0,1.5288,1.4801,1.4416,1.4112,1.5258,1.5791,0.0,0.0,0.0,0.0,0.0,0.0,0.0,0.0,0.0,0.0,0.0,0.0,0.0,0.0,0.0,0.0,0.0,0.0,0.0,0.0,0.0,0.0,0.0,0.0,0.0,0.0,0.0,0.0,0.0,0.0,0.0,0.0,0.0,0.0,0.0,0.0,0.0,0.0,0.0,0.0,0.0,0.0,0.0,0.0,0.0,0.0,0.0,0.0,0.0,0.0,0.0,0.0,0.0,0.0,0.0,0.0,0.0,0.0,0.0,0.0,0.0,0.0,0.0,0.0,0.0,0.0,0.0,0.0,0.0,0.0,0.0,0.0,0.0,0.0,0.0,0.0,0.0,0.0,0.0,0.0,0.0,0.0,0.0,0.0,0.0,0.0,0.0,0.0,0.0,0.0,0.0,0.0,0.0,0.0,0.0,0.0,0.0,0.0,0.0,0.0,0.0,0.0,0.0,0.0,0.0,0.0,0.0,0.0,0.0,1.4932,1.4448,1.4245,1.4256,1.5126,1.5768,0.0,0.0,0.0,0.0,0.0,0.0,0.0,0.0,0.0,0.0,0.0,0.0,0.0,0.0,0.0,0.0,0.0,0.0,0.0,0.0,0.0,0.0,0.0,0.0,0.0,0.0,0.0,0.0,0.0,0.0,0.0,0.0,0.0,0.0,0.0,0.0,0.0,0.0,0.0,0.0,0.0,0.0,0.0,0.0,0.0,0.0,0.0,0.0,0.0,0.0,0.0,0.0,0.0,0.0,0.0,0.0,0.0,0.0,0.0,0.0,0.0,0.0,0.0,0.0,0.0,0.0,0.0,0.0,0.0,0.0,0.0,0.0,0.0,0.0,0.0,0.0,0.0,0.0,0.0,0.0,0.0,0.0,0.0,0.0,0.0,0.0,0.0,0.0,0.0,0.0,0.0,0.0,0.0,0.0,0.0,0.0,0.0,0.0,0.0,0.0,0.0,0.0,0.0,0.0,0.0,0.0,0.0,0.0,0.0,1.465,0.0,1.4036,1.4253,1.491,1.5502,0.0,0.0,0.0,0.0,0.0,0.0,0.0,0.0,0.0,0.0,0.0,0.0,0.0,0.0,0.0,0.0,0.0,0.0,0.0,0.0,0.0,0.0,0.0,0.0,0.0,0.0,0.0,0.0,0.0,0.0,0.0,0.0,0.0,0.0,0.0,0.0,0.0,0.0,0.0,0.0,0.0,0.0,0.0,0.0,0.0,0.0,0.0,0.0,0.0,0.0,0.0,0.0,0.0,0.0,0.0,0.0,0.0,0.0,0.0,0.0,0.0,0.0,0.0,0.0,0.0,0.0,0.0,0.0,0.0,0.0,0.0,0.0,0.0,0.0,0.0,0.0,0.0,0.0,0.0,0.0,0.0,0.0,0.0,0.0,0.0,0.0,0.0,0.0,0.0,0.0,0.0,0.0,0.0,0.0,0.0,0.0,0.0,0.0,0.0,0.0,0.0,0.0,0.0,0.0,0.0,0.0,0.0,0.0,1.6292,1.4634,1.3988,1.3901,1.4189,1.4684,1.5098,0.0,0.0,0.0,0.0,0.0,0.0,0.0,0.0,0.0,0.0,0.0,0.0,0.0,0.0,0.0,0.0,0.0,0.0,0.0,0.0,0.0,0.0,0.0,0.0,0.0,0.0,0.0,0.0,0.0,0.0,0.0,0.0,0.0,0.0,0.0,0.0,0.0,0.0,0.0,0.0,0.0,0.0,0.0,0.0,0.0,0.0,0.0,0.0,0.0,0.0,0.0,0.0,0.0,0.0,0.0,0.0,0.0,0.0,0.0,0.0,0.0,0.0,0.0,0.0,0.0,0.0,0.0,0.0,0.0,0.0,0.0,0.0,0.0,0.0,0.0,0.0,0.0,0.0,0.0,0.0,0.0,0.0,0.0,0.0,0.0,0.0,0.0,0.0,0.0,0.0,0.0,0.0,0.0,0.0,0.0,0.0,0.0,0.0,0.0,0.0,0.0,0.0,0.0,0.0,0.0,0.0,0.0,0.0,0.0,1.4417,1.391,1.4141,1.5025,1.509,1.5703,0.0,0.0,0.0,0.0,0.0,0.0,0.0,0.0,0.0,0.0,0.0,0.0,0.0,0.0,0.0,0.0,0.0,0.0,0.0,0.0,0.0,0.0,0.0,0.0,0.0,0.0,0.0,0.0,0.0,0.0,0.0,0.0,0.0,0.0,0.0,0.0,0.0,0.0,0.0,0.0,0.0,0.0,0.0,0.0,0.0,0.0,0.0,0.0,0.0,0.0,0.0,0.0,0.0,0.0,0.0,0.0,0.0,0.0,0.0,0.0,0.0,0.0,0.0,0.0,0.0,0.0,0.0,0.0,0.0,0.0,0.0,0.0,0.0,0.0,0.0,0.0,0.0,0.0,0.0,0.0,0.0,0.0,0.0,0.0,0.0,0.0,0.0,0.0,0.0,0.0,0.0,0.0,0.0,0.0,0.0,0.0,0.0,0.0,0.0,0.0,0.0,0.0,0.0,0.0,0.0,0.0,0.0,0.0,0.0,1.4266,1.4177,1.461,1.5505,1.5504,1.6226,1.7653,0.0,0.0,0.0,0.0,0.0,0.0,0.0,0.0,0.0,0.0,0.0,0.0,0.0,0.0,0.0,0.0,0.0,0.0,0.0,0.0,0.0,0.0,0.0,0.0,0.0,0.0,0.0,0.0,0.0,0.0,0.0,0.0,0.0,0.0,0.0,0.0,0.0,0.0,0.0,0.0,0.0,0.0,0.0,0.0,0.0,0.0,0.0,0.0,0.0,0.0,0.0,0.0,0.0,0.0,0.0,0.0,0.0,0.0,0.0,0.0,0.0,0.0,0.0,0.0,0.0,0.0,0.0,0.0,0.0,0.0,0.0,0.0,0.0,0.0,0.0,0.0,0.0,0.0,0.0,0.0,0.0,0.0,0.0,0.0,0.0,0.0,0.0,0.0,0.0,0.0,0.0,0.0,0.0,0.0,0.0,0.0,0.0,0.0,0.0,0.0,0.0,0.0,0.0,0.0,0.0,0.0,0.0,0.0,1.4261,1.4791,1.5242,1.5552,1.5845,1.6573,0.0,0.0,0.0,0.0,0.0,0.0,0.0,0.0,0.0,0.0,0.0,0.0,0.0,0.0,0.0,0.0,0.0,0.0,0.0,0.0,0.0,0.0,0.0,0.0,0.0,0.0,0.0,0.0,0.0,0.0,0.0,0.0,0.0,0.0,0.0,0.0,0.0,0.0,0.0,0.0,0.0,0.0,0.0,0.0,0.0,0.0,0.0,0.0,0.0,0.0,0.0,0.0,0.0,0.0,0.0,0.0,0.0,0.0,0.0,0.0,0.0,0.0,0.0,0.0,0.0,0.0,0.0,0.0,0.0,0.0,0.0,0.0,0.0,0.0,0.0,0.0,0.0,0.0,0.0,0.0,0.0,0.0,0.0,0.0,0.0,0.0,0.0,0.0,0.0,0.0,0.0,0.0,0.0,0.0,0.0,0.0,0.0,0.0,0.0,0.0,0.0,0.0,0.0,0.0,0.0,0.0,0.0,0.0,0.0,1.603,1.6323,1.6297,1.6054,1.6214,1.7144,0.0,0.0,0.0,0.0,0.0,0.0,0.0,0.0,0.0,0.0,0.0,0.0,0.0,0.0,0.0,0.0,0.0,0.0,0.0,0.0,0.0,0.0,0.0,0.0,0.0,0.0,0.0,0.0,0.0,0.0,0.0,0.0,0.0,0.0,0.0,0.0,0.0,0.0,0.0,0.0,0.0,0.0,0.0,0.0,0.0,0.0,0.0,0.0,0.0,0.0,0.0,0.0,0.0,0.0,0.0,0.0,0.0,0.0,0.0,0.0,0.0,0.0,0.0,0.0,0.0,0.0,0.0,0.0,0.0,0.0,0.0,0.0,0.0,0.0,0.0,0.0,0.0,0.0,0.0,0.0,0.0,0.0,0.0,0.0,0.0,0.0,0.0,0.0,0.0,0.0,0.0,0.0,0.0,0.0,0.0,0.0,0.0,0.0,0.0,0.0,0.0,0.0,0.0,0.0,0.0,0.0,0.0,0.0,1.7548,1.6794,1.7027,1.7082,1.6942,1.7556,1.8609,0.0,0.0,0.0,0.0,0.0,0.0,0.0,0.0,0.0,0.0,0.0,0.0,0.0,0.0,0.0,0.0,0.0,0.0,0.0,0.0,0.0,0.0,0.0,0.0,0.0,0.0,0.0,0.0,0.0,0.0,0.0,0.0,0.0,0.0,0.0,0.0,0.0,0.0,0.0,0.0,0.0,0.0,0.0,0.0,0.0,0.0,0.0,0.0,0.0,0.0,0.0,0.0,0.0,0.0,0.0,0.0,0.0,0.0,0.0,0.0,0.0,0.0,0.0,0.0,0.0,0.0,0.0,0.0,0.0,0.0,0.0,0.0,0.0,0.0,0.0,0.0,0.0,0.0,0.0,0.0,0.0,0.0,0.0,0.0,0.0,0.0,0.0,0.0,0.0,0.0,0.0,0.0,0.0,0.0,0.0,0.0,0.0,0.0,0.0,0.0,0.0,0.0,0.0,0.0,0.0,0.0,0.0,0.0,1.8319,1.7397,1.7543,1.784,1.8147,1.9347,2.0301,0.0,0.0,0.0,0.0,0.0,0.0,0.0,0.0,0.0,0.0,0.0,0.0,0.0,0.0,0.0,0.0,0.0,0.0,0.0,0.0,0.0,0.0,0.0,0.0,0.0,0.0,0.0,0.0,0.0,0.0,0.0,0.0,0.0,0.0,0.0,0.0,0.0,0.0,0.0,0.0,0.0,0.0,0.0,0.0,0.0,0.0,0.0,0.0,0.0,0.0,0.0,0.0,0.0,0.0,0.0,0.0,0.0,0.0,0.0,0.0,0.0,0.0,0.0,0.0,0.0,0.0,0.0,0.0,0.0,0.0,0.0,0.0,0.0,0.0,0.0,0.0,0.0,0.0,0.0,0.0,0.0,0.0,0.0,0.0,0.0,0.0,0.0,0.0,0.0,0.0,0.0,0.0,0.0,0.0,0.0,0.0,0.0,0.0,0.0,0.0,0.0,0.0,0.0,0.0,0.0,0.0,0.0,0.0,1.972,1.9622,1.946,1.9495,1.9808,1.9883,2.041,0.0,0.0,0.0,0.0,0.0,0.0,0.0,0.0,0.0,0.0,0.0,0.0,0.0,0.0,0.0,0.0,0.0,0.0,0.0,0.0,0.0,0.0,0.0,0.0,0.0,0.0,0.0,0.0,0.0,0.0,0.0,0.0,0.0,0.0,0.0,0.0,0.0,0.0,0.0,0.0,0.0,0.0,0.0,0.0,0.0,0.0,0.0,0.0,2.0284,0.0,0.0,0.0,0.0,0.0,0.0,0.0,0.0,0.0,0.0,0.0,0.0,0.0,0.0,0.0,0.0,0.0,0.0,0.0,0.0,0.0,0.0,0.0,0.0,0.0,0.0,0.0,0.0,0.0,0.0,0.0,0.0,0.0,0.0,0.0,0.0,0.0,0.0,0.0,0.0,0.0,0.0,0.0,0.0,0.0,0.0,0.0,0.0,0.0,0.0,0.0,0.0,0.0,0.0,0.0,0.0,0.0,0.0,0.0,2.0858,2.0563,2.0501,2.046,2.0619,2.1043,2.1586,0.0,0.0,0.0,0.0,0.0,0.0,0.0,0.0,0.0,0.0,0.0,0.0,0.0,0.0,0.0,0.0,0.0,0.0,0.0,0.0,0.0,0.0,0.0,0.0,0.0,0.0,0.0,0.0,0.0,0.0,0.0,0.0,0.0,0.0,0.0,0.0,0.0,0.0,0.0,0.0,0.0,0.0,0.0,0.0,0.0,0.0,0.0,0.0,0.0,0.0,0.0,0.0,0.0,0.0,0.0,0.0,0.0,0.0,0.0,0.0,0.0,0.0,0.0,0.0,0.0,0.0,0.0,0.0,0.0,0.0,0.0,0.0,0.0,0.0,0.0,0.0,0.0,0.0,0.0,0.0,0.0,0.0,0.0,0.0,0.0,0.0,0.0,0.0,0.0,0.0,0.0,0.0,0.0,0.0,0.0,0.0,0.0,0.0,0.0,0.0,0.0,0.0,0.0,0.0,0.0,0.0,0.0,2.2456,2.1905,2.1307,2.132,2.1285,2.133,2.2434,2.3167,2.3424,0.0,0.0,0.0,0.0,0.0,0.0,0.0,0.0,0.0,0.0,0.0,0.0,0.0,0.0,0.0,0.0,0.0,0.0,0.0,0.0,0.0,0.0,0.0,0.0,0.0,0.0,0.0,0.0,0.0,0.0,0.0,0.0,0.0,0.0,0.0,0.0,0.0,0.0,2.4732,2.4707,0.0,0.0,0.0,0.0,0.0,0.0,0.0,0.0,2.1553,0.0,0.0,0.0,0.0,0.0,0.0,0.0,0.0,0.0,0.0,0.0,0.0,0.0,0.0,0.0,0.0,0.0,0.0,0.0,0.0,0.0,0.0,0.0,0.0,0.0,0.0,0.0,0.0,0.0,0.0,0.0,0.0,0.0,0.0,0.0,0.0,0.0,0.0,0.0,0.0,0.0,0.0,0.0,0.0,0.0,0.0,0.0,0.0,0.0,0.0,0.0,0.0,0.0,0.0,0.0,0.0,2.4653,2.3837,2.3276,2.2981,2.2814,2.2886,2.312,2.3671,2.4292,2.4796,0.0,0.0,0.0,0.0,0.0,0.0,0.0,0.0,0.0,0.0,0.0,0.0,0.0,0.0,0.0,0.0,0.0,0.0,0.0,0.0,0.0,0.0,0.0,0.0,0.0,0.0,0.0,0.0,0.0,0.0,0.0,0.0,0.0,0.0,0.0,0.0,0.0,0.0,0.0,2.6042,2.5525,0.0,0.0,0.0,0.0,0.0,0.0,0.0,0.0,2.1728,0.0,0.0,0.0,0.0,0.0,0.0,0.0,0.0,0.0,0.0,0.0,0.0,0.0,0.0,0.0,0.0,0.0,0.0,0.0,0.0,0.0,0.0,0.0,0.0,0.0,0.0,0.0,0.0,0.0,0.0,0.0,0.0,0.0,0.0,0.0,0.0,0.0,0.0,0.0,0.0,0.0,0.0,0.0,0.0,0.0,0.0,0.0,0.0,0.0,0.0,0.0,0.0,0.0,0.0,0.0,2.5219,2.4799,2.445,2.4191,2.3779,2.3643,2.3745,2.4073,2.4425,0.0,0.0,0.0,0.0,0.0,0.0,0.0,0.0,0.0,0.0,0.0,0.0,0.0,0.0,0.0,0.0,0.0,0.0,0.0,0.0,0.0,0.0,0.0,0.0,0.0,0.0,0.0,0.0,0.0,0.0,0.0,0.0,0.0,0.0,0.0,0.0,0.0,0.0,0.0,0.0,2.7461,2.719,2.6557,0.0,0.0,0.0,0.0,0.0,0.0,2.1971,2.1897,0.0,0.0,0.0,0.0,0.0,0.0,0.0,0.0,0.0,0.0,0.0,0.0,0.0,0.0,0.0,0.0,0.0,0.0,0.0,0.0,0.0,0.0,0.0,0.0,0.0,0.0,0.0,0.0,0.0,0.0,0.0,0.0,0.0,0.0,0.0,0.0,0.0,0.0,0.0,0.0,0.0,0.0,0.0,0.0,0.0,0.0,0.0,0.0,0.0,0.0,0.0,0.0,0.0,0.0,0.0,2.5544,2.5621,2.5532,2.52,2.4644,2.4392,2.4428,2.4589,2.4738,0.0,0.0,0.0,0.0,0.0,0.0,0.0,0.0,0.0,0.0,0.0,0.0,0.0,0.0,0.0,0.0,0.0,0.0,0.0,0.0,0.0,0.0,0.0,0.0,0.0,0.0,0.0,0.0,0.0,0.0,0.0,0.0,0.0,0.0,0.0,0.0,0.0,0.0,0.0,0.0,0.0,2.8615,2.7885,2.7664,0.0,0.0,0.0,0.0,2.2988,2.264,0.0,0.0,0.0,0.0,0.0,0.0,0.0,0.0,0.0,0.0,0.0,0.0,0.0,0.0,0.0,0.0,0.0,0.0,0.0,0.0,0.0,0.0,0.0,0.0,0.0,0.0,0.0,0.0,0.0,0.0,0.0,0.0,0.0,0.0,0.0,0.0,0.0,0.0,0.0,0.0,0.0,0.0,0.0,0.0,0.0,0.0,0.0,0.0,0.0,0.0,0.0,0.0,0.0,0.0,0.0,0.0,2.6205,2.6376,2.6376,2.6189,2.5838,2.5744,2.6018,2.6232,2.6256,0.0,0.0,0.0,0.0,0.0,0.0,0.0,0.0,0.0,0.0,0.0,0.0,0.0,0.0,0.0,0.0,0.0,0.0,0.0,0.0,0.0,0.0,0.0,0.0,0.0,0.0,0.0,0.0,0.0,0.0,0.0,0.0,0.0,0.0,0.0,0.0,0.0,0.0,0.0,0.0,0.0,2.942,2.8904,2.8454,2.7948,0.0,0.0,2.5121,2.5319,2.4614,0.0,0.0,0.0,0.0,0.0,0.0,0.0,0.0,0.0,0.0,0.0,0.0,0.0,0.0,0.0,0.0,0.0,0.0,0.0,0.0,0.0,0.0,0.0,0.0,0.0,0.0,0.0,0.0,0.0,0.0,0.0,0.0,0.0,0.0,0.0,0.0,0.0,0.0,0.0,0.0,0.0,0.0,0.0,0.0,0.0,0.0,0.0,0.0,0.0,0.0,0.0,0.0,0.0,0.0,0.0,2.7687,2.7621,2.7643,2.7715,2.7795,2.741,2.7211,2.7276,2.7207,2.7032,0.0,0.0,0.0,0.0,0.0,0.0,0.0,0.0,0.0,0.0,0.0,0.0,0.0,0.0,0.0,0.0,0.0,0.0,0.0,0.0,0.0,0.0,0.0,0.0,0.0,0.0,0.0,0.0,0.0,0.0,0.0,0.0,0.0,0.0,0.0,0.0,0.0,0.0,0.0,0.0,0.0,0.0,3.0141,2.999,0.0,0.0,0.0,2.6875,2.622,0.0,0.0,0.0,0.0,0.0,0.0,0.0,0.0,0.0,0.0,0.0,0.0,0.0,0.0,0.0,0.0,0.0,0.0,0.0,0.0,0.0,0.0,0.0,0.0,0.0,0.0,0.0,0.0,0.0,0.0,0.0,0.0,0.0,0.0,0.0,0.0,0.0,0.0,0.0,0.0,0.0,0.0,0.0,0.0,0.0,0.0,0.0,0.0,0.0,0.0,0.0,0.0,0.0,0.0,0.0,0.0,0.0,2.8832,2.8809,2.8934,2.9187,2.8791,2.8549,2.8449,2.814,0.0,0.0,0.0,0.0,0.0,0.0,0.0,0.0,0.0,0.0,0.0,0.0,0.0,0.0,0.0,0.0,0.0,0.0,0.0,0.0,0.0,0.0,0.0,0.0,0.0,0.0,0.0,2.8279,0.0,0.0,0.0,0.0,0.0,0.0,0.0,0.0,0.0,0.0,0.0,0.0,0.0,0.0,3.0275,3.1004,3.1089,3.0801,0.0,0.0,2.8512,2.7512,2.7068,2.6636,0.0,0.0,0.0,0.0,0.0,0.0,0.0,0.0,0.0,0.0,0.0,0.0,0.0,0.0,0.0,0.0,0.0,0.0,0.0,0.0,0.0,0.0,0.0,0.0,0.0,0.0,0.0,0.0,0.0,0.0,0.0,0.0,0.0,0.0,0.0,0.0,0.0,0.0,0.0,0.0,0.0,0.0,0.0,0.0,0.0,0.0,0.0,0.0,0.0,0.0,0.0,0.0,0.0,0.0,2.9451,2.946,2.9557,2.9755,2.9976,2.9629,2.9528,2.9785,2.9115,2.842,0.0,0.0,0.0,0.0,0.0,0.0,0.0,0.0,0.0,0.0,0.0,0.0,0.0,0.0,0.0,0.0,0.0,0.0,0.0,0.0,0.0,0.0,0.0,0.0,0.0,0.0,0.0,0.0,0.0,0.0,0.0,0.0,0.0,0.0,0.0,0.0,0.0,0.0,0.0,0.0,0.0,3.0559,3.1105,3.146,3.1913,0.0,3.1181,3.0022,3.0123,2.938,2.8333,2.6911,0.0,0.0,0.0,0.0,0.0,0.0,0.0,0.0,0.0,0.0,0.0,0.0,0.0,0.0,0.0,0.0,0.0,0.0,0.0,0.0,0.0,0.0,0.0,0.0,0.0,0.0,0.0,0.0,0.0,0.0,0.0,0.0,0.0,0.0,0.0,0.0,0.0,0.0,0.0,0.0,0.0,0.0,0.0,0.0,0.0,0.0,0.0,0.0,0.0,0.0,0.0,0.0,0.0,3.0606,3.0124,3.0754,3.087,3.0326,3.0641,3.0701,3.0441,3.008,2.967,0.0,0.0,0.0,0.0,0.0,0.0,0.0,0.0,0.0,0.0,0.0,0.0,0.0,0.0,0.0,0.0,0.0,0.0,0.0,0.0,0.0,0.0,0.0,0.0,0.0,0.0,0.0,0.0,2.9909,3.0091,2.9577,0.0,0.0,0.0,0.0,0.0,0.0,0.0,0.0,0.0,0.0,3.1291,3.2219,3.2503,0.0,0.0,3.1591,3.083,3.0787,2.9944,2.9033,2.8237,2.7408,0.0,0.0,0.0,0.0,0.0,0.0,0.0,0.0,0.0,0.0,0.0,0.0,0.0,0.0,0.0,0.0,0.0,0.0,0.0,0.0,0.0,0.0,0.0,0.0,0.0,0.0,0.0,0.0,0.0,0.0,0.0,0.0,0.0,0.0,0.0,0.0,0.0,0.0,0.0,0.0,0.0,0.0,0.0,0.0,0.0,0.0,0.0,0.0,0.0,0.0,0.0,0.0,3.1445,3.0898,3.1665,3.174,3.1092,3.1633,3.1784,3.1495,3.1083,3.074,0.0,0.0,0.0,0.0,0.0,0.0,0.0,0.0,0.0,0.0,0.0,0.0,0.0,0.0,0.0,0.0,0.0,0.0,0.0,0.0,0.0,0.0,0.0,0.0,0.0,0.0,0.0,0.0,3.0352,3.0578,3.0532,0.0,0.0,0.0,0.0,0.0,0.0,0.0,0.0,0.0,0.0,3.2009,3.3299,3.352,3.3422,3.3194,3.242,3.1806,3.1561,3.0695,2.9869,2.923,0.0,0.0,0.0,0.0,0.0,0.0,0.0,0.0,0.0,0.0,0.0,0.0,0.0,0.0,0.0,0.0,0.0,0.0,0.0,0.0,0.0,0.0,0.0,0.0,0.0,0.0,0.0,0.0,0.0,0.0,3.5796,0.0,0.0,0.0,0.0,0.0,0.0,0.0,0.0,0.0,0.0,0.0,0.0,0.0,0.0,0.0,0.0,0.0,0.0,0.0,0.0,0.0,0.0,3.1794,3.1769,3.2017,3.2279,3.2506,3.2645,3.2762,3.3001,3.2098,3.1494,3.1263,0.0,0.0,0.0,0.0,0.0,0.0,0.0,0.0,0.0,0.0,0.0,0.0,0.0,0.0,0.0,0.0,0.0,0.0,0.0,0.0,0.0,0.0,0.0,0.0,0.0,0.0,3.0261,3.0431,3.0802,0.0,0.0,0.0,0.0,0.0,0.0,0.0,0.0,0.0,0.0,3.1744,3.2657,3.4167,3.4337,3.4414,3.4924,3.3866,3.2927,3.2707,3.1981,3.1063,0.0,0.0,0.0,0.0,0.0,0.0,0.0,0.0,0.0,0.0,0.0,0.0,0.0,0.0,0.0,0.0,0.0,0.0,0.0,0.0,0.0,0.0,0.0,0.0,0.0,0.0,0.0,3.629,3.6259,0.0,0.0,0.0,0.0,0.0,0.0,0.0,0.0,0.0,0.0,0.0,3.6151,3.59,0.0,0.0,0.0,0.0,0.0,0.0,0.0,0.0,0.0,0.0,0.0,0.0,3.2275,3.1962,3.2275,3.2446,3.2421,3.2815,3.3116,3.3308,3.2802,3.2194,3.1472,0.0,0.0,0.0,0.0,0.0,0.0,0.0,0.0,0.0,0.0,0.0,0.0,0.0,0.0,0.0,0.0,0.0,0.0,0.0,0.0,0.0,0.0,0.0,0.0,0.0,3.135,0.0,0.0,0.0,0.0,0.0,0.0,0.0,0.0,0.0,0.0,0.0,3.1609,3.2686,3.3184,3.3875,3.5016,3.5039,3.4902,0.0,0.0,0.0,0.0,0.0,0.0,0.0,0.0,0.0,0.0,0.0,0.0,0.0,0.0,2.8462,2.7262,2.629,2.5536,2.5083,0.0,0.0,0.0,0.0,0.0,0.0,0.0,0.0,0.0,0.0,0.0,0.0,0.0,0.0,3.7947,0.0,3.7971,0.0,0.0,0.0,0.0,0.0,0.0,0.0,0.0,3.6946,3.6872,3.7061,3.7001,3.6805,0.0,3.6726,3.6328,0.0,0.0,0.0,0.0,0.0,0.0,0.0,0.0,3.2998,3.2712,3.2829,3.284,3.2697,3.337,3.3759,3.3807,3.3682,3.3178,3.2227,3.284,3.2835,0.0,0.0,0.0,0.0,0.0,0.0,0.0,0.0,0.0,0.0,0.0,0.0,0.0,0.0,0.0,0.0,0.0,0.0,0.0,0.0,0.0,0.0,0.0,3.1734,0.0,0.0,0.0,0.0,0.0,0.0,0.0,0.0,0.0,3.1484,3.1983,3.2726,3.3601,3.4196,3.4731,3.5384,0.0,0.0,0.0,0.0,0.0,0.0,0.0,3.2304,3.2337,3.1615,3.0869,3.0361,3.0225,2.992,2.9291,0.0,0.0,2.8442,2.7575,2.6861,2.6425,2.5839,2.4989,2.3737,2.3112,2.2409,0.0,0.0,0.0,0.0,0.0,0.0,0.0,0.0,3.9258,3.9275,0.0,3.9456,0.0,0.0,0.0,0.0,0.0,3.8378,0.0,0.0,3.8202,3.824,3.8254,3.824,3.824,3.8283,3.8783,3.8381,3.7275,3.5987,0.0,0.0,0.0,0.0,0.0,0.0,3.393,3.3876,3.3683,3.3505,3.3385,3.4199,3.4642,3.4552,3.4658,3.4357,3.3613,3.3905,3.382,3.3234,3.3505,0.0,0.0,0.0,0.0,0.0,0.0,0.0,0.0,0.0,0.0,0.0,0.0,0.0,0.0,0.0,0.0,0.0,0.0,0.0,0.0,3.14,0.0,0.0,0.0,0.0,0.0,0.0,0.0,0.0,0.0,0.0,3.1869,3.2419,3.3109,3.3896,0.0,0.0,0.0,0.0,3.5757,3.4942,3.4798,3.48,3.4812,3.4102,3.3494,3.3529,0.0,0.0,3.2086,3.0964,3.0116,2.9624,2.9569,2.9476,2.9362,2.8934,2.8395,2.7685,2.7115,2.6302,2.4905,2.4101,2.33,4.3545,0.0,0.0,0.0,0.0,4.1318,4.1807,4.2783,4.2138,4.171,4.1448,4.0572,0.0,0.0,0.0,0.0,0.0,0.0,3.8811,3.8972,3.8892,3.898,3.9286,3.9111,3.9053,3.9023,3.875,3.8259,3.7638,3.6793,3.6226,3.5923,0.0,0.0,0.0,0.0,3.4231,3.4034,3.3738,3.3747,3.4074,3.4337,3.4766,3.5347,3.5689,3.5438,3.4539,3.4553,3.4126,3.3132,3.351,0.0,0.0,0.0,0.0,0.0,0.0,0.0,0.0,0.0,0.0,0.0,0.0,0.0,0.0,0.0,0.0,0.0,0.0,0.0,3.2523,3.2288,3.2418,0.0,0.0,0.0,0.0,0.0,0.0,0.0,0.0,0.0,3.3152,3.3214,3.3524,0.0,0.0,3.5529,3.5956,3.6095,3.6054,3.5625,3.5399,0.0,0.0,3.4429,3.4012,3.4004,3.3603,3.3111,3.2746,3.1839,3.1072,3.0563,2.993,2.9375,2.9052,2.8874,2.8672,2.8415,2.7873,2.6991,2.5892,2.5052,2.3973,4.721,4.5774,4.4516,4.4341,4.4736,4.4047,4.4302,4.5117,4.4275,4.3593,4.3027,4.2693,4.1611,4.0005,3.9555,0.0,0.0,0.0,3.9894,3.9799,3.9975,4.0111,4.0126,3.9732,3.9505,3.9405,3.8696,3.8157,3.7828,3.7372,3.7022,3.6744,0.0,0.0,3.5733,3.5178,3.4844,3.4683,3.4312,3.4232,3.4501,3.4689,3.5223,3.6146,3.6427,3.621,3.5543,3.5595,3.5047,3.3792,3.4176,3.426,0.0,0.0,0.0,0.0,0.0,0.0,0.0,0.0,0.0,0.0,0.0,3.4675,3.4799,0.0,0.0,0.0,3.4046,3.3794,3.3489,3.3317,0.0,0.0,0.0,0.0,0.0,0.0,0.0,3.4005,3.4086,3.3992,3.3667,3.3717,3.3947,3.4303,3.5022,3.5504,3.559,0.0,3.582,3.5423,3.5385,3.5341,3.5194,3.4767,3.4512,3.461,3.3734,3.3134,3.3296,3.2386,3.1459,3.0879,3.0114,2.9347,2.8834,2.844,2.83,2.8429,2.8093,2.7401,2.6351,2.5603,2.4587,4.9939,4.9812,4.7817,4.7076,4.7169,4.6303,4.6188,4.6499,4.5757,4.4945,4.431,4.5232,4.4231,4.1788,4.1395,0.0,4.0576,4.1398,4.1363,4.0703,4.1247,4.1231,4.0811,4.0044,3.9634,3.9449,3.8588,3.8101,3.7871,3.7691,3.7523,3.73,3.6584,3.6227,3.6249,3.586,3.5672,3.5634,3.5232,3.4942,3.4731,3.5185,3.5911,3.6872,3.7002,3.6874,3.658,3.6805,3.6332,3.5078,3.5325,3.5283,3.4866,0.0,0.0,0.0,0.0,0.0,0.0,0.0,0.0,0.0,0.0,0.0,0.0,0.0,0.0,0.0,3.503,0.0,3.4148,3.4326,0.0,0.0,0.0,3.4796,3.4475,3.4687,3.4794,3.4613,0.0,0.0,3.3657,3.3962,3.4352,3.4615,3.5069,3.5186,3.4717,3.5038,3.5153,3.4679,3.491,3.5179,3.4961,3.4775,3.4623,3.4777,3.3918,3.3197,3.3532,3.2554,3.1395,3.0855,3.0079,2.9351,2.8715,2.8019,2.7524,2.7839,2.7903,2.7569,2.6523,2.5847,2.5178,5.1194,5.1733,5.121,4.9667,4.7457,4.6565,4.6277,4.6384,4.6381,4.6229,4.6023,4.5526,4.4354,4.2764,4.2252,4.1949,4.1853,4.2173,4.2284,4.2205,4.158,4.123,4.1135,4.0167,3.955,3.9231,3.8543,3.8027,3.7724,3.72,3.6795,3.6508,3.6284,3.6454,3.6847,3.6544,3.627,3.6058,3.5929,3.5652,3.5141,3.6016,3.6646,3.6904,3.7842,3.8215,3.8022,3.7614,3.7147,3.6527,3.6433,3.6217,3.5784,3.6385,0.0,0.0,0.0,0.0,0.0,0.0,0.0,0.0,0.0,3.6573,3.673,0.0,3.6588,0.0,3.5325,3.4852,3.4904,3.4723,0.0,0.0,3.5217,3.5296,3.5631,3.5567,3.5486,3.5473,3.5404,3.5182,3.4799,3.4292,3.4172,3.4808,3.4984,3.5042,3.5098,3.4829,3.4595,3.4412,3.3853,3.3359,3.3411,3.3296,3.3271,3.3313,3.2981,3.2848,3.295,3.2086,3.1303,3.115,3.0416,2.9553,2.874,2.8407,2.7904,2.7217,2.7195,2.7304,2.6628,2.6389,2.5978,5.1944,5.2357,5.1635,5.0138,4.8182,4.7661,4.7476,4.7496,4.6932,4.6586,4.6392,4.5632,4.5065,4.4693,4.3751,4.3152,4.2862,4.3259,4.3259,4.2925,4.2624,4.219,4.1578,4.0639,3.9838,3.9183,3.8395,3.7941,3.7849,3.717,3.6938,3.7101,3.6492,3.6636,3.7484,3.6656,3.6372,3.6745,3.6745,3.6567,3.6205,3.6788,3.7406,3.8,3.84,3.8817,3.9172,3.862,3.8121,3.7813,3.7717,3.748,3.7218,3.7571,3.7734,0.0,0.0,0.0,0.0,0.0,0.0,0.0,0.0,0.0,0.0,0.0,3.7149,3.6576,3.6099,3.5854,3.5866,3.5656,3.5664,3.6032,3.5913,3.5866,3.603,3.6045,3.6055,3.598,3.5945,3.5755,3.521,3.4932,3.4745,3.4827,3.5034,3.5036,3.466,3.4101,3.3639,3.3613,3.3104,3.2672,3.2672,3.2672,3.2672,3.2672,3.2672,3.2672,3.2672,3.2262,3.1864,3.1541,3.0782,2.9992,2.9253,2.8419,2.7698,2.7119,2.6753,2.6573,2.6365,2.631,2.6031,5.2426,5.2291,5.0932,4.9961,4.9326,4.9021,4.8856,4.8729,4.7486,4.672,4.6329,4.5815,4.5991,4.6566,4.5196,4.4253,4.3706,4.431,4.4126,4.3355,4.3777,4.3319,4.2101,4.1311,4.0317,3.9194,3.8395,3.8027,3.8059,3.7508,3.7594,3.8222,3.7011,3.694,3.7966,3.6565,3.6351,3.7458,3.7528,3.7573,3.7573,3.7614,3.8227,3.9284,3.8861,3.9029,3.9988,3.9511,3.9126,3.898,3.8929,3.8811,3.8554,3.8502,3.8362,0.0,3.8119,0.0,0.0,0.0,0.0,0.0,0.0,0.0,0.0,3.7484,3.7298,3.6768,3.6926,3.6966,3.6694,3.666,3.6575,3.6439,3.6481,3.6403,3.6113,3.6336,3.6445,3.6274,3.6383,3.6148,3.5412,3.5614,3.5502,3.4965,3.4982,3.4785,3.403,3.3304,3.2843,3.262,3.2515,3.2333,3.2359,3.2411,3.2398,3.2437,3.2385,3.2476,3.2398,3.2424,3.2241,3.1772,3.1086,3.0412,2.9818,2.8514,2.7534,2.7272,2.6648,2.617,2.5981,2.595,2.5895,5.257,5.2553,5.2422,5.1923,5.1173,4.9913,4.859,4.7352,4.7952,4.7965,4.7525,4.6848,4.63,4.5855,4.5004,4.4542,4.4412,4.4542,4.4485,4.4281,4.3659,4.3194,4.2772,4.1931,4.0717,3.9279,3.9524,3.9064,3.7943,3.8286,3.8467,3.8463,3.7706,3.7597,3.7996,0.0,0.0,0.0,3.8269,3.8471,3.8467,3.8822,3.9119,3.9373,3.9433,0.0,3.9775,3.9807,3.9803,3.9783,3.961,0.0,0.0,0.0,0.0,0.0,0.0,0.0,0.0,0.0,0.0,0.0,3.7768,3.766,3.7436,3.7436,3.7242,3.692,3.6911,3.6831,3.6558,3.6386,3.6341,3.6472,3.6346,3.6317,3.6398,3.646,3.6492,3.646,3.6352,3.6196,3.6022,3.5487,3.5326,3.5589,3.4755,3.3945,3.3702,3.3315,3.282,3.2108,3.1666,3.1352,3.1313,3.1352,3.1418,3.1313,3.13,3.1339,3.1403,3.1352,3.1326,3.1169,3.1043,3.0649,2.9871,2.9433,2.8727,2.7458,2.7062,2.6734,2.6063,2.5895,2.5895,5.2659,0.0,5.2467,5.1932,0.0,5.0126,4.8993,4.7846,4.8048,4.803,4.7855,4.7124,4.6397,4.5669,4.4908,4.4598,4.4598,4.4598,4.4598,4.4581,4.4108,4.3608,4.3099,4.2579,4.146,3.9926,4.0122,3.9715,3.8832,3.8788,3.8952,3.9269,3.8374,3.8171,3.864,3.8388,3.8184,3.8007,3.8875,3.934,3.9355,3.9566,3.9676,3.9631,0.0,0.0,0.0,0.0,0.0,0.0,0.0,0.0,0.0,0.0,0.0,3.7684,3.7639,3.7556,3.7307,3.731,3.7225,3.7119,3.7121,3.716,3.728,3.7104,3.6901,3.6712,3.6699,3.6672,3.6507,3.6414,3.6383,3.6492,3.6414,3.6383,3.6492,3.6492,3.6492,3.6492,3.6414,3.6336,3.6352,3.5975,3.584,3.6159,3.5609,3.4865,3.4312,3.3414,3.2475,3.1557,3.1209,3.1037,3.1024,3.1024,3.1024,3.1024,3.1024,3.1024,3.1024,3.1024,3.1024,3.1024,3.1024,3.0823,3.0419,3.0024,2.9433,2.8597,2.777,2.7133,2.658,2.6229,2.5895,5.2764,5.2871,5.2202,5.1397,5.0575,5.01,4.9523,4.8801,0.0,0.0,0.0,4.7056,4.6312,4.5466,4.4886,4.4598,4.4598,4.4598,4.453,4.4367,4.4367,4.3973,4.3255,4.3099,4.2245,4.0783,4.0739,4.0344,3.9616,3.9195,3.9382,3.9927,3.8984,3.8657,3.9073,3.9935,3.9766,3.8569,3.9837,4.0554,4.0539,4.0519,4.0458,4.0235,3.9676,3.9229,3.8906,3.8555,3.8491,3.8804,3.8952,3.8876,3.8682,3.8667,3.8378,3.7691,3.7646,3.7501,3.7099,3.7068,3.6903,3.6538,3.6492,3.666,3.707,3.6737,3.6492,3.6492,3.6492,3.6492,3.6492,3.6492,3.6492,3.6492,3.6492,3.6492,3.6492,3.6492,3.6492,3.6492,3.6492,3.6492,3.6492,3.646,3.6492,3.6492,3.6336,3.6085,3.5044,3.3506,3.2119,3.1237,3.1013,3.1024,3.1024,3.1024,3.1024,3.1024,3.1024,3.1024,3.1024,3.1024,3.1024,3.1024,3.1024,3.0986,3.0949,3.0432,2.9909,2.9755,2.8636,2.758,2.7377,2.6745,2.6146,5.2972,5.3111,5.2488,5.1457,5.019,5.012,4.9647,4.8987,4.8844,4.8132,4.6938,4.6836,4.6024,4.475,4.4649,4.4598,4.4598,4.4598,4.4242,0.0,4.3561,4.3494,4.3365,4.3365,4.2635,4.1416,4.1795,4.1064,3.9498,3.9696,3.9995,3.9995,3.9418,3.8865,3.8576,3.9732,4.0296,4.0103,4.1821,4.2729,4.2729,4.263,4.226,4.1641,4.104,4.0246,3.9121,3.9611,3.9518,3.8631,3.9056,3.8823,3.7798,3.7688,3.7381,3.6783,3.6674,3.666,3.6599,3.6599,3.6553,3.6507,3.6492,3.6538,3.6583,3.6553,3.6492,3.6492,3.6492,3.6492,3.6492,3.6492,3.6492,3.6492,3.6492,3.6492,3.6492,3.6492,3.6492,3.6492,3.6492,3.6492,3.6492,3.6492,3.6492,3.646,3.6383,3.5896,3.4813,3.3374,3.2087,3.1259,3.1024,3.1024,3.1024,3.1024,3.1024,3.1024,3.1024,3.1024,3.1024,3.1024,3.1024,3.1024,3.1024,3.1024,3.1024,3.0949,3.0508,2.9947,2.9394,2.8991,2.8359,2.7568,2.6816,5.3093,5.3247,5.2588,5.1454,5.0033,4.9255,4.8951,4.9001,4.9018,4.8173,4.6819,4.638,4.5602,4.4615,4.413,4.4198,4.4598,4.4598,4.4412,4.4028,4.3606,4.3403,4.3358,4.2997,4.2287,4.1366,4.1562,4.1006,3.9831,3.9969,4.0113,4.007,3.9799,3.9575,3.9468,4.0348,4.1092,4.1533,4.2372,4.2622,4.222,4.2188,4.1594,4.055,4.0254,3.9666,3.8724,3.9001,3.8959,3.8424,3.8349,3.804,3.7482,3.7126,3.6815,3.6522,3.6492,3.6492,3.6492,3.6492,3.6492,3.6492,3.6492,3.6492,3.6492,3.6492,3.6492,3.6492,3.6492,3.6492,3.6492,3.6492,3.6492,3.6492,3.6492,3.6492,3.6492,3.6492,3.6492,3.6492,3.6492,3.6492,3.6492,3.6492,3.6492,3.6492,3.6414,3.5975,3.5011,3.4331,3.329,3.1919,3.1259,3.1024,3.1024,3.1024,3.1024,3.1024,3.1024,3.1024,3.1024,3.1024,3.1024,3.1024,3.1024,3.1024,3.1024,3.1024,3.0785,3.0533,2.9947,2.9537,2.9108,2.8438,2.7447,5.2841,5.3095,5.2198,5.1048,4.9729,4.8274,4.8173,4.8968,4.9018,4.8257,4.7056,4.6447,4.5686,4.4835,4.4198,4.4181,4.4564,4.4598,4.4513,4.4248,4.3521,4.3166,4.3098,4.2405,4.1762,4.1255,4.1204,4.0815,4.018,4.0113,4.0113,4.0113,4.0113,4.0237,4.0511,4.1129,4.1786,4.2444,4.2799,4.258,4.188,4.1847,4.1174,3.985,3.9719,3.9364,3.8567,3.8657,3.8601,3.8306,3.7854,3.7608,3.7578,3.6892,3.6554,3.6662,3.6569,3.6492,3.6492,3.6492,3.6492,3.6492,3.6492,3.6492,3.6492,3.6492,3.6492,3.6492,3.6492,3.6492,3.6492,3.6492,3.6492,3.6492,3.6492,3.6492,3.6492,3.6492,3.6492,3.6492,3.6492,3.6492,3.6492,3.6492,3.6492,3.6429,3.646,3.6148,3.5497,3.5237,3.4351,3.3164,3.2064,3.1616,3.1445,3.1384,3.131,3.1123,3.1099,3.1061,3.1024,3.1024,3.1024,3.1024,3.1024,3.1024,3.1024,3.1024,3.0986,3.0861,3.0457,2.9986,2.9653,2.9147,2.8148,5.2034,5.2,5.0865,4.9847,4.8968,4.753,4.7716,4.8934,4.9018,4.8562,4.7834,4.7703,4.6904,4.572,4.5466,4.5094,4.4615,4.4598,4.4215,4.3511,4.2743,4.2388,4.2371,4.166,4.1288,4.117,4.117,4.0764,4.013,4.0113,4.0113,4.0113,4.0113,4.0476,4.1109,4.182,4.2226,4.2368,4.3698,4.4013,4.3261,4.321,4.2503,4.1081,4.0987,4.0424,3.9185,3.9627,3.9428,3.8435,3.8266,3.8193,3.8108,3.7148,3.6754,3.7254,3.6816,3.6492,3.6492,3.6492,3.6492,3.6492,3.6492,3.6492,3.6492,3.6492,3.6492,3.6492,3.6492,3.6492,3.6492,3.6492,3.6492,3.6492,3.6492,3.6492,3.6492,3.6492,3.6492,3.6492,3.6492,3.6492,3.6492,3.6492,3.6429,3.632,3.6414,3.6352,3.5958,3.5512,3.519,3.4595,3.3851,3.3087,3.2654,3.2381,3.1982,3.1445,3.1272,3.1198,3.1061,3.1024,3.1024,3.1024,3.1024,3.1024,3.1024,3.1024,3.1024,3.1024,3.0823,3.0621,2.9935,2.9665,2.8951,5.1145,5.1294,4.9942,4.8942,4.824,4.7225,4.7631,4.8968,4.9018,4.8832,4.8578,4.8562,4.7496,4.5703,4.5246,4.4886,4.4615,4.4598,4.4429,4.3995,4.2861,4.2303,4.2168,4.1068,4.057,4.0544,4.0544,4.04,4.0146,4.0113,4.0113,4.0163,4.0536,4.0916,4.1238,4.1931,4.2303,4.232,4.3352,4.3318,4.2303,4.2523,4.2049,4.0739,4.057,4.0332,3.9824,3.9995,3.9876,3.9375,3.9055,3.8821,3.8838,3.801,3.7679,3.7867,3.7371,3.6861,3.6523,3.6492,3.6492,3.6492,3.6492,3.6492,3.6492,3.6492,3.6492,3.6492,3.6492,3.6492,3.6492,3.6492,3.6492,3.6492,3.6492,3.6492,3.6492,3.6492,3.6492,3.6492,3.6492,3.6492,3.6492,3.6492,3.646,3.6383,3.646,3.6429,3.6289,3.6085,3.5943,3.5816,3.54,3.4581,3.3596,3.2854,3.2439,3.2042,3.1579,3.1235,3.1099,3.1024,3.1024,3.1024,3.1024,3.1024,3.1024,3.1024,3.1024,3.1024,3.1024,3.0861,3.0545,3.047,2.9909,5.041,5.0557,4.9142,4.8256,4.7838,4.7107,4.7631,4.8917,4.9018,4.9018,4.9018,4.9018,4.7902,4.6109,4.5444,4.5021,4.4632,4.4598,4.4479,4.413,4.2878,4.2202,4.1907,4.0739,4.0113,4.0113,4.013,4.0113,4.0113,4.0113,4.0197,4.0451,4.095,4.1407,4.1813,4.2185,4.2303,4.2354,4.3031,4.2665,4.1559,4.2117,4.1822,4.0299,4.0113,4.0113,4.0113,4.0113,4.0113,4.007,3.9523,3.9286,3.9435,3.8712,3.8222,3.8039,3.765,3.7134,3.6554,3.6492,3.6492,3.6492,3.6492,3.6492,3.6492,3.6492,3.6492,3.6492,3.6492,3.6492,3.6492,3.6492,3.6492,3.6492,3.6492,3.6492,3.6492,3.6492,3.6492,3.6492,3.6492,3.6492,3.6492,3.6492,3.6492,3.6492,3.6492,3.6492,3.6492,3.6492,3.646,3.6492,3.6352,3.5705,3.4432,3.3837,3.3283,3.2712,3.2259,3.1703,3.1347,3.1272,3.1061,3.1099,3.1061,3.1024,3.1024,3.1024,3.1024,3.1024,3.1024,3.1024,3.0898,3.0986,3.0748,4.9759,5.0076,4.8428,4.7787,4.7821,4.7141,4.7648,4.9018,4.9018,4.9018,4.9018,4.9018,4.8173,4.6769,4.6599,4.5889,4.4716,4.4598,4.4231,4.3572,4.2726,4.1931,4.1221,4.046,4.0113,4.0113,4.0113,4.0113,4.0113,4.0146,4.0468,4.1119,4.1271,4.1948,4.2878,4.2591,4.2303,4.2371,4.298,4.2648,4.1559,4.2547,4.2185,4.0333,4.0113,4.0146,4.0113,4.0113,4.0113,4.0113,3.9549,3.9487,3.9876,3.8984,3.8153,3.7608,3.7476,3.7194,3.6662,3.6569,3.6554,3.6523,3.6523,3.6492,3.6492,3.6492,3.6492,3.6492,3.6492,3.6492,3.6492,3.6492,3.6492,3.6492,3.6492,3.6492,3.6492,3.6492,3.6492,3.6492,3.6492,3.6492,3.6492,3.6492,3.6492,3.6492,3.6492,3.6492,3.6492,3.6492,3.6492,3.6492,3.6429,3.6211,3.5464,3.4861,3.4413,3.3871,3.3157,3.2547,3.2128,3.174,3.1482,3.1272,3.131,3.1272,3.1099,3.1024,3.1024,3.1024,3.1024,3.1024,3.1024,3.1024,3.0861,4.8812,4.8294,4.8217,4.8003,4.7703,4.74,4.7963,4.8984,4.9018,4.9018,4.9018,4.9018,4.8443,4.7479,4.6989,4.6003,4.4666,4.4598,4.4418,4.4062,4.3369,4.2625,4.188,4.1136,4.0536,4.0146,4.0113,4.0113,4.0163,4.0587,4.0933,4.1339,4.2168,4.2682,4.2743,4.2912,4.2794,4.2371,4.2591,4.2219,4.1339,4.1728,4.1356,4.0248,4.0561,4.0578,4.0113,4.0113,4.0113,4.0113,3.9893,3.985,4.0045,3.9705,3.9189,3.8645,3.8546,3.8266,3.7709,3.7282,3.7058,3.7043,3.6723,3.6523,3.6492,3.6492,3.6492,3.6492,3.6492,3.6492,3.6492,3.6492,3.6492,3.6492,3.6492,3.6492,3.6492,3.6492,3.6492,3.6492,3.6492,3.6492,3.6492,3.6492,3.6492,3.6492,3.6492,3.6492,3.6492,3.6492,3.6492,3.6492,3.6492,3.6429,3.6226,3.5608,3.5091,3.4647,3.4075,3.3581,3.3094,3.2897,3.2684,3.2541,3.2304,3.1982,3.1909,3.1347,3.1272,3.1123,3.1136,3.1024,3.1024,3.1024,3.1024,4.8314,4.7345,4.804,4.8113,4.7645,4.7611,4.8155,4.8968,4.9018,4.9018,4.9018,4.9001,4.8595,4.7889,4.7378,4.6346,4.4993,4.4733,4.4479,4.4181,4.3656,4.3014,4.232,4.1779,4.1153,4.0493,4.0197,4.0113,4.0146,4.0595,4.1085,4.1627,4.2405,4.2861,4.2946,4.2861,4.2506,4.2269,4.2066,4.1677,4.1305,4.1677,4.1441,4.0713,4.117,4.1068,4.0163,4.0113,4.0113,4.0113,4.0113,4.0113,4.0113,4.0113,3.9841,3.9286,3.9162,3.8947,3.8379,3.7895,3.7608,3.7401,3.7043,3.6723,3.6554,3.6492,3.6492,3.6492,3.6492,3.6492,3.6492,3.6492,3.6492,3.6492,3.6492,3.6492,3.6492,3.6492,3.6492,3.6492,3.6492,3.6492,3.6492,3.6492,3.6492,3.6492,3.6492,3.6492,3.6492,3.6492,3.6492,3.6492,3.6492,3.6492,3.6398,3.6053,3.5769,3.5367,3.4861,3.4432,3.4148,3.4027,3.3842,3.3739,3.3443,3.3017,3.2511,3.1873,3.1556,3.1384,3.1161,3.1024,3.1024,3.1024,3.1024,4.8331,4.728,4.7896,4.797,4.7614,4.7581,4.8124,4.8903,4.9018,4.9018,4.9018,4.9018,4.8646,4.8041,4.7851,4.7056,4.5805,4.5094,4.4401,4.369,4.3527,4.3115,4.2405,4.2337,4.1914,4.1204,4.0493,4.0214,4.0316,4.0468,4.1077,4.1965,4.1813,4.2591,4.4445,4.2523,4.1728,4.1982,4.161,4.1204,4.1373,4.2361,4.2337,4.1271,4.1745,4.1474,4.0163,4.0113,4.0113,4.0113,4.0113,4.0113,4.0113,4.0113,3.9825,3.9391,3.9232,3.8947,3.8474,3.8334,3.8067,3.7695,3.7431,3.7178,3.6723,3.6616,3.6585,3.6492,3.6492,3.6492,3.6492,3.6492,3.6492,3.6492,3.6492,3.6492,3.6492,3.6492,3.6492,3.6492,3.6492,3.6492,3.6492,3.6492,3.6492,3.6492,3.6492,3.6492,3.6492,3.6492,3.6492,3.6492,3.6492,3.6492,3.6492,3.646,3.6352,3.6148,3.5593,3.5124,3.5026,3.4894,3.4633,3.4499,3.4129,3.3699,3.3066,3.2439,3.1873,3.1616,3.1334,3.1123,3.1099,3.1099,3.1024,4.8265,4.7087,4.7751,4.7828,4.746,4.7457,4.8049,4.8968,4.9018,4.9018,4.9018,4.9018,4.8883,4.8578,4.8125,4.7394,4.6464,4.616,4.5432,4.4384,4.4215,4.3809,4.3183,4.3064,4.2675,4.2016,4.1711,4.1593,4.1559,4.1585,4.2134,4.2828,4.2811,4.3037,4.3724,4.2574,4.2117,4.2144,4.1052,4.0663,4.1153,4.166,4.1424,4.0646,4.1153,4.1052,4.0197,4.0113,4.0113,4.0113,4.0113,4.0113,4.0113,4.0113,4.002,3.9867,3.9825,3.9773,3.9549,3.9152,3.8865,3.8574,3.8282,3.7738,3.7238,3.7118,3.6922,3.6616,3.6492,3.6492,3.6492,3.6492,3.6492,3.6492,3.6492,3.6492,3.6492,3.6492,3.6492,3.6492,3.6492,3.6492,3.6492,3.6492,3.6492,3.6492,3.6492,3.6492,3.6492,3.6492,3.6492,3.6492,3.6492,3.6492,3.6492,3.6492,3.646,3.6383,3.6053,3.5769,3.572,3.564,3.5432,3.5109,3.4747,3.4279,3.3644,3.3066,3.2497,3.2114,3.1969,3.169,3.1347,3.1272,3.1384,4.8001,4.699,4.7404,4.7531,4.7381,4.7412,4.8018,4.892,4.9018,4.9018,4.9018,4.9018,4.9018,4.8917,4.8528,4.7902,4.7259,4.7208,4.6413,4.5179,4.4993,4.4587,4.3876,4.3494,4.3189,4.2743,4.2422,4.2303,4.2303,4.232,4.2658,4.3267,4.3132,4.3318,4.3606,4.2574,4.1982,4.2033,4.0874,4.0333,4.0747,4.1052,4.0832,4.0333,4.0815,4.0781,4.018,4.0113,4.0113,4.0113,4.0113,4.0113,4.0113,4.0113,4.0113,4.0113,4.0096,4.007,4.0045,3.9722,3.9418,3.9206,3.8865,3.8238,3.7666,3.7549,3.7385,3.6662,3.6723,3.6754,3.6554,3.6492,3.6492,3.6492,3.6492,3.6492,3.6492,3.6492,3.6492,3.6492,3.6492,3.6492,3.6492,3.6492,3.6492,3.6492,3.6492,3.6492,3.6492,3.6492,3.6492,3.6492,3.6492,3.6492,3.6492,3.6492,3.6492,3.6492,3.6429,3.6289,3.6226,3.6226,3.607,3.5705,3.5335,3.4942,3.4341,3.3699,3.3143,3.2911,3.2769,3.2662,3.2434,3.2055,3.2036,4.757,4.6924,4.6908,4.7132,4.7381,4.7412,4.8001,4.8903,4.9018,4.9018,4.9018,4.9018,4.9018,4.9018,4.8917,4.8494,4.7973,4.7939,4.7175,4.6126,4.5805,4.5449,4.4468,4.3876,4.3589,4.3403,4.2861,4.2574,4.2675,4.254,4.2743,4.3453,4.298,4.3047,4.3724,4.2303,4.1677,4.1863,4.079,4.0163,4.0231,4.0849,4.0849,4.018,4.0764,4.0849,4.0214,4.0113,4.0113,4.0113,4.0113,4.0113,4.0113,4.0113,4.0113,4.0113,4.0113,4.0113,4.0113,4.0045,3.9825,3.9391,3.9259,3.8783,3.794,3.8084,3.7924,3.6967,3.7208,3.7208,3.6754,3.6631,3.66,3.6492,3.6492,3.6492,3.6492,3.6492,3.6492,3.6492,3.6492,3.6492,3.6492,3.6492,3.6492,3.6492,3.6492,3.6492,3.6492,3.6492,3.6492,3.6492,3.6492,3.6492,3.6492,3.6492,3.6492,3.6492,3.6492,3.6492,3.646,3.646,3.6414,3.6085,3.5784,3.5429,3.5055,3.4461,3.4129,3.3993,3.3891,3.3808,3.3478,3.2981,3.2693,4.757,4.6924,4.6908,4.7098,4.7364,4.7412,4.8001,4.892,4.9001,4.897,4.9001,4.9018,4.9001,4.9018,4.9001,4.8612,4.8206,4.8443,4.7919,4.6786,4.7124,4.621,4.4919,4.4401,4.4265,4.4231,4.3978,4.4005,4.3955,4.3386,4.3521,4.4215,4.3504,4.3284,4.3453,4.2608,4.1813,4.1424,4.0654,4.0146,4.0248,4.0832,4.0815,4.0265,4.0815,4.0832,4.0197,4.0113,4.0113,4.0113,4.0113,4.0113,4.0113,4.0113,4.0113,4.0113,4.0113,4.0113,4.0113,4.0113,4.002,3.9901,3.9799,3.9523,3.8838,3.8865,3.8574,3.801,3.801,3.7796,3.7282,3.7118,3.6952,3.6585,3.6492,3.6492,3.6492,3.6492,3.6492,3.6492,3.6492,3.6492,3.6492,3.6492,3.6492,3.6492,3.6492,3.6492,3.6492,3.6492,3.6492,3.6492,3.6492,3.6492,3.6492,3.6492,3.6492,3.6492,3.6492,3.6492,3.6445,3.6367,3.6305,3.6133,3.599,3.5703,3.5623,3.5335,3.5204,3.4993,3.4769,3.4563,3.4138,3.3679,3.3438,4.757,4.6908,4.6908,4.7098,4.7381,4.7318,4.7804,4.847,4.8711,4.8675,4.8602,4.8838,4.894,4.9001,4.9001,4.8798,4.8443,4.8494,4.8037,4.7462,4.7344,4.6498,4.5365,4.506,4.5043,4.501,4.4767,4.4801,4.484,4.4265,4.4215,4.4445,4.4147,4.391,4.391,4.3149,4.2574,4.21,4.139,4.0925,4.0629,4.0967,4.073,4.04,4.0798,4.1035,4.0993,4.073,4.0426,4.0214,4.0113,4.0113,4.0113,4.0113,4.0113,4.0113,4.0113,4.0113,4.0113,4.0113,4.0113,4.0096,4.0113,3.9773,3.9391,3.9391,3.9295,3.8407,3.853,3.821,3.7549,3.7178,3.6861,3.6585,3.6492,3.6492,3.6492,3.6492,3.6492,3.6492,3.6492,3.6492,3.6492,3.6492,3.6492,3.6492,3.6492,3.6492,3.6492,3.6492,3.6492,3.6492,3.6492,3.6492,3.6492,3.6492,3.6492,3.6492,3.6492,3.6492,3.6445,3.6336,3.6274,3.6211,3.6116,3.6053,3.599,3.5958,3.5958,3.5733,3.5561,3.5442,3.5156,3.5063,3.4727,4.762,4.7023,4.7023,4.7198,4.7452,4.7275,4.7445,4.7855,4.8071,4.8001,4.7916,4.8394,4.8658,4.89,4.8917,4.8984,4.8934,4.8308,4.8007,4.7716,4.7479,4.6802,4.6177,4.5872,4.5821,4.5703,4.506,4.5128,4.5263,4.4857,4.4682,4.4733,4.4666,4.4666,4.4451,4.3826,4.3436,4.3132,4.2422,4.1796,4.139,4.139,4.1153,4.0823,4.1085,4.166,4.1847,4.1627,4.1068,4.04,4.0214,4.0113,4.0113,4.0113,4.0113,4.0113,4.0113,4.0113,4.0113,4.0113,4.0113,4.0113,4.0113,3.9876,3.9549,3.9747,3.9627,3.8794,3.9011,3.8701,3.7767,3.7028,3.6693,3.6554,3.6492,3.6492,3.6492,3.6492,3.6492,3.6492,3.6492,3.6492,3.6492,3.6492,3.6492,3.6492,3.6492,3.6492,3.6492,3.6492,3.6492,3.6492,3.6492,3.6492,3.6492,3.6492,3.6492,3.6492,3.6492,3.6492,3.6492,3.6383,3.6305,3.6242,3.6258,3.6258,3.6211,3.6289,3.6367,3.6489,3.6292,3.6514,3.6687,3.6791,3.6607,4.7918,4.7769,4.7769,4.7866,4.7911,4.746,4.7304,4.7488,4.7007,4.6968,4.7016,4.7622,4.802,4.8189,4.8663,4.9018,4.8798,4.8189,4.7906,4.7939,4.8426,4.8088,4.7378,4.6786,4.6549,4.638,4.5821,4.5602,4.5568,4.5229,4.4936,4.5365,4.5055,4.4902,4.5196,4.4282,4.342,4.3301,4.2743,4.2371,4.2151,4.2066,4.1965,4.1762,4.1965,4.2117,4.2219,4.2134,4.1965,4.1619,4.0823,4.0282,4.0214,4.0214,4.0197,4.013,4.013,4.013,4.0113,4.0113,4.0113,4.0113,4.0096,4.0028,3.9969,3.9969,3.9995,3.9705,3.9799,3.9295,3.8266,3.7562,3.7088,3.6769,3.6616,3.6554,3.6523,3.6492,3.6492,3.6492,3.6492,3.6492,3.6492,3.6492,3.6492,3.6492,3.6492,3.6492,3.6492,3.6492,3.6492,3.6492,3.6492,3.6492,3.6492,3.6492,3.6492,3.6492,3.6492,3.6492,3.6492,3.646,3.6383,3.6383,3.6445,3.6414,3.6383,3.6429,3.6476,3.6753,3.7046,3.7246,3.7505,3.7905,3.8184,4.8001,4.8001,4.8001,4.8082,4.8145,4.7748,4.751,4.74,4.7224,4.6848,4.6791,4.7581,4.7807,4.7449,4.8122,4.8325,4.7936,4.7597,4.7378,4.7428,4.7767,4.7699,4.7479,4.709,4.6904,4.709,4.6566,4.6397,4.6447,4.6024,4.5901,4.6177,4.5799,4.5618,4.5771,4.5145,4.4671,4.4164,4.3961,4.3606,4.2963,4.2828,4.2811,4.2811,4.2844,4.2946,4.3369,4.298,4.2861,4.2557,4.1762,4.0959,4.0747,4.0899,4.0823,4.0231,4.0502,4.0367,4.0231,4.0113,4.0113,4.0113,4.0113,4.0113,4.0113,4.0113,4.0113,4.0113,4.002,3.9679,3.8821,3.8181,3.765,3.7415,3.7104,3.6922,3.6861,3.6693,3.6492,3.6492,3.6492,3.6492,3.6492,3.6492,3.6492,3.6492,3.6492,3.6492,3.6492,3.6492,3.6492,3.6492,3.6492,3.6492,3.6492,3.6492,3.6492,3.6492,3.6492,3.6492,3.6492,3.6492,3.6492,3.6507,3.6522,3.6492,3.646,3.6507,3.6738,3.7123,3.7477,3.7784,3.8244,3.8836,3.8984,4.8001,4.8001,4.8001,4.8049,4.813,4.7884,4.7582,4.7406,4.755,4.701,4.678,4.7709,4.7544,4.7284,4.7652,4.7513,4.7242,4.7276,4.7462,4.7259,4.753,4.7445,4.7242,4.7175,4.7175,4.7665,4.7039,4.7073,4.7242,4.7175,4.6701,4.687,4.6752,4.6532,4.6295,4.6244,4.5821,4.4936,4.4925,4.4823,4.4028,4.3832,4.3832,4.3849,4.3866,4.3978,4.4198,4.391,4.3606,4.3538,4.298,4.2303,4.188,4.1813,4.1847,4.0553,4.1085,4.1001,4.0527,4.0367,4.035,4.0265,4.013,4.0214,4.0282,4.0197,4.0113,4.0113,4.0045,3.9825,3.9242,3.8739,3.8435,3.8181,3.7767,3.7549,3.7358,3.6983,3.6892,3.6492,3.6492,3.6492,3.6492,3.6492,3.6492,3.6492,3.6492,3.6492,3.6492,3.6492,3.6492,3.6492,3.6492,3.6492,3.6492,3.6492,3.6492,3.6507,3.6507,3.6522,3.6507,3.6492,3.6507,3.6569,3.6584,3.6615,3.6784,3.7015,3.7292,3.7615,3.8061,3.8523,3.9123,3.977,3.9702,4.8001,4.8001,4.8001,4.8001,4.7934,4.7371,4.7105,4.6872,4.6558,4.6281,4.6424,4.6622,4.7278,4.7507,4.777,4.7787,4.7767,4.7902,4.8037,4.78,4.8003,4.8037,4.753,4.7293,4.7327,4.7039,4.6819,4.6938,4.7056,4.6853,4.7225,4.7479,4.7208,4.7022,4.7022,4.6599,4.6007,4.5399,4.5179,4.4942,4.5111,4.515,4.5128,4.5111,4.506,4.4891,4.457,4.4496,4.4384,4.4412,4.4276,4.3741,4.3098,4.2642,4.2236,4.1924,4.1847,4.166,4.1136,4.0967,4.1001,4.0882,4.0578,4.051,4.0679,4.0502,4.0248,4.0113,4.0045,3.985,3.9242,3.9109,3.8821,3.849,3.8238,3.7982,3.7679,3.7621,3.7474,3.6922,3.6693,3.6492,3.6492,3.6492,3.6492,3.6492,3.6492,3.6492,3.6492,3.6492,3.6492,3.6492,3.6492,3.6492,3.6492,3.6492,3.6492,3.6538,3.6553,3.6569,3.6553,3.6507,3.6522,3.6569,3.6815,3.7061,3.7261,3.7523,3.7769,3.8046,3.8662,3.9275,3.9659,4.0028,4.0228,4.8001,4.8001,4.8001,4.8001,4.7934,4.7636,4.7471,4.7421,4.709,4.6819,4.6889,4.718,4.7267,4.7396,4.774,4.7889,4.802,4.7767,4.7885,4.7885,4.7885,4.7716,4.7327,4.7039,4.687,4.6769,4.6802,4.7022,4.7344,4.7394,4.7767,4.824,4.8071,4.797,4.777,4.7246,4.6397,4.5872,4.5399,4.5331,4.5771,4.6024,4.6109,4.5788,4.5669,4.5297,4.4767,4.4598,4.4598,4.4581,4.4581,4.4378,4.4012,4.3639,4.3098,4.2523,4.2354,4.2202,4.1745,4.1508,4.1339,4.1694,4.1373,4.1187,4.1136,4.0849,4.0476,4.0214,4.0113,3.9995,3.9705,3.9627,3.9506,3.9252,3.8957,3.8629,3.8407,3.8351,3.7924,3.7431,3.7268,3.6983,3.6492,3.6492,3.6492,3.6492,3.6523,3.6492,3.6492,3.6492,3.6492,3.6492,3.6492,3.6492,3.6492,3.6492,3.6492,3.6522,3.6599,3.663,3.6661,3.663,3.6569,3.6553,3.6892,3.7338,3.7815,3.8108,3.8292,3.8508,3.9029,3.9551,3.992,4.0243,4.0413,4.8001,4.8001,4.8001,4.8001,4.7984,4.7819,4.7752,4.7785,4.7703,4.7451,4.7261,4.777,4.7575,4.7154,4.7507,4.7956,4.8054,4.7564,4.7784,4.8037,4.7767,4.731,4.6887,4.6566,4.6498,4.6769,4.6786,4.7192,4.772,4.8007,4.8477,4.8663,4.8866,4.8663,4.8142,4.7648,4.6938,4.6515,4.594,4.5957,4.6278,4.665,4.6667,4.6024,4.5906,4.5534,4.4716,4.4835,4.475,4.4666,4.4598,4.4581,4.4598,4.4598,4.4022,4.2997,4.276,4.2692,4.2405,4.2134,4.2083,4.2455,4.2185,4.1813,4.1576,4.1271,4.0916,4.0468,4.0367,4.0265,4.0088,4.007,4.0045,3.9952,3.9601,3.9312,3.9055,3.8892,3.8629,3.821,3.794,3.7621,3.7282,3.68,3.6892,3.6723,3.6723,3.6492,3.6492,3.6492,3.6492,3.6492,3.6492,3.6492,3.6492,3.6492,3.6492,3.6507,3.663,3.6707,3.6769,3.6799,3.6738,3.6722,3.7076,3.7538,3.8108,3.8616,3.8846,3.9108,3.9459,3.9828,4.0182,4.0336,4.0443,4.8001,4.8001,4.8001,4.8001,4.7918,4.7371,4.7073,4.7106,4.7123,4.7103,4.7213,4.7243,4.7347,4.7494,4.7761,4.8277,4.8612,4.8646,4.8562,4.868,4.8562,4.8223,4.7804,4.775,4.7242,4.7124,4.6938,4.7225,4.7919,4.8528,4.8832,4.89,4.8562,4.8244,4.8646,4.7784,4.7208,4.7394,4.6938,4.6921,4.7432,4.7682,4.7344,4.6802,4.6498,4.5991,4.4987,4.506,4.5145,4.4733,4.4615,4.4598,4.4598,4.4598,4.4564,4.4378,4.4259,4.3995,4.3403,4.3003,4.3014,4.2997,4.2388,4.1863,4.1745,4.139,4.1001,4.1136,4.0984,4.0663,4.0214,4.0113,4.0113,4.007,3.9969,3.9618,3.9391,3.947,3.9216,3.8984,3.8684,3.8518,3.8266,3.7738,3.7282,3.7088,3.6922,3.6754,3.6693,3.6831,3.6892,3.6967,3.6997,3.6997,3.7028,3.6937,3.6892,3.6769,3.6909,3.6971,3.6909,3.6987,3.6984,3.7061,3.7323,3.7492,3.7815,3.8369,3.9108,3.9551,3.9782,4.009,4.0413,4.0489,4.0489,4.8001,4.8001,4.8001,4.8001,4.7968,4.7636,4.752,4.7438,4.709,4.7172,4.7417,4.6797,4.6915,4.7591,4.823,4.8697,4.8968,4.9001,4.9018,4.9018,4.8984,4.8832,4.8494,4.8173,4.7784,4.7936,4.7733,4.7885,4.8359,4.8426,4.8545,4.8934,4.8714,4.868,4.8917,4.797,4.7428,4.7208,4.6989,4.7175,4.78,4.8189,4.7953,4.6853,4.6786,4.616,4.5483,4.5004,4.5229,4.5004,4.4891,4.4598,4.4598,4.4598,4.4581,4.4581,4.4564,4.4395,4.4079,4.369,4.3707,4.3927,4.3369,4.3031,4.2354,4.1373,4.0679,4.057,4.0561,4.0451,4.0282,4.0113,4.0113,4.0113,4.0197,4.0062,3.984,3.9918,3.985,3.9653,3.947,3.9269,3.9044,3.8632,3.8119,3.7809,3.7709,3.7592,3.7592,3.7709,3.7693,3.7663,3.7679,3.7679,3.7722,3.7722,3.7693,3.7658,3.7729,3.7698,3.7218,3.7172,3.7359,3.7078,3.6892,3.7123,3.7539,3.8246,3.9123,3.9582,4.0028,4.0197,4.0351,4.0489,4.0489,4.8001,4.7984,4.7802,4.7835,4.7951,4.762,4.752,4.762,4.6908,4.6908,4.7054,4.6381,4.6441,4.7309,4.7936,4.8281,4.8714,4.8903,4.897,4.9001,4.9018,4.9001,4.8798,4.8477,4.8494,4.8984,4.8409,4.8477,4.8612,4.8629,4.8612,4.8968,4.8646,4.8798,4.8765,4.8274,4.7716,4.7648,4.7564,4.7665,4.7919,4.8156,4.7564,4.6938,4.6583,4.6363,4.5517,4.5483,4.5585,4.5077,4.4902,4.4598,4.4598,4.4598,4.4598,4.4598,4.4598,4.4581,4.4378,4.413,4.4113,4.4316,4.4299,4.3487,4.2743,4.1467,4.0959,4.1271,4.1238,4.1068,4.0671,4.0603,4.0654,4.0587,4.04,4.035,4.0316,4.029,4.0189,3.9944,3.9825,3.9918,3.9668,3.9421,3.9018,3.8606,3.8418,3.8362,3.8362,3.8379,3.8266,3.8137,3.8157,3.8128,3.8153,3.8222,3.8306,3.8521,3.8603,3.8557,3.8197,3.8039,3.8154,3.767,3.7111,3.7545,3.8354,3.875,3.9093,3.9259,3.9505,3.9951,4.0197,4.0416,4.0536,4.8001,4.7951,4.7255,4.7355,4.7868,4.6493,4.6378,4.6891,4.6195,4.5914,4.5978,4.561,4.5942,4.6418,4.6955,4.7477,4.8024,4.856,4.8858,4.897,4.9018,4.9018,4.8934,4.89,4.8866,4.8984,4.8781,4.8849,4.8984,4.89,4.8883,4.8934,4.8595,4.8612,4.8578,4.8308,4.8274,4.8325,4.8426,4.8223,4.7953,4.7614,4.6904,4.638,4.638,4.6206,4.4919,4.572,4.5974,4.5139,4.4767,4.4615,4.4598,4.4598,4.4598,4.4598,4.4598,4.4598,4.4496,4.4479,4.453,4.435,4.3995,4.3555,4.3132,4.3189,4.3054,4.2658,4.2303,4.2303,4.1931,4.1644,4.1407,4.1339,4.1145,4.095,4.0849,4.0612,4.0519,4.0214,4.0282,4.057,4.0705,4.0498,3.9794,3.9338,3.8957,3.8859,3.875,3.8739,3.8601,3.849,3.8528,3.85,3.8407,3.866,3.9297,3.9434,3.9406,3.9457,3.9383,3.9246,3.906,3.8967,3.8622,3.8905,3.9047,3.9203,3.92,3.8888,3.9077,3.9982,4.0551,4.087,4.0823,4.6643,4.6609,4.6328,4.6643,4.7289,4.6709,4.6378,4.6096,4.545,4.5119,4.5199,4.5979,4.6321,4.638,4.6979,4.74,4.7865,4.8588,4.8855,4.897,4.9018,4.9018,4.9018,4.9018,4.9001,4.9018,4.9018,4.9018,4.9001,4.9018,4.9018,4.8866,4.8646,4.8781,4.8731,4.8409,4.846,4.868,4.8663,4.8325,4.8629,4.8359,4.7817,4.7192,4.7225,4.7259,4.6718,4.6227,4.6092,4.5703,4.5021,4.4716,4.4598,4.4598,4.4598,4.4598,4.4598,4.4598,4.4598,4.4598,4.4598,4.4445,4.391,4.3436,4.3453,4.3098,4.2794,4.2658,4.2861,4.2794,4.2371,4.2049,4.1965,4.2049,4.1931,4.1644,4.1525,4.1322,4.1187,4.1094,4.1288,4.1593,4.166,4.1702,4.0828,4.0025,3.9675,3.9391,3.9309,3.9265,3.9202,3.934,3.9429,3.9543,3.9493,3.9933,4.0457,4.0393,4.0309,4.0489,4.0606,4.0161,4.0003,3.9994,4.0062,4.011,3.9983,3.9665,3.9593,3.9756,4.0081,4.0582,4.1028,4.1464,4.1518,4.6245,4.6444,4.646,4.6477,4.6576,4.656,4.6278,4.5781,4.5301,4.4884,4.4801,4.5818,4.5946,4.5854,4.6625,4.7208,4.7507,4.8259,4.8773,4.897,4.9018,4.9018,4.9018,4.9018,4.9018,4.9018,4.9018,4.9018,4.9018,4.9018,4.9018,4.9018,4.9001,4.9001,4.8883,4.8595,4.8511,4.8714,4.8629,4.8257,4.8697,4.8562,4.8206,4.7631,4.7665,4.7378,4.6955,4.6397,4.6058,4.5652,4.5139,4.4682,4.4598,4.4598,4.4598,4.4598,4.4598,4.4615,4.4598,4.4598,4.4598,4.4513,4.4198,4.3859,4.3606,4.325,4.3335,4.32,4.3125,4.2973,4.2895,4.2861,4.2946,4.3064,4.2337,4.2033,4.2252,4.2202,4.2117,4.2016,4.2168,4.2134,4.2134,4.2144,4.1871,4.1049,4.0583,4.0344,4.0244,4.0134,4.0026,4.0253,4.0581,4.0693,4.0814,4.1197,4.1489,4.15,4.1515,4.1861,4.1848,4.1502,4.139,4.1594,4.1566,4.1306,4.142,4.168,4.1379,4.1015,4.1435,4.1898,4.2279,4.2714,4.2791,4.7189,4.7934,4.7852,4.7057,4.5947,4.5831,4.5798,4.5665,4.5599,4.5235,4.4685,4.4524,4.4318,4.4514,4.569,4.6257,4.6777,4.7852,4.8587,4.8771,4.8968,4.8984,4.9018,4.9018,4.9018,4.9018,4.9018,4.9018,4.9018,4.9018,4.9018,4.9018,4.9018,4.9001,4.8984,4.8984,4.8984,4.8984,4.8917,4.8612,4.8342,4.8274,4.7885,4.7682,4.7851,4.7648,4.7056,4.6684,4.6244,4.5529,4.4987,4.4615,4.4598,4.4598,4.4598,4.4598,4.4666,4.4682,4.4649,4.4632,4.4666,4.4615,4.435,4.435,4.4479,4.4412,4.4242,4.3972,4.4175,4.431,4.4164,4.391,4.3944,4.3741,4.3014,4.2929,4.3217,4.3149,4.3047,4.32,4.2726,4.2354,4.2388,4.2465,4.255,4.2151,4.1576,4.1271,4.1136,4.1035,4.0908,4.1136,4.1508,4.1559,4.1711,4.2236,4.2503,4.253,4.2926,4.3479,4.3704,4.3573,4.3485,4.34,4.336,4.333,4.3654,4.4042,4.3687,4.3353,4.3096,4.3374,4.3718,4.4091,4.4318,4.5864,4.6576,4.7057,4.6692,4.5847,4.5798,4.5533,4.5119,4.5083,4.492,4.4735,4.448,4.4431,4.4693,4.4983,4.5534,4.5949,4.7289,4.8121,4.8345,4.8781,4.8968,4.9018,4.9018,4.9018,4.9018,4.9018,4.9018,4.9018,4.9018,4.9018,4.9018,4.9018,4.9018,4.9001,4.9018,4.9001,4.9001,4.8984,4.8866,4.8663,4.8595,4.846,4.8156,4.8443,4.8223,4.7547,4.7208,4.6413,4.5754,4.5292,4.4649,4.4649,4.4649,4.4632,4.4767,4.4908,4.5314,4.5331,4.5297,4.506,4.4818,4.4598,4.4598,4.4598,4.4598,4.4598,4.4598,4.4598,4.4598,4.4445,4.4367,4.4384,4.4395,4.4079,4.4401,4.457,4.4231,4.4107,4.4451,4.4299,4.3792,4.3633,4.3548,4.3548,4.3352,4.2844,4.2202,4.1931,4.1897,4.1813,4.2066,4.232,4.2371,4.2608,4.3369,4.3826,4.3944,4.4705,4.5657,4.5715,4.5295,4.535,4.5152,4.5306,4.5444,4.554,4.5654,4.5932,4.5808,4.5485,4.4869,4.4785,4.5452,4.6215,4.5268,4.6195,4.6692,4.6477,4.5897,4.6063,4.5765,4.5052,4.4589,4.444,4.4589,4.444,4.4274,4.4453,4.4976,4.542,4.5738,4.7217,4.8155,4.8298,4.8748,4.8968,4.9018,4.9018,4.9018,4.9018,4.9018,4.9018,4.9018,4.9018,4.9018,4.9018,4.9018,4.9018,4.9018,4.9018,4.9018,4.9018,4.9001,4.9001,4.8934,4.8951,4.8968,4.8917,4.8934,4.8798,4.8325,4.7614,4.6786,4.6397,4.5618,4.4801,4.4835,4.4767,4.4801,4.5043,4.5331,4.5669,4.5652,4.5263,4.497,4.4666,4.4615,4.4598,4.4598,4.4598,4.4598,4.4598,4.4632,4.4598,4.4615,4.4632,4.4756,4.4784,4.4874,4.5162,4.4959,4.4615,4.4615,4.5026,4.5111,4.4835,4.4632,4.4801,4.4716,4.4434,4.4147,4.3453,4.2777,4.2675,4.2743,4.3031,4.3318,4.3487,4.3961,4.4756,4.5145,4.5343,4.6104,4.6955,4.6701,4.6144,4.6524,4.6802,4.6422,4.6346,4.687,4.7149,4.716,4.7481,4.7737,4.702,4.6103,4.6606,4.7548,4.5533,4.6775,4.6874,4.6427,4.598,4.6361,4.6228,4.5566,4.426,4.4092,4.4589,4.3926,4.3731,4.3929,4.5003,4.5649,4.6026,4.7393,4.8096,4.8571,4.8646,4.8832,4.8984,4.9018,4.9018,4.9018,4.9018,4.9018,4.9018,4.9018,4.9018,4.9018,4.9018,4.9018,4.9018,4.9018,4.9018,4.9018,4.9018,4.9018,4.9018,4.9018,4.9018,4.9018,4.8984,4.8748,4.8223,4.7496,4.7073,4.6464,4.5534,4.5348,4.5196,4.4976,4.5213,4.5585,4.5906,4.5991,4.5974,4.5585,4.5224,4.5156,4.4953,4.4767,4.4784,4.4953,4.5072,4.4936,4.4869,4.4716,4.4632,4.4857,4.5111,4.5128,4.5162,4.5111,4.4919,4.4784,4.4823,4.4959,4.4942,4.4818,4.4699,4.4852,4.5162,4.5089,4.4756,4.4502,4.3876,4.3386,4.3538,4.3961,4.4282,4.4671,4.5246,4.5855,4.6295,4.643,4.6786,4.7428,4.7124,4.7107,4.7394,4.7462,4.7107,4.7192,4.7733,4.8037,4.8159,4.8528,4.8714,4.8422,4.7304,4.7778,4.8492,4.5251,4.6096,4.6113,4.598,4.5765,4.5467,4.4903,4.4227,4.4241,4.4307,4.3893,4.3698,4.3631,4.3681,4.4045,4.4471,4.505,4.5714,4.6599,4.7338,4.8227,4.8595,4.8849,4.9001,4.9001,4.9018,4.9018,4.9018,4.9018,4.9018,4.9018,4.9018,4.9018,4.9018,4.9018,4.9018,4.9018,4.9018,4.9018,4.9018,4.9018,4.9018,4.9018,4.9018,4.9018,4.8781,4.8511,4.7885,4.7581,4.7327,4.6143,4.5635,4.5568,4.5551,4.5838,4.7107,4.731,4.7263,4.7212,4.7039,4.6599,4.6104,4.6087,4.5788,4.572,4.5686,4.5788,4.5534,4.5348,4.528,4.5106,4.5179,4.5331,4.5365,4.5399,4.5365,4.5229,4.5382,4.5449,4.5618,4.5568,4.5043,4.4908,4.4976,4.528,4.5359,4.5359,4.5229,4.5043,4.4587,4.4401,4.4857,4.5179,4.5534,4.6024,4.657,4.7124,4.7547,4.7817,4.8071,4.8156,4.8189,4.8291,4.8206,4.7953,4.8156,4.8595,4.8731,4.8646,4.8765,4.8917,4.8832,4.8798,4.8917,4.8984,4.4688,4.5301,4.5367,4.5351,4.5315,4.4887,4.4274,4.3764,4.4092,4.3992,4.3631,4.3615,4.3731,4.4059,4.4158,4.4491,4.5133,4.5965,4.6672,4.7241,4.7798,4.8422,4.8824,4.897,4.9001,4.9018,4.9018,4.9018,4.9018,4.9018,4.9018,4.9018,4.9018,4.9018,4.9018,4.9018,4.9018,4.9018,4.9018,4.9018,4.9018,4.9018,4.9018,4.9018,4.9018,4.9018,4.8917,4.8308,4.8105,4.8071,4.6921,4.6363,4.6464,4.6667,4.6752,4.7784,4.7787,4.7753,4.7686,4.7428,4.7175,4.7039,4.709,4.7005,4.6735,4.6616,4.6447,4.621,4.6126,4.5991,4.5732,4.5512,4.5546,4.5534,4.5635,4.572,4.5889,4.6092,4.6295,4.6515,4.6177,4.5585,4.5365,4.5382,4.5568,4.5906,4.6227,4.6363,4.6244,4.6007,4.5737,4.5821,4.6092,4.638,4.687,4.728,4.7733,4.8156,4.846,4.8714,4.9001,4.8934,4.8714,4.8781,4.8866,4.8968,4.8917,4.8951,4.8934,4.9018,4.9018,4.8951,4.89,4.8951,4.9001,4.391,4.452,4.4553,4.4589,4.4671,4.4605,4.4241,4.3698,4.3698,4.3615,4.3615,4.3615,4.3926,4.4241,4.444,4.4959,4.553,4.6257,4.677,4.7378,4.7998,4.8514,4.8779,4.8925,4.9018,4.9018,4.9018,4.9018,4.9018,4.9018,4.9018,4.9018,4.9018,4.9018,4.9018,4.9018,4.9018,4.9018,4.9018,4.9018,4.9018,4.9018,4.9018,4.9018,4.9018,4.9001,4.8849,4.8578,4.8291,4.8274,4.7936,4.7293,4.7496,4.7686,4.7804,4.8024,4.8142,4.8189,4.8088,4.7784,4.7462,4.7411,4.7581,4.7817,4.7733,4.7564,4.7344,4.7005,4.687,4.6633,4.6346,4.6194,4.6177,4.6194,4.6227,4.6278,4.6363,4.6633,4.6955,4.709,4.687,4.6244,4.5585,4.5602,4.5737,4.6346,4.6904,4.7175,4.7158,4.7039,4.6904,4.6701,4.687,4.7124,4.7648,4.8054,4.8308,4.8663,4.8917,4.9001,4.9001,4.9018,4.9001,4.9018,4.9018,4.9018,4.9001,4.9018,4.9018,4.9018,4.9018,4.9018,4.9018,4.9018,4.9018,4.2837,4.3032,4.3002,4.3645,4.4539,4.4092,4.4125,4.4357,4.3813,4.3615,4.3615,4.3615,4.3714,4.4059,4.4456,4.4912,4.5385,4.6131,4.6722,4.7247,4.7855,4.8435,4.8717,4.8925,4.9018,4.9018,4.9018,4.9018,4.9018,4.9018,4.9018,4.9018,4.9018,4.9018,4.9018,4.9018,4.9018,4.9018,4.9018,4.9018,4.9018,4.9018,4.9018,4.9018,4.9018,4.9018,4.8917,4.8883,4.8798,4.8765,4.8122,4.7834,4.7855,4.7906,4.8193,4.8595,4.8663,4.8646,4.8578,4.8376,4.8257,4.8325,4.8562,4.8663,4.8663,4.8528,4.8274,4.7868,4.7547,4.7276,4.7056,4.6972,4.6904,4.6904,4.6853,4.6853,4.687,4.7242,4.7584,4.7547,4.7445,4.687,4.616,4.5923,4.6041,4.6566,4.731,4.7682,4.7665,4.7581,4.7547,4.7411,4.753,4.7834,4.8325,4.8578,4.8714,4.8798,4.8968,4.9001,4.9018,4.9018,4.9018,4.9018,4.9018,4.9018,4.9018,4.9018,4.9018,4.9018,4.9018,4.9018,4.9018,4.9018,4.9018,4.2009,4.2042,4.2357,4.3164,4.4026,4.3747,4.383,4.4108,4.3764,4.3615,4.3615,4.3631,4.3764,4.391,4.4224,4.4785,4.5175,4.569,4.6419,4.7026,4.7778,4.8258,4.8635,4.8894,4.8987,4.9018,4.9018,4.9018,4.9018,4.9018,4.9018,4.9018,4.9018,4.9018,4.9018,4.9018,4.9018,4.9018,4.9018,4.9018,4.9018,4.9018,4.9018,4.9018,4.9018,4.9018,4.9018,4.9018,4.9001,4.8968,4.8562,4.846,4.846,4.8477,4.8612,4.8849,4.8968,4.9018,4.9018,4.9018,4.9018,4.9018,4.9001,4.89,4.89,4.8765,4.8748,4.8409,4.8392,4.8156,4.7953,4.7834,4.7885,4.7902,4.7682,4.7547,4.7817,4.8206,4.8376,4.8359,4.8088,4.7547,4.6921,4.6515,4.6684,4.7124,4.7787,4.8189,4.8173,4.8122,4.8071,4.8071,4.8139,4.8291,4.8646,4.8815,4.8917,4.8984,4.9018,4.9018,4.9018,4.9018,4.9018,4.9018,4.9018,4.9018,4.9018,4.9018,4.9018,4.9018,4.9018,4.9018,4.9018,4.9069,4.9154,4.1342,4.1508,4.2075,4.2771,4.3433,4.3565,4.3631,4.3631,4.3615,4.3615,4.3615,4.3615,4.4026,4.4125,4.4158,4.4821,4.5417,4.5945,4.6475,4.71,4.8004,4.8348,4.8574,4.8829,4.894,4.9018,4.9018,4.9018,4.9018,4.9018,4.9018,4.9018,4.9018,4.9018,4.9018,4.9018,4.9018,4.9018,4.9018,4.9018,4.9018,4.9018,4.9018,4.9018,4.9018,4.9018,4.9018,4.9018,4.9018,4.8984,4.8934,4.8883,4.8866,4.8832,4.8883,4.9018,4.9018,4.9018,4.9018,4.9018,4.9018,4.9018,4.9018,4.9018,4.9018,4.9001,4.8984,4.8968,4.8951,4.8866,4.8663,4.8578,4.8646,4.8663,4.8376,4.8159,4.8578,4.8917,4.8917,4.8934,4.8578,4.8071,4.7648,4.7225,4.7445,4.7821,4.8173,4.8494,4.8697,4.8629,4.8578,4.8595,4.8629,4.8815,4.8951,4.8968,4.9001,4.9018,4.9018,4.9018,4.9018,4.9018,4.9018,4.9018,4.9018,4.9018,4.9018,4.9018,4.9018,4.9052,4.9306,4.939,4.9204,4.9272,4.9373,4.0912,4.1413,4.1546,4.2054,4.2738,4.3333,4.3615,4.3615,4.3615,4.3615,4.3615,4.3615,4.3731,4.383,4.439,4.4887,4.5251,4.598,4.6703,4.7278,4.8072,4.8385,4.8578,4.8767,4.894,4.9018,4.8987,4.9001,4.9001,4.9018,4.9018,4.9018,4.9018,4.9018,4.9018,4.9018,4.9018,4.9018,4.9018,4.9018,4.9018,4.9018,4.9018,4.9018,4.9018,4.9018,4.9018,4.9018,4.9018,4.9018,4.9018,4.9018,4.9018,4.9018,4.9018,4.9018,4.9018,4.9018,4.9018,4.9018,4.9018,4.9018,4.9018,4.9018,4.9018,4.9001,4.9001,4.9001,4.8984,4.8984,4.8849,4.8849,4.89,4.89,4.8731,4.8714,4.89,4.8968,4.8984,4.8984,4.8866,4.8426,4.799,4.7885,4.8122,4.8396,4.8511,4.8798,4.8883,4.8951,4.9018,4.9018,4.9018,4.9001,4.9001,4.8984,4.9018,4.9018,4.9018,4.9018,4.9018,4.9018,4.9018,4.9018,4.9018,4.9018,4.9018,4.9018,4.912,4.9238,4.9695,4.983,4.9627,4.9661,4.9949]}]]